[[{"header":{"parameterUnit":"m.s-1","parameterCategory":1,"la1":30.6,"la2":29.2853,"lo1":-89.7004,"lo2":-87.6739,"dy":0.0162,"dx":0.0183,"nx":112,"ny":82,"refTime":"2026-05-24T12:00:00:Z","depth":0,"parameterNumber":2,"parameterNumberName":"U-component_of_WINDS"},"data":[0.0,0.0,0.0,0.0,0.0,0.0,0.0,0.0,0.0,0.0,0.0,0.0,0.0,0.0,0.0,0.0,0.0,0.0,0.0,0.0,0.0,0.0,0.0,0.0,0.0,0.0,0.0,0.0,0.0,0.0,0.0,0.0,0.0,0.0,0.0,0.0,0.0,0.0,0.0,0.0,0.0,0.0,0.0,0.0,0.0,0.0,0.0,0.0,0.0,0.0,0.0,0.0,0.0,0.0,0.0,0.0,0.0,0.0,0.0,0.0,0.0,0.0,0.0,0.0,0.0,0.0,0.0,0.0,0.0,0.0,0.0,0.0,0.0,0.0,0.0,0.0,0.0,0.0,0.0,0.0,0.0,0.0,0.0,0.0,0.0,0.0,0.0,0.0,0.0,0.0,-2.7895,-3.1135,-3.5503,-3.7738,-3.6562,-3.5828,-3.33,-2.8304,0.0,0.0,0.0,0.0,0.0,0.0,0.0,0.0,0.0,0.0,0.0,0.0,0.0,0.0,0.0,0.0,0.0,0.0,0.0,0.0,0.0,0.0,0.0,0.0,0.0,0.0,0.0,0.0,0.0,0.0,0.0,0.0,0.0,0.0,0.0,0.0,0.0,0.0,0.0,0.0,0.0,0.0,0.0,0.0,0.0,0.0,0.0,0.0,0.0,0.0,0.0,0.0,0.0,0.0,0.0,0.0,0.0,0.0,0.0,0.0,0.0,0.0,0.0,0.0,0.0,0.0,0.0,0.0,0.0,0.0,0.0,0.0,0.0,0.0,0.0,0.0,0.0,0.0,0.0,0.0,0.0,0.0,0.0,0.0,0.0,0.0,0.0,0.0,0.0,0.0,0.0,0.0,0.0,0.0,0.0,0.0,0.0,0.0,0.0,0.0,0.0,0.0,0.0,0.0,-2.8376,-3.4762,-3.7099,-3.7912,-3.7215,-3.6089,-3.3678,-2.9566,0.0,0.0,0.0,0.0,0.0,0.0,0.0,0.0,0.0,0.0,0.0,0.0,0.0,0.0,0.0,0.0,0.0,0.0,0.0,0.0,0.0,0.0,0.0,0.0,0.0,0.0,0.0,0.0,0.0,0.0,0.0,0.0,0.0,0.0,0.0,0.0,0.0,0.0,0.0,0.0,0.0,0.0,0.0,0.0,0.0,0.0,0.0,0.0,0.0,0.0,0.0,0.0,0.0,0.0,0.0,0.0,0.0,0.0,0.0,0.0,0.0,0.0,0.0,0.0,0.0,0.0,0.0,0.0,0.0,0.0,0.0,0.0,0.0,0.0,0.0,0.0,0.0,0.0,0.0,0.0,0.0,0.0,0.0,0.0,0.0,0.0,0.0,0.0,0.0,0.0,0.0,0.0,0.0,0.0,0.0,0.0,0.0,0.0,0.0,0.0,0.0,0.0,0.0,-2.7794,-3.093,-3.6272,-3.7665,-3.7955,-3.736,-3.6148,-3.375,-2.9842,-2.601,0.0,0.0,0.0,0.0,0.0,0.0,0.0,0.0,0.0,0.0,0.0,0.0,0.0,0.0,0.0,0.0,0.0,0.0,0.0,0.0,0.0,0.0,0.0,0.0,0.0,0.0,0.0,0.0,0.0,0.0,0.0,0.0,0.0,0.0,0.0,0.0,0.0,0.0,0.0,0.0,0.0,0.0,0.0,0.0,0.0,0.0,0.0,0.0,0.0,0.0,0.0,0.0,0.0,0.0,0.0,0.0,0.0,0.0,0.0,0.0,0.0,0.0,0.0,0.0,0.0,0.0,0.0,0.0,0.0,0.0,0.0,0.0,0.0,0.0,0.0,0.0,0.0,0.0,0.0,0.0,0.0,0.0,0.0,0.0,0.0,0.0,0.0,0.0,0.0,0.0,0.0,0.0,0.0,0.0,0.0,0.0,0.0,0.0,0.0,0.0,0.0,0.0,-3.1569,-3.3732,-3.7157,-3.7926,-3.8014,-3.7549,-3.5959,-3.3431,-2.9827,-2.5734,0.0,0.0,0.0,0.0,0.0,0.0,0.0,0.0,0.0,0.0,0.0,0.0,0.0,0.0,0.0,0.0,0.0,0.0,0.0,0.0,0.0,0.0,0.0,0.0,0.0,0.0,0.0,0.0,0.0,0.0,0.0,0.0,0.0,0.0,0.0,0.0,0.0,0.0,0.0,0.0,0.0,0.0,0.0,0.0,0.0,0.0,0.0,0.0,0.0,0.0,0.0,0.0,0.0,0.0,0.0,0.0,0.0,0.0,0.0,0.0,0.0,0.0,0.0,0.0,0.0,0.0,0.0,0.0,0.0,0.0,0.0,0.0,0.0,0.0,0.0,0.0,0.0,0.0,0.0,0.0,0.0,0.0,0.0,0.0,0.0,0.0,0.0,0.0,0.0,0.0,0.0,0.0,0.0,0.0,0.0,0.0,0.0,0.0,0.0,0.0,0.0,0.0,-3.2846,-3.5915,-3.7912,-3.8173,-3.8188,-3.8144,-3.5392,-3.2501,-2.9769,-2.4907,0.0,0.0,0.0,0.0,0.0,0.0,0.0,0.0,0.0,0.0,0.0,0.0,0.0,0.0,0.0,0.0,0.0,0.0,0.0,0.0,0.0,0.0,0.0,0.0,0.0,0.0,0.0,0.0,0.0,0.0,0.0,0.0,0.0,0.0,0.0,0.0,0.0,0.0,0.0,0.0,0.0,0.0,0.0,0.0,0.0,0.0,0.0,0.0,0.0,0.0,0.0,0.0,0.0,0.0,0.0,0.0,0.0,0.0,0.0,0.0,0.0,0.0,0.0,0.0,0.0,0.0,0.0,0.0,0.0,0.0,0.0,0.0,0.0,0.0,0.0,0.0,0.0,0.0,0.0,0.0,0.0,0.0,0.0,0.0,0.0,0.0,0.0,0.0,0.0,0.0,0.0,0.0,0.0,0.0,0.0,0.0,0.0,0.0,0.0,0.0,0.0,0.0,-3.2629,-3.5807,0.0,-3.8826,-3.8826,-3.8826,-3.6293,-3.3242,-2.9813,0.0,0.0,0.0,0.0,0.0,0.0,0.0,0.0,0.0,0.0,0.0,0.0,0.0,0.0,0.0,0.0,0.0,0.0,0.0,0.0,0.0,0.0,0.0,0.0,0.0,0.0,0.0,0.0,0.0,0.0,0.0,0.0,0.0,0.0,0.0,0.0,0.0,0.0,0.0,0.0,0.0,0.0,0.0,0.0,0.0,0.0,0.0,0.0,0.0,0.0,0.0,0.0,0.0,0.0,0.0,0.0,0.0,0.0,0.0,0.0,0.0,0.0,0.0,0.0,0.0,0.0,0.0,0.0,0.0,0.0,0.0,0.0,0.0,0.0,0.0,0.0,0.0,0.0,0.0,0.0,0.0,0.0,0.0,0.0,0.0,0.0,0.0,0.0,0.0,0.0,0.0,0.0,0.0,0.0,0.0,0.0,0.0,0.0,0.0,0.0,0.0,0.0,-2.9348,-3.3253,-3.6533,0.0,-3.9204,-3.9204,-3.9204,-3.6286,-3.2991,-2.9537,0.0,0.0,0.0,0.0,0.0,0.0,0.0,0.0,0.0,0.0,0.0,0.0,0.0,0.0,0.0,0.0,0.0,0.0,0.0,0.0,0.0,0.0,0.0,0.0,0.0,0.0,0.0,0.0,0.0,0.0,0.0,0.0,0.0,0.0,0.0,0.0,0.0,0.0,0.0,0.0,0.0,0.0,0.0,0.0,0.0,0.0,0.0,0.0,0.0,0.0,0.0,0.0,0.0,0.0,0.0,0.0,0.0,0.0,0.0,0.0,0.0,0.0,0.0,0.0,0.0,0.0,0.0,0.0,0.0,0.0,0.0,0.0,0.0,0.0,0.0,0.0,0.0,0.0,0.0,0.0,0.0,0.0,0.0,0.0,0.0,0.0,0.0,0.0,0.0,0.0,0.0,0.0,0.0,0.0,0.0,0.0,0.0,0.0,0.0,0.0,0.0,0.0,-3.0191,-3.5038,-3.8463,-3.9146,-3.9218,-3.9218,-3.9218,-3.5111,-3.1438,0.0,0.0,0.0,0.0,0.0,0.0,0.0,0.0,0.0,0.0,0.0,0.0,0.0,0.0,0.0,0.0,0.0,0.0,0.0,0.0,0.0,0.0,0.0,0.0,0.0,0.0,0.0,0.0,0.0,0.0,0.0,0.0,0.0,0.0,0.0,0.0,0.0,0.0,0.0,0.0,0.0,0.0,0.0,0.0,0.0,0.0,0.0,0.0,0.0,0.0,0.0,0.0,0.0,0.0,0.0,0.0,0.0,0.0,0.0,0.0,0.0,0.0,0.0,0.0,0.0,0.0,0.0,0.0,0.0,0.0,0.0,0.0,0.0,0.0,0.0,0.0,0.0,0.0,0.0,0.0,0.0,0.0,0.0,0.0,0.0,0.0,0.0,0.0,0.0,0.0,0.0,0.0,0.0,0.0,0.0,0.0,0.0,0.0,0.0,0.0,0.0,0.0,0.0,-3.0191,-3.5444,-3.9146,-3.977,-3.9828,-3.9828,-3.9828,-3.6156,-3.2367,-2.8927,0.0,0.0,0.0,0.0,0.0,0.0,0.0,0.0,0.0,0.0,0.0,0.0,0.0,0.0,0.0,0.0,0.0,0.0,0.0,0.0,0.0,0.0,0.0,0.0,0.0,0.0,0.0,0.0,0.0,0.0,0.0,0.0,0.0,0.0,0.0,0.0,0.0,0.0,0.0,0.0,0.0,0.0,0.0,0.0,0.0,0.0,0.0,0.0,0.0,0.0,0.0,0.0,0.0,0.0,0.0,0.0,0.0,0.0,0.0,0.0,0.0,0.0,0.0,0.0,0.0,0.0,0.0,0.0,0.0,0.0,0.0,0.0,0.0,0.0,0.0,0.0,0.0,0.0,0.0,0.0,0.0,0.0,0.0,0.0,0.0,0.0,0.0,0.0,0.0,0.0,0.0,0.0,0.0,0.0,0.0,0.0,0.0,0.0,0.0,0.0,0.0,0.0,-3.0837,-3.6388,-4.0134,-4.0463,-4.0495,-4.0379,-4.0118,-3.707,-3.3412,-2.9319,0.0,0.0,0.0,0.0,0.0,0.0,0.0,0.0,0.0,0.0,0.0,0.0,0.0,0.0,0.0,0.0,0.0,0.0,0.0,0.0,0.0,0.0,0.0,0.0,0.0,0.0,0.0,0.0,0.0,0.0,0.0,0.0,0.0,0.0,0.0,0.0,0.0,0.0,0.0,0.0,0.0,0.0,0.0,0.0,0.0,0.0,0.0,0.0,0.0,0.0,0.0,0.0,0.0,0.0,0.0,0.0,0.0,0.0,0.0,0.0,0.0,0.0,0.0,0.0,0.0,0.0,0.0,0.0,0.0,0.0,0.0,0.0,0.0,0.0,0.0,0.0,0.0,0.0,0.0,0.0,0.0,0.0,0.0,0.0,0.0,0.0,0.0,0.0,0.0,0.0,0.0,0.0,0.0,0.0,0.0,0.0,0.0,0.0,0.0,0.0,0.0,0.0,-3.1857,-3.7402,-4.1089,-4.1098,-4.1091,-4.0829,-4.0162,-3.7767,-3.4443,-3.0045,0.0,0.0,0.0,0.0,0.0,0.0,0.0,0.0,0.0,0.0,0.0,0.0,0.0,0.0,0.0,0.0,0.0,0.0,0.0,0.0,0.0,0.0,0.0,0.0,0.0,0.0,0.0,0.0,0.0,0.0,0.0,0.0,0.0,0.0,0.0,0.0,0.0,0.0,0.0,0.0,0.0,0.0,0.0,0.0,0.0,0.0,0.0,0.0,0.0,0.0,0.0,0.0,0.0,0.0,0.0,0.0,0.0,0.0,0.0,0.0,-2.9266,-2.6558,0.0,0.0,0.0,0.0,0.0,0.0,0.0,0.0,0.0,0.0,0.0,0.0,0.0,0.0,0.0,0.0,0.0,0.0,0.0,0.0,0.0,0.0,0.0,0.0,0.0,0.0,0.0,0.0,0.0,0.0,0.0,0.0,0.0,0.0,0.0,0.0,0.0,0.0,0.0,0.0,-3.2061,-3.7069,-4.0533,-4.1058,-4.1091,-4.0829,-4.0162,-3.7767,-3.482,-3.1337,-2.7505,0.0,0.0,0.0,0.0,0.0,0.0,0.0,0.0,0.0,0.0,0.0,0.0,0.0,0.0,0.0,0.0,0.0,0.0,0.0,0.0,0.0,0.0,0.0,0.0,0.0,0.0,0.0,0.0,0.0,0.0,0.0,0.0,0.0,0.0,0.0,0.0,0.0,0.0,0.0,0.0,0.0,0.0,0.0,0.0,0.0,0.0,0.0,0.0,0.0,0.0,0.0,0.0,0.0,0.0,0.0,0.0,0.0,0.0,0.0,-3.4466,-3.1971,0.0,0.0,0.0,0.0,0.0,0.0,0.0,0.0,0.0,0.0,0.0,0.0,0.0,0.0,0.0,0.0,0.0,0.0,0.0,0.0,0.0,0.0,0.0,0.0,0.0,0.0,0.0,0.0,0.0,0.0,0.0,0.0,0.0,0.0,0.0,0.0,0.0,0.0,0.0,0.0,-3.3246,-3.7753,-4.091,-4.1548,-4.1317,-4.0829,-4.0162,-3.8072,-3.5546,-3.2629,-2.9131,0.0,0.0,0.0,0.0,0.0,0.0,0.0,0.0,0.0,0.0,0.0,0.0,0.0,0.0,0.0,0.0,0.0,0.0,0.0,0.0,0.0,0.0,0.0,0.0,0.0,0.0,0.0,0.0,0.0,0.0,0.0,0.0,0.0,0.0,0.0,0.0,0.0,0.0,0.0,0.0,0.0,0.0,0.0,0.0,0.0,0.0,0.0,0.0,0.0,0.0,0.0,0.0,0.0,-4.188,-4.3002,-4.4253,-4.4188,-4.4167,-4.3984,-4.0561,-3.8807,-3.8137,-3.5153,0.0,0.0,0.0,0.0,0.0,0.0,0.0,0.0,0.0,0.0,0.0,0.0,0.0,0.0,0.0,0.0,0.0,0.0,0.0,0.0,0.0,0.0,-3.201,-3.2593,-3.408,-3.3981,-2.894,0.0,0.0,0.0,0.0,0.0,0.0,0.0,0.0,0.0,0.0,0.0,-3.455,-3.8565,-4.1255,-4.1787,-4.1301,-4.0655,-4.0002,-3.8318,-3.6301,-3.3983,-3.0816,-2.749,0.0,0.0,0.0,0.0,0.0,0.0,0.0,0.0,0.0,0.0,0.0,0.0,0.0,0.0,0.0,0.0,0.0,0.0,0.0,0.0,0.0,0.0,0.0,0.0,0.0,0.0,0.0,0.0,0.0,0.0,0.0,0.0,-2.3718,-2.5515,0.0,0.0,0.0,0.0,0.0,0.0,0.0,0.0,0.0,0.0,0.0,0.0,0.0,-3.9104,-3.9784,-4.307,-4.5128,-4.5955,-4.7931,-4.9309,-5.0087,-5.0066,-5.0078,-5.0052,-4.9523,0.0,-4.1067,-3.9447,0.0,0.0,0.0,0.0,0.0,0.0,0.0,0.0,0.0,0.0,0.0,0.0,0.0,0.0,0.0,0.0,0.0,0.0,0.0,0.0,0.0,0.0,-3.6559,-3.6767,-3.7418,-3.7649,-3.6338,-3.2033,-2.759,-2.4815,-2.3776,0.0,0.0,0.0,0.0,0.0,0.0,0.0,-3.4949,-3.8277,-4.0411,-4.0383,-4.0299,-3.9987,-3.9363,-3.8086,-3.6678,-3.5247,-3.2138,-2.9624,-2.7984,-2.452,0.0,0.0,0.0,0.0,0.0,0.0,0.0,0.0,0.0,0.0,0.0,0.0,0.0,0.0,0.0,0.0,0.0,0.0,0.0,0.0,0.0,0.0,0.0,0.0,0.0,0.0,0.0,0.0,0.0,-2.3781,-2.7018,-2.7802,-2.8304,-2.8267,0.0,0.0,0.0,0.0,0.0,0.0,0.0,0.0,0.0,-4.0982,-4.2747,-4.4366,-4.5872,-4.7848,-4.9175,-4.9888,-5.0827,-5.1669,-5.2381,-5.2381,-5.2381,-5.2381,-5.2381,-5.0564,-4.7409,-4.4822,-4.2093,-3.9409,0.0,0.0,0.0,0.0,-3.6858,-3.6553,-3.8793,-3.8686,-3.7389,-3.6607,0.0,0.0,0.0,0.0,0.0,0.0,0.0,-3.4512,-3.6072,-3.8169,-3.9953,-4.0329,-4.0923,-4.1022,-3.9597,-3.6965,-3.3645,-2.9475,-2.8401,-2.7095,-2.379,0.0,0.0,0.0,0.0,-3.354,-3.5593,-3.8091,-3.9797,-4.0176,-3.9852,-3.9494,-3.9218,-3.7694,-3.6504,-3.5923,-3.3238,-3.109,-2.9828,-2.6765,-2.3998,0.0,0.0,0.0,0.0,0.0,0.0,0.0,0.0,0.0,0.0,0.0,0.0,0.0,0.0,0.0,0.0,0.0,0.0,0.0,0.0,0.0,0.0,0.0,0.0,0.0,0.0,0.0,0.0,-2.7187,-2.9955,-3.0134,-3.1429,-3.1713,0.0,0.0,0.0,0.0,0.0,0.0,-3.9088,-4.0772,-4.2958,-4.5791,-4.741,-4.9013,-5.0617,-5.1361,-5.2074,-5.2754,-5.2948,-5.3321,-5.3815,-5.4049,-5.4033,-5.3815,-5.3815,-5.3434,-5.2495,-4.9111,-4.6261,-4.3913,-4.2423,-4.1112,-4.0254,-4.2002,-4.2043,-4.1582,-4.4323,-4.4281,-4.2799,-4.1409,-3.9961,-3.8325,-3.5797,0.0,0.0,0.0,0.0,-3.7746,-3.9929,-4.1405,-4.242,-4.3011,-4.3587,-4.3509,-4.1773,-4.0722,-3.8763,-3.4101,-3.3009,-3.1576,-2.761,0.0,0.0,0.0,0.0,-3.4818,-3.6611,-3.8221,-3.9369,-3.9728,-3.9256,-3.8942,-3.8942,-3.7317,-3.6301,-3.6301,-3.392,-3.2077,-3.1119,-2.8463,-2.6054,-2.394,0.0,0.0,0.0,0.0,0.0,0.0,0.0,0.0,0.0,0.0,0.0,0.0,0.0,0.0,0.0,0.0,0.0,0.0,0.0,0.0,0.0,0.0,0.0,0.0,0.0,0.0,0.0,0.0,0.0,-3.3761,-3.5137,0.0,0.0,0.0,0.0,-3.7922,-3.9991,-4.213,-4.4302,-4.6439,-4.7961,-4.8751,-5.0843,-5.1977,-5.209,-5.2835,-5.358,-5.4308,-5.494,-5.528,-5.5328,-5.6025,-5.596,-5.5312,-5.5312,-5.4924,-5.4065,-5.1135,-4.9078,-4.7605,-4.6115,-4.5095,-4.4561,-4.5305,-4.5565,-4.5628,-4.6486,-4.671,-4.6629,-4.6516,-4.4707,-4.2385,-4.1587,-4.0352,0.0,0.0,-4.0796,-4.1545,-4.309,-4.3533,-4.3788,-4.4508,-4.4706,-4.4528,-4.3735,-4.2526,-4.0734,0.0,-3.6684,-3.5651,-3.4076,0.0,-3.4042,-3.4691,-3.5538,-3.6579,-3.8023,-3.8832,-3.9053,-3.8396,-3.8283,-3.826,-3.826,-3.7056,-3.6301,-3.6301,-3.392,-3.2452,-3.2425,-2.9349,-2.7304,-2.6631,-2.2817,0.0,0.0,0.0,0.0,0.0,0.0,0.0,0.0,0.0,0.0,0.0,0.0,0.0,0.0,0.0,0.0,0.0,0.0,0.0,0.0,0.0,0.0,0.0,0.0,0.0,0.0,0.0,0.0,-3.742,-3.9233,0.0,-3.9007,-3.98,-4.0982,-4.2407,-4.4091,-4.5937,-4.8091,-4.9386,-5.0795,-5.243,-5.3223,-5.3823,-5.426,-5.4535,-5.5037,-5.5749,-5.5523,-5.5668,-5.6106,-5.5895,-5.5668,-5.5409,-5.5409,-5.528,-5.494,-5.3483,-5.2009,-5.0617,-4.9645,-4.8835,-4.8236,-4.8479,-4.8576,-4.8673,-4.9402,-4.9354,-4.8803,-4.7896,-4.6311,-4.4691,-4.4448,-4.3702,-4.2988,-4.3264,-4.3799,-4.4408,-4.4915,-4.5412,-4.5729,-4.5481,-4.5435,-4.5257,-4.4561,-4.367,-4.2687,-4.1726,-3.9832,-3.7568,-3.4924,-3.656,-3.7601,-3.5793,-3.7479,-3.8994,-3.9082,-3.9208,-3.9211,-3.8936,-3.8472,-3.8043,-3.7651,-3.6823,-3.5967,-3.514,-3.347,-3.2135,-3.1293,-2.9377,-2.7853,-2.6835,-2.4196,-2.1532,0.0,0.0,0.0,0.0,0.0,0.0,0.0,0.0,0.0,0.0,0.0,0.0,0.0,0.0,0.0,0.0,0.0,0.0,0.0,0.0,0.0,0.0,0.0,0.0,0.0,-3.5914,-3.9201,-4.0415,-4.2634,-4.3702,-4.2779,-4.3751,-4.49,-4.6131,-4.754,-4.9062,-5.0714,-5.1734,-5.2932,-5.4357,-5.4616,-5.4956,-5.5409,-5.5409,-5.5668,-5.6122,-5.5895,-5.5911,-5.6122,-5.5895,-5.5652,-5.5409,-5.5409,-5.5409,-5.5377,-5.4924,-5.4163,-5.3191,-5.2268,-5.162,-5.1151,-5.0908,-5.0811,-5.0843,-5.1102,-5.0714,-4.9953,-4.9013,-4.788,-4.6892,-4.6892,-4.6585,-4.6228,-4.6228,-4.6374,-4.6552,-4.6552,-4.6714,-4.6763,-4.6277,-4.6164,-4.5986,-4.5289,-4.4755,-4.4204,-4.3475,-4.1821,-3.977,-3.7375,-3.9123,-4.0126,-3.8002,-3.9266,-4.0388,-4.0206,-3.9671,-3.9305,-3.9305,-3.8657,-3.7955,-3.736,-3.6504,-3.5546,-3.4486,-3.2803,-3.1467,-3.0641,-2.897,-2.7663,-2.682,-2.4675,-2.2309,-1.9725,0.0,0.0,0.0,0.0,0.0,0.0,0.0,0.0,0.0,0.0,0.0,0.0,0.0,0.0,0.0,0.0,0.0,0.0,0.0,0.0,0.0,0.0,0.0,-3.6303,-3.9444,-4.1985,-4.2731,-4.5273,-4.6423,-4.5095,-4.6876,-4.8398,-4.9042,-5.0438,-5.1539,-5.222,-5.3628,-5.4422,-5.4438,-5.5069,-5.5409,-5.5409,-5.5409,-5.5426,-5.5458,-5.6138,-5.6106,-5.5474,-5.6154,-5.6089,-5.5409,-5.5409,-5.5409,-5.5409,-5.5409,-5.5409,-5.528,-5.3904,-5.3314,-5.3217,-5.2479,-5.2187,-5.2074,-5.141,-5.0714,-5.0131,-5.0131,-4.9645,-4.901,-4.901,-4.901,-4.8994,-4.8994,-4.8528,-4.801,-4.801,-4.7443,-4.6876,-4.6876,-4.6876,-4.6698,-4.5986,-4.5824,-4.5185,-4.3103,-4.2638,-4.2408,-4.1727,-4.155,-4.1564,-4.1602,-4.0968,0.0,-4.1444,-4.0278,-3.9341,-3.9326,-3.8664,-3.7964,-3.7302,-3.6069,-3.5087,-3.437,-3.1961,-3.0583,-3.0539,-2.8186,-2.6837,-2.6849,-2.4273,-2.2345,-2.109,0.0,0.0,0.0,0.0,0.0,0.0,0.0,0.0,0.0,0.0,0.0,0.0,0.0,0.0,0.0,0.0,0.0,0.0,0.0,0.0,0.0,-3.5687,-3.8403,-3.857,-4.1693,-4.435,-4.5581,-4.733,-4.8495,-4.8625,-4.9645,-5.06,-5.128,-5.2203,-5.3045,-5.3758,-5.4179,-5.4632,-5.5118,-5.5312,-5.5409,-5.5409,-5.5409,-5.5685,-5.6187,-5.5863,-5.5879,-5.6187,-5.5863,-5.5604,-5.5409,-5.5409,-5.5409,-5.5409,-5.5409,-5.5409,-5.5328,-5.4454,-5.4114,-5.3952,-5.2673,-5.1879,-5.1442,-5.1248,-5.1054,-5.0892,-5.0892,-5.039,-4.9807,-4.9807,-4.9434,-4.8994,-4.8994,-4.8528,-4.801,-4.801,-4.7443,-4.6876,-4.6876,-4.6876,-4.6828,-4.6633,-4.618,-4.5627,-4.5039,-4.4106,-4.3009,-4.1741,-4.1949,-4.2285,-4.2327,-4.2125,0.0,-4.2285,-4.1492,-4.0504,-3.955,-3.8777,-3.7689,-3.6052,-3.514,-3.3993,-3.2411,-3.1221,-3.0191,-2.9261,-2.8564,-2.794,-2.7449,-2.5415,-2.3934,0.0,0.0,0.0,0.0,0.0,0.0,0.0,0.0,0.0,0.0,0.0,0.0,0.0,0.0,0.0,0.0,0.0,0.0,0.0,0.0,0.0,0.0,-3.98,-4.2342,-4.2958,-4.4836,-4.6666,-4.8058,-4.9483,-5.0519,-5.094,-5.1653,-5.2236,-5.2641,-5.3353,-5.3952,-5.4389,-5.4681,-5.5005,-5.5409,-5.5409,-5.5409,-5.5409,-5.5409,-5.5636,-5.6041,-5.562,-5.5636,-5.6025,-5.5604,-5.5409,-5.5409,-5.5409,-5.5409,-5.5409,-5.5409,-5.5409,-5.5377,0.0,0.0,0.0,0.0,-5.222,-5.1572,-5.128,-5.1183,-5.1183,-5.1183,-5.0908,-5.0552,-5.0552,-5.026,-4.9936,-4.9936,-4.9208,-4.8431,-4.8431,-4.7653,-4.6876,-4.6876,-4.6876,-4.6876,-4.6876,-4.6552,-4.6164,-4.5856,-4.4917,0.0,-4.2605,-4.2526,-4.2602,-4.2602,-4.2602,-4.2602,-4.2602,-4.1981,-4.1088,-3.9979,-3.9228,-3.7946,-3.5971,-3.5183,0.0,0.0,0.0,-2.9915,-2.8347,-2.8274,0.0,0.0,0.0,0.0,0.0,0.0,0.0,0.0,-2.2962,-2.2962,0.0,0.0,0.0,0.0,0.0,0.0,0.0,0.0,0.0,0.0,0.0,0.0,0.0,0.0,0.0,0.0,-4.3654,-4.6471,-4.8026,-4.8252,-4.8706,-4.9953,-5.1345,-5.2203,-5.2203,-5.2948,-5.3395,-5.3395,-5.4114,-5.4519,-5.4519,-5.5086,0.0,0.0,0.0,-5.5409,-5.5409,-5.5409,-5.5409,-5.5409,-5.5409,-5.5409,-5.5409,-5.5409,-5.5409,-5.5409,-5.5409,-5.5409,-5.5409,-5.5409,-5.5409,-5.5409,-5.5409,-5.5361,-5.515,-5.3864,-5.2916,-5.2106,-5.1507,0.0,0.0,-5.1183,-5.1183,-5.1183,-5.1183,-5.1183,-5.1183,-5.1183,-5.0147,-4.8994,-4.8994,-4.7961,-4.6876,-4.6876,-4.6876,-4.6876,-4.6876,-4.6876,-4.6698,-4.605,-4.5322,-4.4593,-4.3945,-4.3136,-4.2602,-4.2602,-4.2602,-4.2602,-4.2602,-4.1981,-4.118,-4.0377,0.0,0.0,-3.6372,-3.5654,-3.4506,-3.2629,-3.1366,-2.9914,-2.8203,-2.8231,-2.8231,-2.813,-2.8158,-2.8433,-2.8912,-2.8912,-2.8956,-2.8941,-2.5259,-2.4795,0.0,0.0,0.0,0.0,0.0,0.0,0.0,0.0,0.0,0.0,0.0,0.0,0.0,0.0,0.0,-4.1793,-4.4723,-4.7378,-4.9418,-4.9694,-4.9791,-5.0066,-5.1345,-5.2203,-5.2203,-5.3418,-5.4195,-5.4195,-5.4826,-5.5215,-5.5215,-5.5345,-5.5409,-5.5409,-5.5409,-5.5409,-5.5409,-5.5409,-5.5409,-5.5409,-5.5409,0.0,-5.5409,-5.5409,-5.5409,-5.5409,-5.5409,-5.5409,-5.5409,-5.5409,-5.5409,-5.5409,-5.5409,-5.5086,-5.4567,-5.4292,-5.3353,-5.2171,-5.2041,-5.1637,-5.1183,-5.1183,-5.1183,-5.1183,-5.1183,-5.1183,0.0,-5.1183,-5.0147,-4.8994,-4.8994,-4.7961,-4.6876,-4.6876,-4.6876,-4.6876,-4.6876,-4.6876,-4.6878,-4.6698,-4.5662,-4.4739,-4.4609,-4.3492,-4.2602,-4.2602,-4.2602,-4.2602,-4.2602,-4.1981,-4.1041,-3.9812,-3.9001,-3.7758,-3.5752,-3.4965,-3.3993,-3.2582,-3.1772,-3.1177,-3.077,-3.1431,-3.146,-3.077,-3.1071,-3.091,-3.0234,-3.0338,-3.0601,-3.0916,-2.8637,-2.7839,0.0,0.0,0.0,0.0,0.0,0.0,0.0,0.0,0.0,0.0,0.0,-3.5525,-3.6594,0.0,-4.2391,-4.4884,-4.6811,-4.8576,-5.039,-5.0649,-5.0649,-5.0649,-5.1896,-5.2754,-5.2754,-5.4065,-5.4907,-5.4907,-5.5231,-5.5409,-5.5409,-5.5409,-5.5409,-5.5409,-5.5409,-5.5409,-5.5409,-5.5409,-5.5409,-5.5409,-5.5409,-5.5409,-5.5409,-5.5409,-5.5409,-5.5409,-5.5409,-5.5409,-5.5409,-5.5409,-5.5409,-5.5409,-5.5409,-5.5215,-5.4875,-5.4535,-5.3936,-5.3191,-5.2446,-5.1977,-5.1637,-5.1297,-5.1183,-5.1183,-5.1183,-5.1183,-5.1183,-5.1183,-5.0147,-4.8994,-4.8994,-4.7961,-4.6876,-4.6876,-4.6876,-4.6876,-4.6876,-4.6876,-4.6876,-4.6876,-4.5743,-4.4787,-4.4787,-4.3589,-4.2602,-4.2602,-4.2602,-4.246,-4.211,-4.1738,-4.0986,-3.9696,-3.9229,-3.8361,-3.6793,-3.5463,-3.4226,-3.3165,-3.2509,-3.2176,-3.224,-3.2591,-3.262,-3.224,-3.2472,-3.231,-3.1788,-3.1865,-3.2041,-3.2242,-3.129,-3.0821,0.0,0.0,0.0,0.0,0.0,0.0,0.0,0.0,-3.3,-3.4441,-3.6886,-3.925,-4.0836,-4.2763,-4.4965,-4.7589,-4.8576,-4.9532,-5.0973,-5.1183,-5.1183,-5.1183,-5.2317,-5.312,-5.3265,-5.447,-5.528,-5.5409,-5.5409,-5.5409,-5.5409,-5.5409,-5.5409,-5.5409,-5.5409,-5.5409,-5.5409,-5.5409,-5.5409,-5.5409,-5.5409,-5.5409,-5.5409,-5.5409,-5.5409,-5.5409,-5.5409,-5.5409,-5.5409,-5.5409,-5.5409,-5.5409,-5.5409,-5.5409,-5.5345,-5.4794,-5.4519,-5.4211,-5.2883,-5.2317,-5.209,-5.141,-5.1183,-5.1183,-5.1183,-5.1183,-5.1183,-5.1183,-5.0147,-4.8994,-4.8994,-4.7961,-4.6876,-4.6876,-4.6876,-4.6876,-4.6876,-4.6876,-4.6876,-4.6876,-4.5743,-4.4787,-4.4787,-4.3589,-4.2602,-4.2602,-4.2602,-4.2317,-4.1591,-4.1393,-4.0891,-3.9728,-3.9529,-3.8979,-3.7822,-3.6129,-3.478,-3.3988,-3.3457,-3.3243,-3.3374,-3.3292,-3.3292,-3.3374,-3.3437,-3.3437,-3.3374,-3.3406,-3.3406,-3.3374,-3.3406,-3.3225,-2.5354,-2.5778,-2.7203,-3.0376,-3.0839,-3.1859,0.0,0.0,-3.8954,-4.0364,-4.2407,-4.3832,-4.3427,-4.4561,-4.6099,-4.7734,-4.8576,-4.9532,-5.0973,-5.1183,-5.1183,-5.1183,-5.1863,-5.2592,-5.3256,-5.4049,-5.4762,-5.5377,-5.5409,-5.5409,-5.5409,-5.5409,-5.5409,-5.5409,-5.5409,-5.5409,-5.5409,-5.5409,-5.5409,-5.5409,-5.5409,-5.5409,-5.5409,-5.5409,-5.5409,-5.5409,-5.5409,-5.5409,-5.5409,-5.5409,-5.5409,-5.5409,-5.5409,-5.5409,-5.5409,-5.5328,-5.4924,-5.4276,-5.3466,-5.2754,-5.209,-5.141,-5.1183,-5.1183,-5.1183,-5.1183,-5.1183,-5.1183,-5.0147,-4.8994,-4.8994,-4.7961,-4.6876,-4.6876,-4.6876,-4.6876,-4.6876,-4.6876,-4.6876,-4.6876,-4.5743,-4.4787,-4.4787,-4.3589,-4.2602,-4.2602,-4.2602,-4.2317,-4.1591,-4.1093,-4.0481,-3.9692,-3.9169,-3.8383,-3.7116,-3.6138,-3.537,-3.4795,-3.4574,-3.4545,-3.4681,-3.4827,-3.486,-3.4681,-3.5038,-3.5023,-3.4681,-3.486,-3.4845,-3.4681,-3.486,-3.4256,-3.0182,-3.0765,-3.1575,-3.3922,-3.5509,-3.7015,-3.9052,-4.0432,-4.1598,-4.2618,-4.4188,-4.5289,-4.4982,-4.5743,-4.6909,0.0,-4.8799,-4.9532,-5.0973,-5.0811,-5.0552,-5.0552,-5.0811,-5.1426,-5.256,-5.3725,-5.4519,-5.481,-5.5199,-5.5409,-5.5409,-5.5409,-5.5409,-5.5409,-5.5409,-5.5409,-5.5409,-5.5409,-5.5409,-5.5409,-5.5409,-5.5409,-5.5409,-5.5409,-5.5409,-5.5409,-5.5409,-5.5409,-5.5409,-5.5409,-5.5409,-5.5409,-5.5409,-5.5409,-5.5409,-5.5409,-5.5231,-5.4826,-5.367,-5.311,-5.2673,-5.1539,-5.1183,-5.1183,-5.1183,-5.1183,-5.1183,-5.1183,-5.0147,-4.8994,-4.8994,-4.7961,-4.6876,-4.6876,-4.6876,-4.6876,-4.6876,-4.6876,-4.6876,-4.6876,-4.6067,-4.5257,-4.4868,-4.3945,-4.3072,-4.2651,-4.2238,-4.1689,-4.0961,-4.0413,-3.9869,-3.9364,-3.9199,-3.8585,-3.7173,-3.6837,-3.623,-3.5141,-3.5016,-3.5063,-3.5261,-3.5213,-3.5213,-3.5261,-3.5407,-3.5439,-3.5261,-3.5326,-3.5326,-3.5261,-3.5326,-3.5029,-3.2967,-3.3955,-3.4845,-3.6724,-3.9007,-4.0772,-4.0658,-4.2132,-4.3622,-4.4188,-4.5095,-4.5807,-4.5807,-4.6228,-4.7054,-4.8512,-4.8864,-4.9451,-5.0714,-5.0438,-5.0017,-4.9823,-4.9807,-5.0276,-5.1507,-5.2948,-5.3968,-5.4373,-5.4859,-5.5215,-5.5409,-5.5409,-5.5409,-5.5409,-5.5409,-5.5409,-5.5409,-5.5409,-5.5409,-5.5409,-5.5409,-5.5409,-5.5409,-5.5409,-5.5409,-5.5409,-5.5409,-5.5409,-5.5409,-5.5409,-5.5409,-5.5409,-5.5409,-5.5409,-5.5409,-5.5409,-5.5409,-5.5215,-5.3767,-5.3281,-5.3078,-5.1653,-5.1183,-5.1183,-5.1183,-5.1183,-5.1183,-5.1183,-5.0276,-4.9273,-4.9042,-4.8107,-4.7135,-4.6941,-4.6876,-4.6876,-4.6876,-4.6876,-4.6876,-4.6876,-4.6293,-4.5597,-4.4917,-4.4221,-4.3508,-4.2716,-4.2013,-4.1278,-4.0485,-3.9783,-3.9328,-3.9213,-3.9301,-3.8874,-3.7635,-3.76,-3.7108,-3.5874,-3.5618,-3.5561,-3.5774,-3.5463,-3.5359,-3.5504,-3.5504,-3.5504,-3.5504,-3.5504,-3.5504,-3.5504,-3.5504,-3.5504,-3.2044,-3.3582,-3.5859,-3.8695,-4.0494,-4.1936,-4.3265,-4.469,-4.571,-4.5726,-4.5775,-4.5807,-4.5807,-4.5824,-4.6326,-4.7799,-4.8592,-4.9289,-5.0034,-5.0115,-4.9839,-4.9107,-4.901,-4.9354,-5.0098,-5.1442,-5.2851,-5.4292,-5.4422,-5.4713,-5.5377,-5.5409,-5.5409,-5.5409,-5.5409,-5.5409,-5.5409,-5.5409,-5.5409,-5.5409,-5.5409,-5.5409,-5.5409,-5.5409,-5.5409,-5.5409,-5.5409,-5.5409,-5.5409,-5.5409,-5.5409,-5.5409,-5.5409,-5.5409,-5.5409,-5.5409,-5.5409,-5.5215,-5.3767,-5.3281,-5.3078,-5.1653,-5.1183,-5.1183,-5.1183,-5.1183,-5.1183,-5.1183,-5.0649,-4.9904,-4.9172,-4.8512,-4.7799,-4.7054,-4.6876,-4.6876,-4.6876,-4.6876,-4.6876,-4.6876,-4.6293,-4.5597,-4.4917,-4.4334,-4.3667,-4.2747,-4.2142,-4.1444,-4.0519,-3.9463,-3.898,-3.9337,-3.9388,-3.9125,-3.8422,-3.8236,-3.7918,-3.7355,-3.6607,-3.628,-3.6447,-3.5848,-3.5504,-3.5504,-3.5504,-3.5504,-3.5504,-3.5504,-3.5504,-3.5504,-3.5504,-3.5504,-3.5024,-3.708,-3.9169,-4.1096,-4.299,-4.4512,-4.4998,-4.5467,-4.5807,-4.5807,-4.5063,-4.4415,-4.4415,-4.4415,-4.4885,-4.6309,-4.7661,-4.8719,-4.9289,-4.99,-4.9807,-4.8479,-4.8719,-4.9091,-4.937,-5.0681,0.0,-5.358,-5.413,-5.4697,-5.5377,-5.5409,-5.5409,-5.5409,-5.5409,-5.5409,-5.5409,-5.5409,-5.5409,-5.5409,-5.5409,-5.5409,-5.5409,-5.5409,-5.5409,-5.5409,-5.5409,-5.5409,-5.5409,-5.5409,-5.5409,-5.5409,-5.5409,-5.5409,-5.5361,-5.4907,-5.4745,-5.4616,-5.3605,-5.3281,-5.3078,-5.1653,-5.1183,-5.1183,-5.1183,-5.1183,-5.1183,-5.1183,-5.0665,-4.9936,-4.9172,-4.8512,-4.7815,-4.707,-4.6876,-4.6876,-4.6876,-4.6876,-4.6876,-4.6876,-4.6682,-4.6181,-4.513,-4.4789,-4.4251,-4.3108,-4.1868,-4.0823,-4.0154,-3.9457,-3.9104,-3.9373,-3.9388,-3.914,-3.8452,-3.8357,-3.8088,-3.7449,-3.7142,-3.6843,-3.6507,-3.6267,-3.5953,-3.5519,-3.5504,-3.5504,-3.5504,-3.5504,-3.5504,-3.5504,-3.5504,-3.5744,-3.7614,-3.9444,-4.1015,-4.3217,-4.4609,-4.55,-4.5743,-4.5419,-4.4982,-4.4723,-4.3362,-4.2197,-4.2197,-4.2017,-4.2583,-4.4706,-4.6219,-4.7604,-4.891,-4.9352,-4.9274,-4.8553,-4.858,-4.8852,-4.9317,-5.026,0.0,-5.2819,-5.3596,-5.4325,-5.5021,-5.528,-5.5409,-5.5409,-5.5409,-5.5409,-5.5409,-5.5409,-5.5409,-5.5409,-5.5409,-5.5409,-5.5409,-5.5409,-5.5409,-5.5409,-5.5409,-5.5409,-5.5409,-5.5409,-5.5409,-5.5409,-5.5409,-5.5409,-5.5328,-5.4648,-5.4405,-5.426,-5.3256,-5.2916,-5.2721,-5.1556,-5.1183,-5.1183,-5.1183,-5.1183,-5.1183,-5.1183,-5.0843,-5.026,-4.9236,-4.867,-4.8123,-4.7119,-4.6876,-4.6876,-4.6876,-4.6876,-4.6876,-4.6876,-4.6876,-4.6572,-4.557,-4.5033,-4.4378,-4.3354,-4.211,-4.106,-4.0481,-3.9884,-3.9451,-3.9424,-3.9388,-3.9245,-3.8796,-3.8751,-3.8571,-3.8153,-3.7898,-3.7584,-3.718,-3.6941,-3.6611,-3.6193,-3.5968,-3.5863,-3.5863,-3.5863,-3.5863,-3.5863,-3.6088,-3.6417,-3.9622,-4.0658,-4.1565,-4.4965,-4.5322,-4.4998,-4.5613,-4.4642,-4.3379,-4.2602,-4.0756,-3.9279,-3.9246,-3.8813,-3.9572,-4.2957,-4.435,-4.5993,-4.8879,-4.8605,-4.844,0.0,0.0,0.0,0.0,0.0,0.0,-5.2155,-5.2916,-5.3661,-5.4422,-5.5069,-5.5409,-5.5409,-5.5409,-5.5409,-5.5409,-5.5409,-5.5409,-5.5409,-5.5409,-5.5409,-5.5409,-5.5409,-5.5409,-5.5409,-5.5409,-5.5409,-5.5409,-5.5409,-5.5409,-5.5409,-5.5409,-5.5409,-5.5328,-5.4616,-5.4341,-5.413,-5.2657,-5.2171,-5.209,-5.141,-5.1183,-5.1183,-5.1183,-5.1183,-5.1183,-5.1183,-5.1183,-5.0843,-4.9402,-4.8994,-4.8673,-4.7216,-4.6876,-4.6876,-4.6876,-4.6876,-4.6876,-4.6876,-4.6894,-4.6703,-4.6157,-4.5031,-4.4041,-4.3487,-4.2803,-4.2126,-4.1393,-4.0684,-4.0021,-3.9445,-3.9388,-3.9388,-3.9388,-3.9388,-3.9388,-3.9388,-3.8796,-3.8422,-3.8392,-3.7793,-3.7449,-3.7404,-3.6836,-3.6537,-3.6537,-3.6537,-3.6537,-3.6552,-3.7135,-3.7419,-4.0931,-4.2844,-4.4674,-4.5581,-4.5678,-4.5451,-4.5127,-4.3524,-4.1759,-4.0545,-3.8149,-3.6135,-3.5574,-3.6338,-3.7834,-4.033,-4.3253,0.0,-4.8384,-4.9461,0.0,-4.9368,0.0,-5.0087,-5.0864,-5.0908,0.0,0.0,-5.3168,-5.3815,-5.5086,-5.5328,-5.5409,-5.5409,-5.5409,-5.5409,-5.5409,-5.5409,-5.5409,-5.5409,-5.5409,-5.5409,-5.5409,-5.5409,-5.5409,-5.5409,-5.5409,-5.5409,-5.5409,-5.5409,-5.5409,-5.5409,-5.5409,-5.5409,-5.5264,-5.4049,-5.3596,-5.3385,-5.1944,-5.1766,-5.209,-5.141,-5.1183,-5.1183,-5.1183,-5.1183,-5.1183,-5.1183,-5.1183,-5.0843,-4.9402,-4.8994,-4.8673,-4.7216,-4.6876,-4.6876,-4.6876,-4.6876,-4.6876,-4.6876,-4.6709,-4.6339,-4.5749,-4.5036,-4.4348,-4.3638,-4.3402,-4.2803,-4.1459,-4.0771,-4.0146,-3.9481,-3.9388,-3.9388,-3.9388,-3.9388,-3.9388,-3.9388,-3.926,-3.8931,-3.8407,-3.8227,-3.7913,-3.7419,-3.7255,-3.718,-3.718,-3.718,-3.718,-3.718,-3.7345,-3.7674,-4.299,-4.4593,-4.5807,-4.5807,-4.5338,-4.4464,-4.2828,-4.0804,-3.8586,-3.6222,-3.4207,-3.2554,-3.1494,-3.3152,-3.5493,0.0,0.0,0.0,-4.8178,-4.9292,-4.9892,0.0,-5.0399,0.0,-5.1561,-5.1637,-5.222,-5.3677,-5.379,-5.4146,-5.4924,-5.5247,-5.5409,-5.5409,-5.5409,-5.5409,-5.5409,-5.5409,-5.5409,-5.5409,-5.5409,-5.5409,-5.5409,-5.5409,-5.5409,-5.5409,-5.5409,-5.5409,-5.5409,-5.5409,-5.5409,-5.5409,-5.5409,-5.5231,-5.4843,-5.3725,-5.311,-5.2673,-5.1572,-5.1442,-5.1685,-5.1313,-5.1183,-5.1183,-5.1183,-5.1183,-5.1183,-5.1183,-5.1183,-5.0924,-4.9791,-4.9256,-4.8719,-4.7637,-4.7135,-4.6876,-4.6876,-4.6876,-4.6927,-4.6996,-4.6958,-4.6684,-4.6091,-4.5524,-4.492,-4.4191,-4.357,-4.2741,-4.1525,-4.1142,-4.0547,-3.9517,-3.9388,-3.9388,-3.9388,-3.9388,-3.9388,-3.9388,-3.9388,-3.9245,-3.8856,-3.8841,-3.8661,-3.8302,-3.8003,-3.7838,-3.7838,-3.7838,-3.7838,-3.7853,-3.8153,-3.8497,-4.5111,-4.5872,-4.5921,-4.5857,-4.4707,-4.286,-4.0008,-3.7588,-3.4903,-3.1341,0.0,-2.894,-2.7656,-2.9897,-3.2924,-3.5908,0.0,-4.3589,-4.8199,-4.8655,-4.9356,-5.1569,-5.1096,-5.1038,-5.228,-5.2349,-5.2948,-5.4422,-5.4535,-5.4535,-5.4535,-5.5086,-5.5409,-5.5409,-5.5409,-5.5409,-5.5409,-5.5409,-5.5409,-5.5409,-5.5409,-5.5409,-5.5409,-5.5409,-5.5409,-5.5409,-5.5409,-5.5409,-5.5409,-5.5409,-5.5409,-5.5409,-5.5409,-5.5053,-5.4438,-5.3589,-5.2916,-5.2236,-5.1459,-5.1183,-5.1183,-5.1183,-5.1183,-5.1183,-5.1183,-5.1183,-5.1183,-5.1183,-5.1183,-5.1021,-5.0293,-4.9564,-4.8816,-4.8171,-4.7443,-4.6876,-4.6876,-4.6876,-4.6961,-4.7183,-4.7369,-4.7307,-4.6732,-4.6135,-4.5502,-4.4804,-4.3493,-4.2317,-4.1591,-4.1426,-4.0857,-3.9553,-3.9388,-3.9388,-3.9388,-3.9388,-3.9388,-3.9388,-3.9388,-3.9388,-3.9388,-3.9388,-3.9388,-3.9388,-3.8841,-3.8527,-3.8527,-3.8527,-3.8527,-3.8542,-3.914,-3.9388,-4.5516,-4.6228,-4.6587,-4.6171,-4.4496,-4.2221,-3.9402,-3.6232,0.0,0.0,-2.7717,-2.6341,-2.6021,-2.794,-3.0964,-3.5153,-3.8351,-4.2361,-4.8216,-4.8876,-4.9581,0.0,-5.1753,-5.2044,-5.3236,-5.3204,0.0,0.0,-5.5247,-5.5247,-5.5247,-5.5361,-5.5409,-5.5409,-5.5409,-5.5409,-5.5409,-5.5409,-5.5409,-5.5409,-5.5409,-5.5409,-5.5409,-5.5409,-5.5409,-5.5409,-5.5409,-5.5409,-5.5409,-5.5409,-5.5409,-5.5409,-5.5409,-5.5345,-5.5086,-5.3767,-5.32,-5.2948,-5.1637,-5.1183,-5.1183,-5.1183,-5.1183,-5.1183,-5.1183,-5.1183,-5.1183,-5.1183,-5.1183,-5.1021,-5.0293,-4.9564,-4.8816,-4.8171,-4.7443,-4.6876,-4.6876,-4.6876,-4.6996,-4.7369,-4.7335,-4.7157,-4.6878,-4.6135,-4.536,-4.4787,-4.3493,-4.2317,-4.1591,-4.1008,-4.0339,-3.9481,-3.9388,-3.9388,-3.9388,-3.9388,-3.9388,-3.9388,-3.9388,-3.9388,-3.9388,-3.9388,-3.9388,-3.9388,-3.9305,-3.9245,-3.9245,-3.9245,-3.9245,-3.9245,-3.9364,-3.9388,-4.5663,-4.6202,-4.6467,-4.5701,-4.368,-4.0936,-3.729,0.0,0.0,0.0,-2.5306,-2.4362,-2.3564,-2.6248,0.0,-3.1967,-3.5465,-3.9836,-4.5452,-4.6827,0.0,-5.118,-5.1783,-5.2388,0.0,-5.35,-5.4022,-5.5312,-5.5409,-5.5409,-5.5409,-5.5409,-5.5409,-5.5409,-5.5409,-5.5409,-5.5409,-5.5409,-5.5409,-5.5409,-5.5409,-5.5409,-5.5409,-5.5409,-5.5409,-5.5409,-5.5409,-5.5409,-5.5409,-5.5409,-5.5409,-5.5409,-5.5409,-5.5199,-5.4762,-5.367,-5.3078,-5.2592,-5.1539,-5.1183,-5.1183,-5.1183,-5.1183,-5.1183,-5.1183,-5.1183,-5.1183,-5.1183,-5.1183,-5.1102,-5.0746,-5.0131,-4.9402,-4.8706,-4.7686,-4.6876,-4.6876,-4.6876,-4.6996,-4.7301,-4.7251,-4.7238,-4.7292,-4.6632,-4.5763,-4.4881,-4.3829,-4.2639,-4.1189,-4.0703,-4.0216,-3.9481,-3.9388,-3.9388,-3.9388,-3.9388,-3.9388,-3.9388,-3.9388,-3.9388,-3.9388,-3.9388,-3.9388,-3.9388,-3.9388,-3.9388,-3.9388,-3.9388,-3.9388,-3.9388,-3.9388,-3.9388,-4.5454,-4.5897,-4.5947,-4.5097,-4.2839,-3.9668,-3.5275,-3.1892,0.0,0.0,-2.3258,-2.2867,-2.1841,-2.4668,-2.7682,0.0,-3.2716,-3.7134,-4.2576,-4.474,-4.7042,0.0,-5.1595,0.0,-5.3547,-5.3616,0.0,-5.5312,-5.5409,-5.5409,-5.5409,-5.5409,-5.5409,-5.5409,-5.5409,-5.5409,-5.5409,-5.5409,-5.5409,-5.5409,-5.5409,-5.5409,-5.5409,-5.5409,-5.5409,-5.5409,-5.5409,-5.5409,-5.5409,-5.5409,-5.5409,-5.5409,-5.5409,-5.5005,-5.4308,-5.358,-5.2835,-5.209,-5.141,-5.1183,-5.1183,-5.1183,-5.1183,-5.1183,-5.1183,-5.1183,-5.1183,-5.1183,-5.1183,-5.1183,-5.1183,-5.0649,-4.9888,-4.8977,-4.7815,-4.6876,-4.6876,-4.6876,-4.6961,-4.7183,-4.7183,-4.7251,-4.7621,-4.7046,-4.6192,-4.5114,-4.4221,-4.2975,-4.0966,-4.0581,-4.0216,-3.9481,-3.9388,-3.9388,-3.9388,-3.9388,-3.9388,-3.9388,-3.9388,-3.9388,-3.9388,-3.9388,-3.9388,-3.9388,-3.9388,-3.9388,-3.9388,-3.9388,-3.9388,-3.9388,-3.9388,-3.9388,-4.474,-4.5228,-4.5259,-4.4614,-4.2308,-3.9035,-3.4602,0.0,-2.7418,-2.3422,-2.2165,-2.1902,-2.2329,-2.324,-2.5273,-2.9363,-3.1554,-3.5005,-4.158,-4.4395,-4.6908,-4.9921,0.0,0.0,-5.3771,-5.3693,-5.4085,-5.5312,-5.5409,-5.5409,-5.5409,-5.5409,-5.5409,-5.5409,-5.5409,-5.5409,-5.5409,-5.5409,-5.5409,-5.5409,-5.5409,-5.5409,-5.5409,-5.5409,-5.5409,-5.5409,-5.5409,-5.5409,-5.5409,-5.5409,-5.5409,-5.5409,-5.5409,-5.5005,-5.4308,-5.358,-5.2835,-5.209,-5.141,-5.1183,-5.1183,-5.1183,-5.1183,-5.1183,-5.1183,-5.1183,-5.1183,-5.1183,-5.1183,-5.1183,-5.1183,-5.0649,-4.9758,-4.8414,-4.7475,-4.6876,-4.6876,-4.6876,-4.6961,-4.7183,-4.7064,-4.7064,-4.7436,-4.6897,-4.6192,-4.5517,-4.4445,-4.3122,-4.162,-4.0873,-4.0216,-3.9481,-3.9388,-3.9388,-3.9388,-3.9388,-3.9388,-3.9388,-3.9388,-3.9388,-3.9388,-3.9388,-3.9388,-3.9388,-3.9388,-3.9388,-3.9388,-3.9388,-3.9388,-3.9388,-3.9388,-3.9388,-4.3511,-4.4371,-4.4754,-4.3984,-4.1342,-3.7909,-3.3928,0.0,-2.6675,-2.3358,-2.2143,-2.1731,-2.1964,-2.2636,-2.3999,-2.6665,-2.797,-3.0627,-3.6323,-3.9038,-4.2187,-4.6862,-4.9041,0.0,0.0,0.0,-5.404,-5.4729,-5.481,-5.481,-5.481,-5.5199,-5.5409,-5.5409,-5.5409,-5.5409,-5.5409,-5.5409,-5.5409,-5.5409,-5.5409,-5.5409,-5.5409,-5.5409,-5.5409,-5.5409,-5.5409,-5.5409,-5.5409,-5.5409,-5.5409,-5.5409,-5.5409,-5.5005,-5.4308,-5.358,-5.2835,-5.209,-5.141,-5.1183,-5.1183,-5.1183,-5.1183,-5.1183,-5.1183,-5.1183,-5.1183,-5.1183,-5.1183,-5.1183,-5.1183,-5.0325,-4.9208,-4.8236,-4.7443,-4.6876,-4.6876,-4.6876,-4.6911,-4.6996,-4.6961,-4.703,-4.7436,-4.7274,-4.6749,-4.5832,-4.4919,-4.3831,-4.2354,-4.119,-4.0374,-4.0076,-3.9646,-3.9388,-3.9388,-3.9388,-3.9388,-3.9388,-3.9388,-3.9388,-3.9388,-3.9388,-3.9388,-3.9388,-3.9388,-3.9388,-3.9388,-3.9388,-3.9388,-3.9388,-3.9388,-3.9388,-4.1533,-4.2779,-4.3515,-4.2719,-4.0183,-3.6845,0.0,-2.9489,-2.6262,-2.311,-2.2072,-2.1709,-2.1709,-2.2334,-2.3324,-2.4777,-2.5999,-2.8441,-3.3195,-3.5984,-3.9353,0.0,0.0,-4.9383,-5.2519,-5.3432,-5.3964,-5.4357,-5.4211,-5.4082,-5.4082,-5.4535,-5.4988,-5.5409,-5.5409,-5.5409,-5.5409,-5.5409,-5.5409,-5.5409,-5.5409,-5.5409,-5.5409,-5.5409,-5.5409,-5.5409,-5.5409,-5.5409,-5.5409,-5.5409,-5.5409,-5.5393,-5.5199,-5.4697,-5.4001,-5.3256,-5.2527,-5.1831,-5.1345,-5.1183,-5.1183,-5.1183,-5.1183,-5.1183,-5.1183,-5.1183,-5.1183,-5.1183,-5.1183,-5.1135,-5.0924,-4.9953,-4.8816,-4.8171,-4.7443,-4.6876,-4.6876,-4.6876,-4.6876,-4.6876,-4.6876,-4.6996,-4.7369,-4.747,-4.7174,-4.619,-4.5701,-4.4886,-4.3419,-4.2016,-4.1047,-4.0855,-3.9965,-3.9388,-3.9388,-3.9589,-3.961,-3.9409,-3.9388,-3.9388,-3.9388,-3.9388,-3.9388,-3.9388,-3.9388,-3.9388,-3.9388,-3.9388,-3.9388,-3.9388,-3.9388,-3.9529,-3.8704,-4.021,-4.1276,-4.058,-3.8758,-3.5951,-3.1462,-2.8794,-2.6236,-2.2483,-2.1709,-2.1709,-2.1709,-2.2257,-2.3162,-2.457,-2.6698,-2.9663,-3.3898,-3.7075,-4.0038,0.0,0.0,-4.7258,-4.9436,-5.2051,-5.3831,-5.4341,-5.3742,-5.3298,-5.3298,-5.3298,-5.3945,-5.5377,-5.5409,-5.5409,-5.5409,-5.5409,-5.5409,-5.5409,-5.5409,-5.5409,-5.5409,-5.5409,-5.5409,-5.5409,-5.5409,-5.5409,0.0,-5.5409,-5.5409,-5.5345,-5.4681,-5.3968,-5.32,-5.2479,-5.1782,-5.1199,-5.1183,-5.1183,-5.1183,-5.1183,-5.1183,-5.1183,-5.1183,-5.1183,-5.1183,-5.1183,-5.1183,-5.1021,-5.0309,-4.958,-4.8816,-4.8171,-4.7443,-4.6876,-4.6876,-4.6876,-4.6876,-4.6876,-4.6876,-4.6945,-4.7183,-4.7369,-4.7291,-4.6683,-4.6746,-4.6386,-4.4951,-4.3484,-4.2333,-4.167,-4.0288,-3.9388,-3.9388,-4.0091,-4.0181,-3.946,-3.9388,-3.9388,-3.9388,-3.9388,-3.9388,-3.9388,-3.9388,-3.9388,-3.9388,-3.9388,-3.9388,-3.9388,-3.9388,-3.9768,-3.5066,-3.6539,-3.7417,-3.6191,-3.4601,-3.2442,-2.9049,-2.698,-2.5027,-2.2329,-2.1768,-2.1768,-2.1768,-2.1951,-2.3059,-2.6016,-2.711,-2.9055,-3.3277,0.0,0.0,-4.2993,-4.8001,-5.1399,0.0,0.0,-5.3601,-5.3126,-5.2767,-5.256,-5.256,-5.256,-5.3207,-5.4681,-5.4729,-5.4956,-5.5409,-5.5409,-5.5409,-5.5409,-5.5409,-5.5409,-5.5409,-5.5409,-5.5409,-5.5409,-5.5409,-5.5409,-5.5409,-5.5409,-5.5134,-5.4713,-5.4486,-5.3644,-5.2527,-5.2284,-5.1766,-5.1183,-5.1183,-5.1183,-5.1183,-5.1183,-5.1183,-5.1183,-5.1183,-5.1183,-5.1183,-5.1183,-5.1183,-5.0908,-4.9677,-4.9155,-4.8686,-4.7524,-4.7054,-4.6876,-4.6876,-4.6876,-4.6876,-4.6876,-4.6876,-4.6996,-4.7369,-4.7436,-4.7489,-4.7556,-4.675,-4.6176,-4.624,-4.412,-4.2704,-4.3018,-4.2612,-4.1557,-3.9562,-3.961,-3.9646,-3.9409,-3.9388,-3.9388,-3.9388,-3.9388,-3.9388,-3.9388,-3.9388,-3.9388,-3.9388,-3.9388,-3.9649,-4.0083,-4.0083,-4.0442,-3.152,-3.3226,-3.4121,-3.321,-3.1846,-3.0075,-2.7479,-2.574,-2.4149,-2.221,-2.1812,-2.1812,-2.1812,-2.2028,-2.3072,-2.5641,-2.6752,-2.8784,0.0,0.0,0.0,-4.3668,0.0,0.0,0.0,-5.2828,-5.3023,-5.2541,-5.2167,-5.1891,-5.1815,-5.1815,-5.2495,-5.3952,-5.426,-5.4729,-5.5409,-5.5409,-5.5409,-5.5409,-5.5409,-5.5409,-5.5409,-5.515,-5.5037,-5.5021,-5.4745,-5.4778,0.0,-5.5037,-5.4778,-5.4373,-5.4098,-5.3256,-5.2171,-5.1912,-5.1539,-5.1183,-5.1183,-5.1183,-5.1183,-5.1183,-5.1183,-5.1183,-5.1183,-5.1183,-5.1183,-5.1183,-5.0989,-5.0503,-4.9285,-4.8799,-4.835,-4.7168,-4.6876,-4.6876,-4.6876,-4.6876,-4.6876,-4.6876,-4.6876,-4.703,-4.7436,-4.752,-4.7604,-4.7935,-4.721,-4.6815,-4.724,-4.5243,-4.3889,-4.4091,-4.3863,-4.2746,-4.036,-4.0649,-4.0873,-4.0586,-4.0326,-4.0157,-4.0157,-4.0157,-4.0053,-3.9798,-3.9783,-3.9664,-3.9388,-3.9664,-3.9993,-4.0412,-4.0651,-4.113,0.0,-3.0009,-3.1118,-3.1068,-3.0026,-2.847,-2.6434,-2.4894,0.0,-2.2096,-2.1797,-2.1862,-2.2011,-2.251,-2.3255,-2.4365,-2.6271,-2.9079,0.0,-3.6042,0.0,0.0,-4.7704,0.0,-5.0703,-5.1583,-5.2183,-5.2432,-5.1857,-5.1424,-5.1221,-5.1183,-5.1815,-5.3191,-5.3904,-5.4616,-5.5409,-5.5409,-5.5393,-5.5345,-5.5345,-5.5312,-5.5247,-5.4616,-5.4325,0.0,-5.3612,-5.3709,-5.4325,-5.4325,-5.4292,-5.4179,-5.3499,-5.2786,-5.2041,-5.141,-5.1183,-5.1183,-5.1183,-5.1183,-5.1183,-5.1183,-5.1183,-5.1183,-5.1183,-5.1183,-5.1183,-5.1183,-5.0665,-4.9936,-4.9172,-4.8512,-4.7815,-4.707,-4.6876,-4.6876,-4.6876,-4.6876,-4.6911,-4.6927,-4.6911,-4.7064,-4.7436,-4.7504,-4.7604,-4.7935,-4.8001,-4.8001,-4.8001,-4.6749,-4.565,-4.5016,-4.4338,-4.3305,-4.1829,-4.2833,-4.3212,-4.2448,-4.179,-4.1422,-4.1422,-4.1422,-4.11,-4.0487,-4.0472,-4.0172,-3.9559,-4.0172,-4.0502,-4.0561,-4.116,-4.1841,-2.4033,0.0,-2.6483,-2.5938,-2.5541,-2.4977,0.0,-2.3373,-2.2892,-2.1921,-2.1768,-2.2326,-2.4017,-2.3537,-2.4414,-2.9065,-3.0241,-3.2128,-3.6506,-4.1402,0.0,-4.8478,-5.0463,-5.1638,-5.177,-5.1967,-5.2059,-5.1987,-5.1671,-5.1424,-5.1221,-5.1183,-5.1572,-5.243,-5.2624,-5.358,-5.5393,-5.5409,-5.515,-5.4648,-5.4648,-5.4357,-5.3767,-5.3644,-5.358,-5.3563,-5.3362,-5.3418,-5.358,-5.358,-5.324,-5.2689,-5.2527,-5.2041,-5.141,-5.1248,-5.1183,-5.1183,-5.1183,-5.1183,-5.1183,-5.1183,-5.1183,-5.1183,-5.1183,-5.1183,-5.1183,-5.1183,-5.0665,-4.9936,-4.9172,-4.8512,-4.7815,-4.707,-4.6876,-4.6876,-4.6876,-4.6876,-4.6961,-4.7098,-4.7132,-4.7235,-4.7588,-4.7638,-4.7721,-4.7968,-4.8001,-4.8001,-4.8001,-4.7209,-4.6583,-4.6419,-4.6257,-4.575,-4.4753,-4.3506,-4.2427,-4.173,-4.1483,-4.1422,-4.1422,-4.1422,-4.1347,-4.1145,-4.1145,-4.107,-4.092,-4.107,-4.1452,-4.1946,-4.2096,-4.2491,-2.2293,-2.3719,-2.5094,-2.5027,-2.4762,-2.4381,-2.3951,-2.3091,-2.2278,0.0,0.0,-2.2758,-2.4315,-2.4497,-2.5773,-2.991,-3.1168,-3.3485,0.0,0.0,-4.8067,-4.9835,-5.146,-5.2354,0.0,-5.2247,-5.2158,-5.1941,-5.1758,-5.1536,-5.135,-5.1258,-5.1491,-5.2171,-5.2203,-5.2916,-5.4398,-5.4454,-5.426,-5.3904,-5.3904,-5.3709,-5.3265,-5.2964,-5.2802,-5.2786,-5.2479,-5.2511,-5.2802,-5.2802,-5.256,-5.2203,-5.2203,-5.1782,-5.1183,-5.1183,-5.1183,-5.1183,-5.1183,-5.1183,-5.1183,-5.1183,-5.1183,-5.1183,-5.1183,-5.1183,-5.1183,-5.1183,-5.0422,-4.9515,-4.9091,-4.8269,-4.7394,-4.6973,-4.6876,-4.6876,-4.6876,-4.6961,-4.7064,-4.7183,-4.7285,-4.742,-4.7671,-4.7704,-4.7787,-4.7968,-4.8001,-4.8001,-4.8001,-4.7653,-4.7272,-4.6941,-4.7206,-4.6799,-4.5317,-4.4433,-4.3623,-4.2849,-4.2498,-4.2282,-4.2282,-4.2282,-4.2132,-4.1871,-4.1572,-4.1422,-4.1422,-4.1722,-4.2051,-4.241,-4.2671,-4.3,-2.1996,-2.3669,-2.5342,-2.5606,-2.5408,-2.506,-2.4944,0.0,0.0,0.0,0.0,0.0,-2.463,-2.5855,0.0,-2.9992,0.0,0.0,-4.1243,-4.5599,-4.868,-5.0169,-5.1562,0.0,-5.2354,-5.2373,-5.2318,-5.2102,-5.1941,-5.1741,-5.1499,-5.135,-5.148,-5.2025,-5.2041,-5.2349,-5.2997,-5.3168,-5.3217,-5.3103,-5.3103,-5.3094,-5.2981,-5.2333,-5.2041,-5.2009,-5.1442,0.0,-5.2041,-5.2041,-5.2041,-5.2041,-5.2041,-5.1685,-5.1183,-5.1183,-5.1183,-5.1183,-5.1183,-5.1183,-5.1183,-5.1183,-5.1183,-5.1183,-5.1183,-5.1183,-5.1183,-5.1183,-5.0147,-4.8994,-4.8994,-4.7961,-4.6876,-4.6876,-4.6876,-4.6876,-4.6876,-4.703,-4.7183,-4.7217,-4.7369,-4.7537,-4.7721,-4.7754,-4.782,-4.7968,-4.8001,-4.8001,-4.8001,-4.8001,-4.7769,-4.7123,-4.7522,-4.6991,-4.493,-4.5241,-4.5184,-4.4373,-4.3669,-4.329,-4.329,-4.329,-4.3075,-4.256,-4.1968,-4.1683,-4.1683,-4.2276,-4.2545,-4.256,-4.3075,-4.329,-2.299,-2.4829,-2.5624,-2.3851,-2.4265,-2.491,-2.4248,-2.3869,0.0,0.0,0.0,0.0,0.0,-2.8751,-3.0224,0.0,0.0,-4.1127,0.0,0.0,-4.9424,-5.074,0.0,-5.2338,-5.2175,-5.2318,-5.2318,-5.2102,-5.2066,-5.1884,-5.1499,-5.1462,-5.1436,-5.1383,-5.1345,-5.1394,-5.1507,-5.2705,-5.2997,-5.2365,-5.2365,-5.2058,-5.1507,-5.1394,-5.1345,-5.1329,0.0,-5.1248,-5.1345,-5.1345,-5.1345,-5.1345,-5.1345,-5.128,-5.1183,-5.1183,-5.1183,-5.1183,-5.1183,-5.1183,-5.1183,-5.1183,-5.1183,-5.1183,-5.1183,-5.1183,-5.1183,-5.1183,-5.0147,-4.8994,-4.8994,-4.7961,-4.6876,-4.6876,-4.6876,-4.6876,-4.6876,-4.6911,-4.7064,-4.7403,-4.747,-4.7604,-4.7902,-4.7968,-4.7968,-4.8001,-4.8001,-4.8001,-4.8001,-4.8001,-4.7968,-4.7835,-4.7305,-4.6606,-4.5611,-4.5011,-4.4335,-4.3566,-4.3369,-4.329,-4.329,-4.329,-4.3245,-4.314,-4.305,-4.2991,-4.2991,-4.3095,-4.314,-4.314,-4.3245,-4.329,-2.1847,-2.3586,-2.4961,-2.4746,-2.6369,-2.7824,-2.7042,-2.6632,-2.6369,0.0,0.0,0.0,0.0,0.0,-3.3822,-3.8212,0.0,-4.3926,-4.6079,-4.7968,-4.9607,0.0,0.0,-5.2338,-5.2266,-5.2354,-5.2338,-5.2283,-5.2175,-5.203,-5.1847,-5.161,-5.1462,-5.1387,-5.1258,-5.1183,-5.1183,-5.1831,-5.1993,-5.1653,-5.1653,-5.1491,-5.1183,-5.1183,-5.1183,-5.1183,-5.1183,-5.1183,-5.1183,-5.1183,-5.1183,-5.1183,-5.1183,-5.1183,-5.1183,-5.1183,-5.1183,-5.1183,-5.1183,-5.1183,-5.1183,-5.1183,-5.1183,-5.1183,-5.1183,-5.1183,-5.1183,-5.1183,-5.0422,-4.9596,-4.9596,-4.856,-4.7491,-4.7491,-4.7184,-4.6876,-4.6876,-4.7064,-4.7285,-4.747,-4.7654,-4.7803,-4.7968,-4.8001,-4.8001,-4.8001,-4.8001,-4.8001,-4.8001,-4.8001,-4.8001,-4.8001,-4.7303,-4.6499,-4.5769,-4.4962,-4.4143,-4.3369,-4.329,-4.329,-4.329,-4.329,-4.329,-4.329,-4.329,-4.329,-4.329,-4.329,-4.329,-4.329,-4.329,-4.329,-2.1249,-2.2708,-2.4431,-2.627,-2.8257,-2.9798,-2.9877,-2.9383,-2.9055,0.0,0.0,0.0,0.0,-3.4717,0.0,-4.1094,-4.3661,-4.5715,-4.7206,-4.8547,-4.9906,-5.1398,-5.2078,-5.2409,-5.2409,-5.2409,-5.2409,-5.2409,-5.2247,-5.2139,-5.2102,-5.1811,-5.161,-5.1573,-5.1387,-5.1258,-5.1258,-5.1221,-5.1183,-5.1183,-5.1183,-5.1183,-5.1183,-5.1183,-5.1183,-5.1183,-5.1183,-5.1183,-5.1183,-5.1183,-5.1183,-5.1183,-5.1183,-5.1183,-5.1183,-5.1183,-5.1183,-5.1183,-5.1183,-5.1183,-5.1183,-5.1183,-5.1183,-5.1183,-5.1183,-5.1183,-5.1221,-5.1258,-5.0816,-5.0325,-5.0147,-4.9175,-4.8236,-4.8236,-4.7686,-4.7186,-4.7204,-4.7331,-4.7436,-4.7537,-4.7754,-4.7919,-4.8001,-4.8001,-4.8001,-4.8001,-4.8001,-4.8001,-4.8001,-4.7853,-4.7704,-4.7704,-4.6828,-4.5953,-4.5221,-4.4586,-4.3966,-4.3329,-4.329,-4.329,-4.329,-4.329,-4.329,-4.329,-4.329,-4.329,-4.329,-4.329,-4.329,-4.329,-4.3454,-4.3529,-2.2824,-2.3884,-2.4679,-2.7531,-2.7879,-2.8227,-3.0837,-3.087,-3.094,-3.2978,0.0,0.0,0.0,-3.856,-4.1276,-4.2258,-4.4854,-4.7255,-4.8746,0.0,-5.0667,-5.2125,-5.2393,-5.2409,-5.2409,-5.2409,-5.2409,-5.2409,-5.239,-5.2318,-5.2102,-5.2066,-5.1977,-5.1778,-5.1573,-5.1462,-5.1462,-5.1296,-5.1183,-5.1183,-5.1183,-5.1183,-5.1183,-5.1183,-5.1183,-5.1183,-5.1183,-5.1183,-5.1183,-5.1183,-5.1183,-5.1183,-5.1183,-5.1183,-5.1183,-5.1183,-5.1183,-5.1183,-5.1183,-5.1183,-5.1183,-5.1183,-5.1183,-5.1183,-5.1183,-5.1183,-5.1221,-5.1424,-5.1301,-5.0957,-5.0276,-4.9532,-4.8913,-4.8913,-4.8431,-4.7948,-4.8074,-4.7623,-4.7319,-4.7621,-4.7704,-4.777,-4.7968,-4.8001,-4.8001,-4.8001,-4.8001,-4.8001,-4.8001,-4.7337,-4.6896,-4.6896,-4.5556,-4.432,-4.3551,-4.3409,-4.3369,-4.329,-4.329,-4.329,-4.329,-4.329,-4.329,-4.329,-4.329,-4.329,-4.329,-4.329,-4.329,-4.3305,-4.3958,-4.4242,-2.1433,-2.3288,-2.5176,-2.7216,-2.8837,0.0,0.0,-3.3822,-3.5114,-3.6862,-3.7442,0.0,0.0,0.0,-4.3529,-4.3827,-4.5963,-4.81,-4.9591,-5.0038,-5.075,-5.2208,-5.2409,-5.2409,-5.2409,-5.2409,-5.2409,-5.2409,-5.2409,-5.239,-5.2283,-5.2175,-5.2066,-5.1977,-5.1794,-5.1684,-5.1684,-5.1499,-5.1387,-5.1387,-5.1258,-5.1183,-5.1183,-5.1183,-5.1183,-5.1183,-5.1183,-5.1183,-5.1183,-5.1183,-5.1183,-5.1183,-5.1183,-5.1183,-5.1183,-5.1183,-5.1183,-5.1183,-5.1183,-5.1183,-5.1183,-5.1183,-5.1183,-5.1183,-5.1183,-5.1296,-5.1387,-5.1462,-5.1462,-5.1322,-5.1046,-5.0318,-4.9694,-4.9694,-4.9215,-4.8708,-4.8307,-4.8186,-4.8096,-4.7753,-4.7704,-4.777,-4.7968,-4.7902,-4.7853,-4.7968,-4.8001,-4.8001,-4.8001,-4.7303,-4.6811,-4.6811,-4.541,-4.4182,-4.3369,-4.329,-4.329,-4.329,-4.329,-4.329,-4.329,-4.329,-4.329,-4.329,-4.329,-4.329,-4.329,-4.329,-4.3499,-4.3943,-4.4197,-4.4526,-2.1251,-2.3205,-2.5557,-2.7481,0.0,0.0,-3.4684,-3.6357,-3.8063,-4.0199,-4.0464,-4.0448,-4.0961,0.0,0.0,0.0,-4.656,-4.8431,-4.969,-5.0071,-5.0667,-5.1928,-5.2277,-5.2409,-5.2409,-5.2409,-5.2409,-5.2409,-5.2409,-5.2409,-5.2409,-5.2283,-5.2211,-5.2211,-5.1941,-5.1778,-5.1778,-5.1536,-5.1387,-5.1387,-5.1258,-5.1183,-5.1183,-5.1183,-5.1183,-5.1183,-5.1183,-5.1183,-5.1183,-5.1183,-5.1183,-5.1183,-5.1183,-5.1183,-5.1183,-5.1183,-5.1183,-5.1183,-5.1183,-5.1183,-5.1183,-5.1183,-5.1221,-5.1296,-5.1296,-5.1424,-5.161,-5.1647,-5.161,-5.1552,-5.1663,-5.1124,-5.0529,-5.0529,-5.0143,-4.9603,-4.9183,-4.913,-4.894,-4.8265,-4.8133,-4.8134,-4.8018,-4.7886,-4.7853,-4.7968,-4.8001,-4.7886,-4.7671,-4.6947,-4.6237,-4.5758,-4.4759,-4.3964,-4.3614,-4.3604,-4.3604,-4.3604,-4.3604,-4.3514,-4.3305,-4.329,-4.329,-4.329,-4.329,-4.329,-4.329,-4.3499,-4.3828,-4.4332,-4.4751,-4.5185,-2.2891,-2.3984,-2.5822,-2.8685,0.0,0.0,-3.74,-3.8219,-3.9245,-4.287,-4.3035,-4.2522,-4.2506,-4.3118,0.0,-4.4572,-4.656,-4.8266,-4.9011,-4.974,-5.0469,-5.1216,-5.1962,-5.2373,-5.2409,-5.2409,-5.2409,-5.2409,-5.2409,-5.2409,-5.2409,-5.2409,-5.2409,-5.2409,-5.1997,-5.1778,-5.1778,-5.1408,-5.1183,-5.1183,-5.1183,-5.1183,-5.1183,-5.1183,-5.1183,-5.1183,-5.1183,-5.1183,-5.1183,-5.1183,-5.1183,-5.1183,-5.1183,-5.1183,-5.1183,-5.1183,-5.1183,-5.1183,-5.1183,-5.1183,-5.1183,-5.1183,-5.1333,-5.1499,-5.1499,-5.1647,-5.1851,-5.203,-5.1811,-5.161,-5.1993,-5.1794,-5.1515,-5.1499,-5.1092,-5.0785,-5.0963,-5.0439,-4.9732,-4.9226,-4.9127,-4.8879,-4.815,-4.8017,-4.8017,-4.8001,-4.8001,-4.7704,-4.6896,-4.6147,-4.5073,-4.3472,-4.3305,-4.3559,-4.4257,-4.4317,-4.4332,-4.4332,-4.4332,-4.4032,-4.3319,-4.329,-4.329,-4.329,-4.329,-4.329,-4.3305,-4.4003,-4.4332,-4.4362,-4.5693,-4.6279,-2.2261,-2.4729,0.0,-2.9694,0.0,0.0,0.0,-4.0437,0.0,0.0,-4.4605,-4.4655,-4.4141,-4.5069,0.0,-4.5516,-4.6891,-4.8266,-4.9011,-4.9293,-4.9889,-5.1166,-5.1498,-5.1846,-5.2359,-5.2409,-5.2409,-5.2409,-5.2409,-5.2409,-5.2409,-5.2409,-5.2409,-5.2409,-5.2158,-5.203,-5.203,-5.161,-5.1424,-5.1424,-5.1258,-5.1183,-5.1183,-5.1183,-5.1183,-5.1183,-5.1183,-5.1183,-5.1183,-5.1183,-5.1183,-5.1183,-5.1183,-5.1183,-5.1183,-5.1183,-5.1183,-5.1183,-5.1183,-5.1183,-5.1183,-5.1183,-5.1221,-5.1312,-5.1462,-5.1647,-5.1851,-5.203,-5.203,-5.1957,-5.2066,-5.203,-5.1884,-5.1741,-5.1704,-5.1553,-5.1114,-5.094,-5.0664,-4.9987,-4.977,-4.9454,-4.8878,-4.8663,-4.8414,-4.8051,-4.8001,-4.7521,-4.6198,-4.5353,-4.445,-4.3409,-4.3708,-4.4067,-4.4302,-4.4736,-4.5005,-4.5005,-4.5005,-4.4496,-4.3349,-4.329,-4.329,-4.329,-4.329,-4.3529,-4.4018,-4.4212,-4.4796,-4.5738,-4.6085,-4.6576,-2.4298,-2.6982,0.0,-3.2525,-3.567,-3.9007,-4.2021,0.0,0.0,0.0,-4.5897,-4.5748,-4.5582,-4.6063,0.0,-4.6245,-4.7222,-4.8166,-4.8597,-4.8928,-4.9425,-5.0303,-5.0667,-5.1032,-5.1479,-5.1529,-5.1645,-5.1962,-5.1978,-5.2111,-5.2393,-5.2409,-5.2409,-5.2409,-5.2122,-5.1977,-5.1977,-5.1573,-5.1387,-5.1387,-5.1258,-5.1183,-5.1183,-5.1183,-5.1183,-5.1183,-5.1183,-5.1183,-5.1183,-5.1183,-5.1183,-5.1183,-5.1183,-5.1183,-5.1183,-5.1183,-5.1183,-5.1183,-5.1183,-5.1183,-5.1183,-5.1183,-5.1296,-5.1445,-5.1573,-5.1758,-5.1941,-5.2066,-5.203,-5.1977,-5.2066,-5.2102,-5.2066,-5.1941,-5.205,-5.2079,-5.1633,-5.164,-5.1531,-5.0767,-5.0549,-5.0248,-4.964,-4.944,-4.9141,-4.8514,-4.7685,-4.6636,-4.539,-4.451,-4.3849,-4.3369,-4.3888,-4.4496,-4.4945,-4.5424,-4.5708,-4.5708,-4.5708,-4.5229,-4.4152,-4.3828,-4.3678,-4.3678,-4.3678,-4.4047,-4.4706,-4.4975,-4.5487,-4.6294,-4.6591,-4.692,-2.7564,-2.9814,0.0,-3.6191,-3.8013,0.0,-4.3893,-4.593,-4.7173,-4.7785,0.0,-4.6195,-4.6874,-4.6444,-4.6212,-4.6891,-4.7554,-4.8001,-4.8001,-4.858,-4.9028,-4.9094,-4.9707,-5.0137,-5.0204,-5.022,-5.0485,-5.1166,-5.1265,-5.1597,-5.2277,-5.234,-5.2409,-5.2409,-5.2013,-5.1778,-5.1778,-5.1408,-5.1183,-5.1183,-5.1183,-5.1183,-5.1183,-5.1183,-5.1183,-5.1183,-5.1183,-5.1183,-5.1183,-5.1183,-5.1183,-5.1183,-5.1183,-5.1183,-5.1183,-5.1183,-5.1183,-5.1183,-5.1183,-5.1183,-5.1183,-5.1183,-5.1445,-5.1778,-5.1778,-5.1904,-5.2066,-5.2066,-5.1941,-5.1868,-5.2066,-5.2102,-5.2139,-5.2139,-5.2283,-5.2409,-5.2409,-5.2409,-5.221,-5.1547,-5.1415,-5.1183,-5.0436,-5.0303,-5.0038,-4.926,-4.7174,-4.5442,-4.4699,-4.3849,-4.329,-4.329,-4.3932,-4.4825,-4.5843,-4.6232,-4.6369,-4.6369,-4.6369,-4.6142,-4.5514,-4.4781,-4.4407,-4.4407,-4.4407,-4.4721,-4.5394,-4.6022,-4.6309,-4.6426,-4.7025,-4.7309,-2.5673,-2.8635,0.0,0.0,-4.0663,-4.4406,-4.5334,-4.6692,-4.7636,-4.7222,-4.7338,-4.7587,-4.7736,-4.7636,-4.7587,-4.7736,-4.7901,-4.8001,-4.8001,-4.815,-4.8465,-4.9044,-4.9243,-4.9574,-5.0154,-5.022,-5.0286,-5.0419,-5.0949,-5.1382,-5.1547,-5.2111,-5.2409,-5.2409,-5.2013,-5.1778,-5.1778,-5.1408,-5.1183,-5.1183,-5.1183,-5.1183,-5.1183,-5.1183,-5.1183,-5.1183,-5.1183,-5.1183,-5.1183,-5.1183,-5.1183,-5.1183,-5.1183,-5.1183,-5.1183,-5.1183,-5.1183,-5.1183,-5.1183,-5.1183,-5.1183,-5.1183,-5.1387,-5.1573,-5.1573,-5.1721,-5.1851,-5.1851,-5.1941,-5.2066,-5.2102,-5.2211,-5.2354,-5.2354,-5.2373,-5.2409,-5.2409,-5.2409,-5.2359,-5.221,-5.2177,-5.1945,-5.1181,-5.1048,-5.0667,-4.9525,-4.727,-4.5624,-4.5478,-4.4182,-4.329,-4.329,-4.4392,-4.5185,-4.5424,-4.6456,-4.71,-4.71,-4.71,-4.7025,-4.6875,-4.5723,-4.508,-4.508,-4.508,-4.5424,-4.6112,-4.6204,-4.6591,-4.71,-4.7234,-4.7309,-2.6583,0.0,0.0,-3.8079,0.0,-4.5351,-4.5715,-4.6659,-4.7454,-4.7438,-4.7736,-4.8001,-4.8001,-4.8001,-4.8001,-4.8001,-4.8001,-4.8001,-4.8001,-4.8001,-4.815,-4.8531,-4.858,-4.873,-4.9127,-4.916,-4.9293,-4.9657,-5.0353,-5.0916,-5.1299,-5.2011,-5.2409,-5.2409,-5.2013,-5.1778,-5.1778,-5.1408,-5.1183,-5.1183,-5.1183,-5.1183,-5.1183,-5.1183,-5.1183,-5.1183,-5.1183,-5.1183,-5.1183,-5.1183,-5.1183,-5.1183,-5.1183,-5.1183,-5.1183,-5.1183,-5.1183,-5.1183,-5.1183,-5.1183,-5.1183,-5.1183,-5.135,-5.1499,-5.1499,-5.1573,-5.1684,-5.1778,-5.1868,-5.1977,-5.2066,-5.2247,-5.2409,-5.2409,-5.2409,-5.2409,-5.2409,-5.2409,-5.2409,-5.2409,-5.2409,-5.215,-5.1362,-5.0707,-5.0095,-4.951,-4.7818,-4.6326,-4.5596,-4.4764,-4.3992,-4.3364,-4.4511,-4.5559,-4.6202,-4.6905,-4.7309,-4.7309,-4.7309,-4.7309,-4.7309,-4.6636,-4.6112,-4.5798,-4.5783,-4.6112,-4.68,-4.68,-4.698,-4.7309,-4.7309,-4.7309,-2.7263,0.0,-3.4998,-3.9984,-4.2883,0.0,-4.5433,-4.6278,-4.7073,-4.7686,-4.7918,-4.8001,-4.8001,-4.8001,-4.8001,-4.8001,-4.8001,-4.8001,-4.8001,-4.8001,-4.8001,-4.8001,-4.8001,-4.8001,-4.8001,-4.8001,-4.8249,-4.8862,-4.9607,-5.0336,-5.1083,-5.1829,-5.2227,-5.2227,-5.1984,-5.1749,-5.1598,-5.138,-5.1221,-5.1183,-5.1183,-5.1183,-5.1183,-5.1183,-5.1183,-5.1183,-5.1183,-5.1183,-5.1183,-5.1183,-5.1183,-5.1183,-5.1183,-5.1183,-5.1183,-5.1183,-5.1183,-5.1183,-5.1183,-5.1183,-5.1183,-5.1183,-5.135,-5.1499,-5.1462,-5.1462,-5.1536,-5.1704,-5.1778,-5.1868,-5.2066,-5.2247,-5.2409,-5.2409,-5.2409,-5.2409,-5.2409,-5.2409,-5.2409,-5.2409,-5.2409,-5.2178,-5.1434,-5.0438,-4.9794,-4.9883,-4.858,-4.7088,-4.58,-4.5648,-4.5229,-4.4097,-4.499,-4.6097,-4.7219,-4.7309,-4.7309,-4.7309,-4.7309,-4.7309,-4.7309,-4.7309,-4.7055,-4.6459,-4.6444,-4.677,-4.7309,-4.7309,-4.7309,-4.7309,-4.7309,-4.7309,-2.3437,0.0,-3.4866,0.0,-4.2154,-4.3959,0.0,0.0,-4.6924,0.0,-4.7554,-4.8001,-4.8001,-4.8001,-4.8001,-4.8001,-4.8001,-4.8001,-4.8001,-4.8001,-4.8001,-4.8001,-4.8001,-4.8001,-4.8001,-4.8001,-4.805,-4.815,-4.8845,-4.9574,-5.032,-5.1032,-5.1464,-5.1464,-5.1845,-5.1681,-5.0844,-5.1247,-5.1387,-5.1183,-5.1183,-5.1183,-5.1183,-5.1183,-5.1183,-5.1183,-5.1183,-5.1183,-5.1183,-5.1183,-5.1183,-5.1183,-5.1183,-5.1183,-5.1183,-5.1183,-5.1183,-5.1183,-5.1183,-5.1183,-5.1183,-5.1183,-5.135,-5.1462,-5.1296,-5.135,-5.1515,-5.1536,-5.1684,-5.1868,-5.2066,-5.2247,-5.2409,-5.2409,-5.2409,-5.2409,-5.2409,-5.2409,-5.2409,-5.2409,-5.2409,-5.2373,-5.2266,-5.2079,-5.198,-5.198,-4.9323,-4.7282,-4.7083,-4.704,-4.6965,-4.6785,-4.6935,-4.7115,-4.7294,-4.7309,-4.7309,-4.7309,-4.7309,-4.7309,-4.7309,-4.7309,-4.7264,-4.7174,-4.7174,-4.7219,-4.7309,-4.7309,-4.7309,-4.7309,-4.7309,-4.7309,-2.5458,-3.0096,-3.4849,0.0,-4.1392,-4.28,-4.434,0.0,-4.5897,-4.6725,-4.7156,-4.7504,-4.7918,-4.8001,-4.8001,-4.8001,-4.8001,-4.8001,-4.8001,-4.8001,-4.8001,-4.8001,-4.8001,-4.8001,-4.8001,-4.8001,-4.8001,-4.8001,-4.868,-4.9243,-4.9574,-5.0286,-5.0684,-5.0684,-5.0808,-5.0793,-5.068,-5.0807,-5.0981,-5.1183,-5.1183,-5.1183,-5.1183,-5.1183,-5.1183,-5.1183,-5.1183,-5.1183,-5.1183,-5.1183,-5.1183,-5.1183,-5.1183,-5.1183,-5.1183,-5.1183,-5.1183,-5.1183,-5.1183,-5.1183,-5.1183,-5.1183,-5.1258,-5.1312,-5.1221,-5.1258,-5.1387,-5.1594,-5.1741,-5.1851,-5.2211,-5.2338,-5.2409,-5.2409,-5.2409,-5.2409,-5.2409,-5.2409,-5.2409,-5.2409,-5.1891,-5.1327,-5.1011,-5.0151,-5.019,-5.2106,-4.9479,-4.7309,-4.7309,-4.7309,-4.7309,-4.7309,-4.7309,-4.7309,-4.7309,-4.7309,-4.7309,-4.7309,-4.7309,-4.7309,-4.7309,-4.7309,-4.7309,-4.7309,-4.7309,-4.7309,-4.7309,-4.7309,-4.7309,-4.7309,-4.7309,-4.7309,-2.6401,-2.9914,-3.2961,-3.7566,-3.9653,-4.1177,0.0,0.0,-4.4787,0.0,-4.6626,-4.7073,-4.762,-4.7868,-4.8001,-4.8001,-4.8001,-4.8001,-4.8001,-4.8001,-4.8001,-4.8001,-4.8001,-4.8001,-4.8001,-4.8001,-4.8001,-4.8001,-4.8514,-4.8912,-4.9094,-4.9624,-4.9939,-4.9939,-4.9967,-5.0041,-5.0211,-5.0337,-5.0672,-5.1183,-5.1183,-5.1183,-5.1183,-5.1183,-5.1183,-5.1183,-5.1183,-5.1183,-5.1183,-5.1183,-5.1183,-5.1183,-5.1183,-5.1183,-5.1183,-5.1183,-5.1183,-5.1183,-5.1183,-5.1183,-5.1183,-5.1183,-5.1183,-5.1183,-5.1183,-5.1221,-5.1333,-5.1704,-5.1831,-5.1977,-5.2302,-5.2409,-5.2409,-5.2409,-5.2409,-5.2409,-5.2409,-5.2409,-5.2409,-5.2409,-5.1692,-5.0973,-5.0538,-4.8723,-4.8187,-5.0707,-4.8928,-4.7309,-4.7309,-4.7309,-4.7309,-4.7309,-4.7309,-4.7309,-4.7309,-4.8103,-4.8615,-4.8615,-4.7779,-4.7309,-4.7309,-4.7309,-4.7309,-4.7309,-4.7309,-4.7309,-4.7309,-4.7309,-4.7309,-4.7309,-4.7309,-4.7309,-2.3073,-2.5407,-2.7808,-3.2878,-3.6274,0.0,0.0,0.0,-4.3893,-4.4638,-4.5914,-4.6908,-4.6941,-4.7537,-4.8001,-4.8001,-4.8001,-4.8001,-4.8001,-4.8001,-4.8001,-4.8001,-4.8001,-4.8001,-4.8001,-4.8001,-4.8001,-4.8001,-4.8034,-4.8365,-4.9077,-4.9144,-4.9177,-4.9177,-4.9822,-4.9787,-4.8889,-4.9902,-5.0672,-5.1183,-5.1183,-5.1183,-5.1183,-5.1183,-5.1183,-5.1183,-5.1183,-5.1183,-5.1183,-5.1183,-5.1183,-5.1183,-5.1183,-5.1183,-5.1183,-5.1183,-5.1183,-5.1183,-5.1183,-5.1183,-5.1183,-5.1183,-5.1183,-5.1183,-5.1183,-5.1333,-5.1536,-5.1741,-5.1941,-5.2139,-5.2354,-5.2409,-5.2409,-5.2409,-5.2409,-5.2409,-5.2409,-5.2409,-5.2409,-5.2409,-5.2338,-5.2302,-5.225,-4.9479,-4.7337,-4.7538,-4.7424,-4.7309,-4.7309,-4.7309,-4.7309,-4.7309,-4.7309,-4.7309,-4.7309,-5.0267,-5.2142,-5.2142,-4.9091,-4.7309,-4.7309,-4.7309,-4.7309,-4.7309,-4.7309,-4.7309,-4.7309,-4.7309,-4.7309,-4.7309,-4.7309,-4.7309,-2.1897,-2.4017,0.0,-3.0659,-3.3905,-3.6655,-3.8858,-4.1182,-4.3085,-4.3843,-4.4787,-4.5765,-4.6725,-4.7504,-4.8001,-4.8001,-4.8001,-4.8001,-4.8001,-4.8001,-4.8001,-4.8001,-4.8001,-4.8001,-4.8001,-4.8001,-4.8001,-4.8001,-4.8001,-4.8117,-4.8382,-4.8398,-4.8316,-4.8216,-4.858,-4.8942,-4.9309,-5.0391,-5.1015,-5.1183,-5.1183,-5.1183,-5.1183,-5.1183,-5.1183,-5.1183,-5.1183,-5.1183,-5.1183,-5.1183,-5.1183,-5.1183,-5.1183,-5.1183,-5.1183,-5.1183,-5.1183,-5.1183,-5.1183,-5.1183,-5.1183,-5.1183,-5.1183,-5.1183,-5.1183,-5.135,-5.1536,-5.1741,-5.1941,-5.2139,-5.2354,-5.2409,-5.2409,-5.2409,-5.2409,-5.2409,-5.2409,-5.2409,-5.2409,-5.2409,-5.1492,-5.0384,-4.9318,-4.8103,-4.7309,-4.7309,-4.7309,-4.7309,-4.7309,-4.7309,-4.7309,-4.7309,-4.7309,-4.7309,-4.7309,-5.0438,-5.2409,-5.2409,-4.9213,-4.7309,-4.7309,-4.7309,-4.7309,-4.7309,-4.7309,-4.7309,-4.7309,-4.7309,-4.7309,-4.7309,-4.7309,-4.7534,-2.0439,-2.2311,0.0,0.0,0.0,-3.3673,-3.7367,0.0,-4.1082,-4.2555,-4.3661,-4.4705,-4.593,-4.6758,-4.7421,-4.7918,-4.8001,-4.8001,-4.8001,-4.8001,-4.8001,-4.8001,-4.8001,-4.8001,-4.8001,-4.8001,-4.8001,-4.8001,-4.7935,-4.7886,-4.7886,-4.7886,-4.7853,-4.7704,-4.7787,-4.8378,-4.9475,-5.0221,-5.0788,-5.1183,-5.1183,-5.1183,-5.1183,-5.1183,-5.1183,-5.1183,-5.1183,-5.1183,-5.1183,-5.1183,-5.1183,-5.1183,-5.1183,-5.1183,-5.1183,-5.1183,-5.1183,-5.1183,-5.1183,-5.1183,-5.1183,-5.1183,-5.1183,-5.1221,-5.1258,-5.1462,-5.1647,-5.1831,-5.2066,-5.2247,-5.239,-5.2409,-5.2409,-5.2409,-5.2409,-5.2409,-5.2409,-5.2409,-5.2409,-5.2409,-5.1455,-4.9939,-4.7694,-4.7309,-4.7309,-4.7309,-4.7309,-4.7309,-4.7309,-4.7309,-4.7309,-4.7309,-4.7309,-4.7309,-4.7309,-4.9358,-5.0669,-5.0669,-4.8573,-4.7309,-4.7309,-4.7309,-4.7309,-4.7309,-4.7309,-4.7309,-4.7309,-4.7309,-4.7309,-4.7309,-4.7534,-4.7982,0.0,0.0,0.0,0.0,0.0,0.0,-3.6456,0.0,-3.7781,-4.0713,-4.244,-4.3681,-4.4522,-4.5268,-4.6228,-4.7703,-4.7951,-4.7984,-4.8001,-4.8001,-4.8001,-4.8001,-4.8001,-4.8001,-4.8001,-4.8001,-4.8001,-4.8001,-4.782,-4.7704,-4.7704,-4.7704,-4.7704,-4.7704,-4.7587,-4.8072,-4.9248,-4.9297,-4.9941,-5.1118,-5.1135,-5.1135,-5.1118,-5.1135,-5.1151,-5.1151,-5.1167,-5.1183,-5.1183,-5.1183,-5.1183,-5.1183,-5.1183,-5.1183,-5.1183,-5.1183,-5.1183,-5.1183,-5.1183,-5.1183,-5.1183,-5.1183,-5.1183,-5.1221,-5.1424,-5.1647,-5.1815,-5.203,-5.2247,-5.2373,-5.2409,-5.2409,-5.2409,-5.2409,-5.2409,-5.2409,-5.2409,-5.2409,-5.2409,-5.2409,-5.2409,-5.1306,-4.7907,-4.7309,-4.7309,-4.7309,-4.7309,-4.7309,-4.7309,-4.7309,-4.7352,-4.7424,-4.7337,-4.7337,-4.7424,-4.7337,-4.7309,-4.7309,-4.7309,-4.7309,-4.7309,-4.7309,-4.7309,-4.7309,-4.7309,-4.7309,-4.7309,-4.7309,-4.7309,-4.7324,-4.7997,-4.87,-1.9598,0.0,0.0,0.0,0.0,0.0,0.0,0.0,-3.4263,-3.8252,-3.9394,-4.0729,-4.4075,-4.4854,-4.5301,-4.6245,-4.6858,-4.7388,-4.7918,-4.8001,-4.8001,-4.8001,-4.8001,-4.8001,-4.8001,-4.8001,-4.8001,0.0,-4.7968,-4.7935,-4.7935,-4.7704,-4.7588,-4.7704,-4.7807,-4.8055,-4.8502,-4.9433,-4.9779,-4.9629,-5.0147,-5.0131,-4.9645,-5.0163,-5.039,-5.0422,-5.0957,-5.1183,-5.1183,-5.1183,-5.1183,-5.1183,-5.1183,-5.1183,-5.1183,-5.1183,-5.1183,-5.1183,-5.1183,-5.1183,-5.1183,-5.1183,-5.1183,-5.1221,-5.1258,-5.1424,-5.161,-5.1831,-5.2013,-5.2211,-5.2338,-5.2409,-5.2409,-5.2409,-5.2409,-5.2409,-5.2409,-5.2409,-5.2409,-5.2409,-5.2409,-5.1306,-4.7907,-4.7309,-4.7309,-4.7309,-4.7309,-4.7309,-4.7309,-4.7309,-4.8256,-5.0707,-4.878,-4.8297,-5.08,-4.8738,-4.7309,-4.7309,-4.7309,-4.7309,-4.7309,-4.7309,-4.7309,-4.7309,-4.7309,-4.7309,-4.7309,-4.7309,-4.7309,-4.7339,-4.8476,-4.9134,-2.0922,-2.1681,0.0,0.0,0.0,0.0,-2.8986,-3.0245,-3.1929,0.0,-3.7533,-3.8808,-4.2282,-4.3115,-4.3661,-4.4721,-4.55,-4.6228,-4.6974,-4.7073,-4.7073,-4.7073,-4.7355,-4.7537,-4.7537,-4.7819,-4.8001,-4.8001,-4.7919,-4.7853,-4.7853,-4.7637,-4.7537,-4.7621,-4.7641,-4.7826,-4.8085,-4.8839,-4.9159,-4.8994,-4.9451,-4.9434,-4.8994,-4.9467,-4.9645,-4.9694,-5.0422,-5.073,-5.0746,-5.1054,-5.1183,-5.1183,-5.1183,-5.1183,-5.1183,-5.1183,-5.1183,-5.1183,-5.1183,-5.1183,-5.1183,-5.1183,-5.1183,-5.1221,-5.1312,-5.1424,-5.1536,-5.1741,-5.1941,-5.2139,-5.2247,-5.2354,-5.2409,-5.2409,-5.2409,-5.2409,-5.2409,-5.2409,-5.2409,-5.2409,-5.1268,-4.9638,-4.7624,-4.7309,-4.7309,-4.7309,-4.7309,-4.7309,-4.7309,-4.8267,-5.0294,-5.3811,-5.2403,-5.1527,-5.2329,-4.9293,-4.7309,-4.7309,-4.7309,-4.7309,-4.7309,-4.7309,-4.7309,-4.7309,-4.7309,-4.7309,-4.7309,-4.7309,-4.7309,-4.7324,-4.8087,-4.903,-2.279,-2.2956,0.0,0.0,-2.4911,0.0,-2.9661,-2.9926,-3.0344,0.0,-3.5794,-3.7003,-3.9464,-4.0464,-4.1331,-4.2655,-4.3664,-4.4671,-4.5649,-4.5798,-4.5798,-4.5798,-4.6378,-4.6775,-4.6775,-4.7339,-4.7753,-4.7836,-4.7737,-4.7704,-4.7704,-4.7604,-4.752,-4.752,-4.7335,-4.7424,-4.788,-4.7961,-4.8269,-4.8787,-4.8832,-4.8832,-4.8751,-4.8832,-4.888,-4.8913,-4.9677,-5.0017,-5.0147,-5.0795,-5.1118,-5.1183,-5.1183,-5.1183,-5.1183,-5.1183,-5.1183,-5.1183,-5.1183,-5.1183,-5.1183,-5.1183,-5.1183,-5.1221,-5.1424,-5.1462,-5.1499,-5.1741,-5.1977,-5.2139,-5.2139,-5.2283,-5.2409,-5.2409,-5.2409,-5.2409,-5.2409,-5.2409,-5.2409,-5.2409,-4.9971,-4.7752,-4.7396,-4.7309,-4.7309,-4.7309,-4.7549,-4.7743,-4.7743,-4.9778,-5.2635,-5.6297,-5.668,-5.5653,-5.3122,-4.9827,-4.7709,-4.7309,-4.7309,-4.7309,-4.7309,-4.7424,-4.7424,-4.7309,-4.7309,-4.7309,-4.7309,-4.7309,-4.7309,-4.7309,-4.7504,-4.885,-2.647,-2.6768,-2.7149,-2.6402,0.0,0.0,-2.5889,-2.6634,-2.8293,0.0,-3.0787,-3.2133,-3.6125,-3.745,-3.8046,-3.8328,-4.0354,-4.2802,-4.5433,-4.5798,-4.5798,-4.5798,-4.5836,-4.5904,-4.6013,-4.6068,-4.6286,-4.6814,-4.7375,-4.7704,-4.7704,-4.7688,-4.7621,-4.7504,-4.747,-4.7332,-4.7103,-4.7793,-4.7858,-4.7313,-4.7912,-4.788,-4.733,-4.7929,-4.822,-4.8236,-4.8933,-4.9564,-5.0115,-5.026,-5.0649,-5.1183,-5.1183,-5.1183,-5.1183,-5.1183,-5.1183,-5.1183,-5.1183,-5.1183,-5.1183,-5.1183,-5.1183,-5.1221,-5.1258,-5.1258,-5.1333,-5.1704,-5.205,-5.2354,-5.2354,-5.2373,-5.2409,-5.2409,-5.2409,-5.2409,-5.2409,-5.2409,-5.2409,-5.2409,-5.1855,-5.0515,-4.7779,-4.7309,-4.7309,-4.7309,-4.9105,-5.0451,-5.0451,-5.09,-5.2635,-5.6297,-5.668,-5.6465,-5.5901,-5.311,-5.0245,-4.7467,-4.7309,-4.7309,-4.7309,-4.8187,-4.8229,-4.7309,-4.7309,-4.7309,-4.7309,-4.7309,-4.7309,-4.7339,-4.8745,-4.9688,-2.8757,-2.8622,-2.8804,-2.8437,0.0,0.0,0.0,-2.6717,-2.7462,-2.9976,-2.9648,-3.0129,-3.4154,-3.4899,-3.5263,-3.6373,-3.8613,-4.0634,-4.1753,-4.3456,-4.4613,-4.4674,-4.4929,-4.5082,-4.5144,-4.5412,-4.5939,-4.6697,-4.7093,-4.7424,-4.7688,-4.7787,-4.7721,-4.752,-4.7554,-4.7487,-4.7217,-4.7509,-4.7474,-4.703,-4.7299,-4.7249,-4.6892,-4.7281,-4.7443,-4.7491,-4.8204,-4.8722,-4.9094,-4.9418,-4.9775,-5.0147,-5.0503,-5.0649,-5.0649,-5.0649,-5.0649,-5.0697,-5.1054,-5.1183,-5.1183,-5.1183,-5.1183,-5.1183,-5.1183,-5.1258,-5.1408,-5.1704,-5.2013,-5.2247,-5.2247,-5.2302,-5.2409,-5.2409,-5.2409,-5.2409,-5.2409,-5.2409,-5.2409,-5.2409,-5.2409,-5.1871,-5.0151,-4.8423,-4.7743,-4.906,-5.0376,-5.1214,-5.1214,-5.1214,-5.2635,-5.6297,-5.668,-5.668,-5.668,-5.2488,-4.9837,-4.9837,-4.8256,-4.7309,-4.7309,-4.7864,-4.7864,-4.7294,-4.7309,-4.7309,-4.7309,-4.7309,-4.7309,-4.7354,-4.9538,-5.0571,0.0,0.0,0.0,0.0,0.0,-2.8906,0.0,0.0,0.0,-3.0042,-2.9301,0.0,0.0,0.0,0.0,0.0,0.0,0.0,0.0,-3.9825,0.0,-4.2448,-4.33,-4.385,-4.388,-4.4261,-4.5017,-4.6235,-4.5985,-4.6267,-4.7408,-4.7622,-4.7655,-4.7504,-4.7588,-4.7588,-4.7403,-4.7251,-4.7183,-4.7149,-4.6996,-4.6876,-4.6876,-4.6876,-4.6876,-4.6909,-4.7524,-4.788,-4.8058,-4.8557,-4.8864,-4.9042,-4.9677,-4.9904,-4.992,-5.005,-5.0098,-5.0212,-5.0924,-5.1183,-5.1183,-5.1183,-5.1183,-5.1183,-5.1183,-5.1387,-5.1573,-5.1741,-5.1977,-5.2175,-5.2175,-5.2283,-5.2409,-5.2409,-5.2409,-5.2409,-5.2409,-5.2409,-5.2409,-5.2409,-5.2409,-5.2178,-5.1545,-4.9132,-4.8192,-5.0825,-5.1214,-5.1214,-5.1214,-5.1214,-5.2635,-5.6297,-5.6183,-5.6084,-5.663,-5.1539,-4.9454,-5.223,-4.9655,-4.7833,-4.7324,-4.7309,-4.7624,-4.8256,-4.7624,-4.7309,-4.7309,-4.7818,-4.8057,-4.8102,-5.0062,-5.105,0.0,0.0,0.0,0.0,-3.3253,0.0,0.0,0.0,-2.8602,-2.7112,0.0,0.0,0.0,0.0,0.0,0.0,0.0,0.0,-3.3386,-3.5201,-3.7035,-3.8307,-4.0217,-4.1477,-4.1638,-4.0996,-4.1593,-4.4135,-4.2671,-4.3106,-4.6356,-4.6684,-4.698,-4.7487,-4.7504,-4.7352,-4.6961,-4.7098,-4.7098,-4.6911,-4.6927,-4.6876,-4.6876,-4.6876,-4.6876,-4.6876,-4.6973,-4.7394,-4.8026,-4.8091,-4.8479,-4.8994,-4.9074,-4.9107,-4.9188,-4.9872,-5.0098,-5.0212,-5.0924,-5.1183,-5.1183,-5.1183,-5.1183,-5.1183,-5.1183,-5.1445,-5.1778,-5.1778,-5.2086,-5.239,-5.239,-5.2373,-5.2409,-5.2409,-5.2409,-5.2409,-5.2409,-5.2409,-5.2409,-5.2409,-5.2409,-5.1434,-4.8423,-4.7538,-4.8192,-5.0825,-5.1214,-5.1214,-5.1214,-5.1214,-5.2635,-5.6297,-5.4394,-5.3897,-5.6465,-5.3717,-5.198,-5.2373,-5.1347,-4.9733,-4.7399,-4.7309,-4.8738,-5.1745,-4.8846,-4.7309,-4.7309,-4.9643,-5.078,-5.0765,-5.0287,-5.0481,0.0,0.0,0.0,0.0,0.0,0.0,-2.8588,0.0,-2.8158,0.0,0.0,0.0,0.0,0.0,0.0,0.0,-3.0745,0.0,0.0,0.0,-3.4255,0.0,0.0,0.0,-3.9719,-3.9083,-3.9825,-4.2903,-4.146,-4.1812,-4.4947,-4.5979,-4.6619,-4.6864,-4.729,-4.747,-4.737,-4.7251,-4.7149,-4.7064,-4.6961,-4.6876,-4.6876,-4.6876,-4.6876,-4.6876,-4.6876,-4.707,-4.7362,-4.7362,-4.7524,-4.7783,-4.7783,-4.8285,-4.8977,-4.8916,-4.9402,-5.0147,-5.0455,-5.0827,-5.1183,-5.1183,-5.1183,-5.1258,-5.1483,-5.1668,-5.1851,-5.2086,-5.2266,-5.2409,-5.2409,-5.2409,-5.2409,-5.2409,-5.2409,-5.2409,-5.2409,-5.2409,-5.1818,-4.9837,-5.1027,-5.1944,-5.0515,-4.8615,-4.8192,-5.0825,-5.1214,-5.1214,-5.1214,-5.1214,-5.2635,-5.6297,-5.4096,-5.2109,-5.13,-5.195,-5.3086,-5.4775,-5.1162,-4.8446,-4.7354,-4.7309,-4.7976,-4.9399,-4.8019,-4.7309,-4.7309,-4.8401,-4.9479,-5.0466,-5.0601,-5.087,-3.7599,0.0,0.0,0.0,0.0,0.0,0.0,0.0,0.0,0.0,0.0,0.0,0.0,0.0,0.0,0.0,0.0,-2.9674,0.0,-2.9292,0.0,0.0,0.0,0.0,0.0,-3.6679,-3.7419,-4.1132,-3.9391,-3.9865,-4.3702,-4.5079,-4.5947,-4.6405,-4.7026,-4.7386,-4.7471,-4.7235,-4.7115,-4.7115,-4.6961,-4.6876,-4.6876,-4.6876,-4.6876,-4.6876,-4.6876,-4.6876,-4.6876,-4.6876,-4.6876,-4.6876,-4.6876,-4.7653,-4.8654,-4.8188,-4.8657,-4.9548,-4.9742,-5.0276,-5.0924,-5.1118,-5.1183,-5.1258,-5.1594,-5.1741,-5.1851,-5.223,-5.2354,-5.2409,-5.2409,-5.2178,-5.2017,-5.2338,-5.2053,-5.1818,-5.2302,-5.2017,-5.0821,-4.7849,-5.0073,-5.2106,-5.114,-4.8928,-4.8192,-5.0825,-5.1214,-5.1557,-5.259,-5.1819,-5.2635,-5.6297,-5.3928,-5.1152,-4.8867,-5.0989,-5.3652,-5.6514,-5.1454,-4.8371,-4.8371,-4.8371,-4.8207,-4.7848,-4.7848,-4.7848,-4.7848,-4.8207,-4.903,-5.0272,-5.0556,-5.087,0.0,0.0,0.0,-3.4187,0.0,0.0,0.0,0.0,-3.0208,0.0,0.0,0.0,0.0,0.0,0.0,0.0,0.0,0.0,0.0,0.0,0.0,0.0,0.0,0.0,0.0,-3.313,-3.3436,0.0,-3.5491,-3.6352,-4.2897,-4.3791,-4.4788,-4.634,-4.6724,-4.6911,-4.6927,-4.6911,-4.6927,-4.6927,-4.6876,-4.6876,-4.6876,-4.6876,-4.6876,-4.6876,-4.6876,-4.6876,-4.6876,-4.6876,-4.6876,-4.6876,-4.6876,-4.7362,-4.8042,-4.8026,-4.8042,-4.8171,-4.8819,-4.9532,-5.026,-5.0957,-5.1183,-5.1221,-5.1462,-5.1647,-5.1851,-5.2066,-5.2247,-5.2409,-5.2409,-5.1582,-5.1011,-5.2142,-5.1124,-5.0329,-5.2053,-5.1086,-4.9383,-4.7624,-5.0073,-5.1343,-4.8019,-4.7381,-4.8192,-5.0825,-5.1214,-5.2501,-5.6044,-5.3399,-5.2635,-5.6297,-5.3408,-5.1493,-5.2174,-5.2338,-5.3652,-5.6514,-5.3147,-5.1094,-5.1094,-5.1094,-5.0496,-4.9269,-4.9254,-4.9254,-4.9254,-5.0481,-5.1124,-5.1154,-4.9912,-5.0002,0.0,0.0,-4.1678,-3.6837,0.0,0.0,0.0,0.0,0.0,0.0,0.0,0.0,0.0,0.0,0.0,0.0,0.0,0.0,0.0,0.0,0.0,0.0,0.0,0.0,0.0,0.0,0.0,-3.6352,-3.4978,0.0,-4.1265,-4.2637,-4.3973,-4.5473,-4.5942,-4.6475,-4.7098,-4.6961,-4.6876,-4.6876,-4.6876,-4.6876,-4.6876,-4.6876,-4.6876,-4.6876,-4.6876,-4.6876,-4.6876,-4.6876,-4.6876,-4.6876,-4.6876,-4.7038,-4.7265,-4.7265,-4.7864,-4.8751,-4.9499,-4.9904,-5.0228,-5.0957,-5.1296,-5.1424,-5.1647,-5.1831,-5.205,-5.2247,-5.2354,-5.2409,-5.2409,-5.2089,-5.1928,-5.2302,-5.1508,-5.0783,-5.1177,-5.0821,-4.9781,-4.7694,-4.9864,-5.1292,-4.9008,-4.9314,-4.9598,-4.876,-5.0107,-5.165,-5.2887,-5.1987,-5.2635,-5.6297,-5.3399,-5.231,-5.5023,-5.1415,-5.1223,-5.6365,-5.3224,-5.1214,-5.1214,-5.1214,-5.102,-5.0571,-5.0556,-5.0272,-4.9703,-5.0137,-5.0436,-5.051,-5.0122,-5.0376,-4.1844,-4.2671,0.0,-3.8841,-3.7715,0.0,-3.1984,0.0,-3.3452,0.0,0.0,0.0,0.0,0.0,0.0,0.0,0.0,0.0,0.0,-2.4696,0.0,0.0,0.0,0.0,0.0,0.0,-3.0865,-3.4906,-3.3885,0.0,0.0,-4.158,-4.3176,-4.4786,-4.5488,-4.6265,-4.7167,-4.6996,-4.6876,-4.6876,-4.6876,-4.6876,-4.6876,-4.6876,-4.6876,-4.6876,-4.6876,-4.6876,-4.6876,-4.6876,-4.6876,-4.6876,-4.6876,-4.6876,-4.6876,-4.6876,-4.7459,-4.8398,-4.9386,-4.9726,-4.9888,-5.0859,-5.135,-5.1536,-5.1741,-5.1941,-5.2139,-5.2338,-5.2409,-5.2338,-5.2017,-5.1692,-5.1529,-5.1855,-5.1065,-5.04,-5.114,-5.0576,-4.9773,-4.914,-4.9912,-5.0516,-5.0065,-5.0661,-5.0646,-4.8955,-5.0137,-5.1214,-5.1214,-5.232,-5.4089,-5.643,-5.3399,-5.2664,-5.6391,-5.2989,-5.1816,-5.4566,-5.2501,-5.1214,-5.1214,-5.1214,-5.1214,-5.1214,-5.1214,-5.0945,-5.0376,-5.0376,-5.0451,-5.0539,-5.0539,-5.0764]},{"header":{"parameterUnit":"m.s-1","parameterCategory":1,"la1":30.6,"la2":29.2853,"lo1":-89.7004,"lo2":-87.6739,"dy":0.0162,"dx":0.0183,"nx":112,"ny":82,"refTime":"2026-05-24T12:00:00:Z","depth":0,"parameterNumber":3,"parameterNumberName":"V-component_of_WINDS"},"data":[0.0,0.0,0.0,0.0,0.0,0.0,0.0,0.0,0.0,0.0,0.0,0.0,0.0,0.0,0.0,0.0,0.0,0.0,0.0,0.0,0.0,0.0,0.0,0.0,0.0,0.0,0.0,0.0,0.0,0.0,0.0,0.0,0.0,0.0,0.0,0.0,0.0,0.0,0.0,0.0,0.0,0.0,0.0,0.0,0.0,0.0,0.0,0.0,0.0,0.0,0.0,0.0,0.0,0.0,0.0,0.0,0.0,0.0,0.0,0.0,0.0,0.0,0.0,0.0,0.0,0.0,0.0,0.0,0.0,0.0,0.0,0.0,0.0,0.0,0.0,0.0,0.0,0.0,0.0,0.0,0.0,0.0,0.0,0.0,0.0,0.0,0.0,0.0,0.0,0.0,2.5062,2.7973,3.1967,3.3979,3.2921,3.2189,2.9918,2.5541,0.0,0.0,0.0,0.0,0.0,0.0,0.0,0.0,0.0,0.0,0.0,0.0,0.0,0.0,0.0,0.0,0.0,0.0,0.0,0.0,0.0,0.0,0.0,0.0,0.0,0.0,0.0,0.0,0.0,0.0,0.0,0.0,0.0,0.0,0.0,0.0,0.0,0.0,0.0,0.0,0.0,0.0,0.0,0.0,0.0,0.0,0.0,0.0,0.0,0.0,0.0,0.0,0.0,0.0,0.0,0.0,0.0,0.0,0.0,0.0,0.0,0.0,0.0,0.0,0.0,0.0,0.0,0.0,0.0,0.0,0.0,0.0,0.0,0.0,0.0,0.0,0.0,0.0,0.0,0.0,0.0,0.0,0.0,0.0,0.0,0.0,0.0,0.0,0.0,0.0,0.0,0.0,0.0,0.0,0.0,0.0,0.0,0.0,0.0,0.0,0.0,0.0,0.0,0.0,2.555,3.13,3.3404,3.4136,3.3509,3.2424,3.0257,2.668,0.0,0.0,0.0,0.0,0.0,0.0,0.0,0.0,0.0,0.0,0.0,0.0,0.0,0.0,0.0,0.0,0.0,0.0,0.0,0.0,0.0,0.0,0.0,0.0,0.0,0.0,0.0,0.0,0.0,0.0,0.0,0.0,0.0,0.0,0.0,0.0,0.0,0.0,0.0,0.0,0.0,0.0,0.0,0.0,0.0,0.0,0.0,0.0,0.0,0.0,0.0,0.0,0.0,0.0,0.0,0.0,0.0,0.0,0.0,0.0,0.0,0.0,0.0,0.0,0.0,0.0,0.0,0.0,0.0,0.0,0.0,0.0,0.0,0.0,0.0,0.0,0.0,0.0,0.0,0.0,0.0,0.0,0.0,0.0,0.0,0.0,0.0,0.0,0.0,0.0,0.0,0.0,0.0,0.0,0.0,0.0,0.0,0.0,0.0,0.0,0.0,0.0,0.0,2.4971,2.785,3.2659,3.3914,3.4175,3.3639,3.2476,3.0322,2.6928,2.342,0.0,0.0,0.0,0.0,0.0,0.0,0.0,0.0,0.0,0.0,0.0,0.0,0.0,0.0,0.0,0.0,0.0,0.0,0.0,0.0,0.0,0.0,0.0,0.0,0.0,0.0,0.0,0.0,0.0,0.0,0.0,0.0,0.0,0.0,0.0,0.0,0.0,0.0,0.0,0.0,0.0,0.0,0.0,0.0,0.0,0.0,0.0,0.0,0.0,0.0,0.0,0.0,0.0,0.0,0.0,0.0,0.0,0.0,0.0,0.0,0.0,0.0,0.0,0.0,0.0,0.0,0.0,0.0,0.0,0.0,0.0,0.0,0.0,0.0,0.0,0.0,0.0,0.0,0.0,0.0,0.0,0.0,0.0,0.0,0.0,0.0,0.0,0.0,0.0,0.0,0.0,0.0,0.0,0.0,0.0,0.0,0.0,0.0,0.0,0.0,0.0,0.0,2.8425,3.0372,3.3456,3.4149,3.4228,3.3809,3.2306,3.0035,2.6915,2.3171,0.0,0.0,0.0,0.0,0.0,0.0,0.0,0.0,0.0,0.0,0.0,0.0,0.0,0.0,0.0,0.0,0.0,0.0,0.0,0.0,0.0,0.0,0.0,0.0,0.0,0.0,0.0,0.0,0.0,0.0,0.0,0.0,0.0,0.0,0.0,0.0,0.0,0.0,0.0,0.0,0.0,0.0,0.0,0.0,0.0,0.0,0.0,0.0,0.0,0.0,0.0,0.0,0.0,0.0,0.0,0.0,0.0,0.0,0.0,0.0,0.0,0.0,0.0,0.0,0.0,0.0,0.0,0.0,0.0,0.0,0.0,0.0,0.0,0.0,0.0,0.0,0.0,0.0,0.0,0.0,0.0,0.0,0.0,0.0,0.0,0.0,0.0,0.0,0.0,0.0,0.0,0.0,0.0,0.0,0.0,0.0,0.0,0.0,0.0,0.0,0.0,0.0,2.9575,3.2267,3.4136,3.4371,3.4384,3.4345,3.1797,2.92,2.6863,2.2426,0.0,0.0,0.0,0.0,0.0,0.0,0.0,0.0,0.0,0.0,0.0,0.0,0.0,0.0,0.0,0.0,0.0,0.0,0.0,0.0,0.0,0.0,0.0,0.0,0.0,0.0,0.0,0.0,0.0,0.0,0.0,0.0,0.0,0.0,0.0,0.0,0.0,0.0,0.0,0.0,0.0,0.0,0.0,0.0,0.0,0.0,0.0,0.0,0.0,0.0,0.0,0.0,0.0,0.0,0.0,0.0,0.0,0.0,0.0,0.0,0.0,0.0,0.0,0.0,0.0,0.0,0.0,0.0,0.0,0.0,0.0,0.0,0.0,0.0,0.0,0.0,0.0,0.0,0.0,0.0,0.0,0.0,0.0,0.0,0.0,0.0,0.0,0.0,0.0,0.0,0.0,0.0,0.0,0.0,0.0,0.0,0.0,0.0,0.0,0.0,0.0,0.0,2.9379,3.2241,0.0,3.4959,3.4959,3.4959,3.2607,2.9865,2.6902,0.0,0.0,0.0,0.0,0.0,0.0,0.0,0.0,0.0,0.0,0.0,0.0,0.0,0.0,0.0,0.0,0.0,0.0,0.0,0.0,0.0,0.0,0.0,0.0,0.0,0.0,0.0,0.0,0.0,0.0,0.0,0.0,0.0,0.0,0.0,0.0,0.0,0.0,0.0,0.0,0.0,0.0,0.0,0.0,0.0,0.0,0.0,0.0,0.0,0.0,0.0,0.0,0.0,0.0,0.0,0.0,0.0,0.0,0.0,0.0,0.0,0.0,0.0,0.0,0.0,0.0,0.0,0.0,0.0,0.0,0.0,0.0,0.0,0.0,0.0,0.0,0.0,0.0,0.0,0.0,0.0,0.0,0.0,0.0,0.0,0.0,0.0,0.0,0.0,0.0,0.0,0.0,0.0,0.0,0.0,0.0,0.0,0.0,0.0,0.0,0.0,0.0,2.6425,2.9941,3.2894,0.0,3.5299,3.5299,3.5299,3.2672,2.9706,2.6595,0.0,0.0,0.0,0.0,0.0,0.0,0.0,0.0,0.0,0.0,0.0,0.0,0.0,0.0,0.0,0.0,0.0,0.0,0.0,0.0,0.0,0.0,0.0,0.0,0.0,0.0,0.0,0.0,0.0,0.0,0.0,0.0,0.0,0.0,0.0,0.0,0.0,0.0,0.0,0.0,0.0,0.0,0.0,0.0,0.0,0.0,0.0,0.0,0.0,0.0,0.0,0.0,0.0,0.0,0.0,0.0,0.0,0.0,0.0,0.0,0.0,0.0,0.0,0.0,0.0,0.0,0.0,0.0,0.0,0.0,0.0,0.0,0.0,0.0,0.0,0.0,0.0,0.0,0.0,0.0,0.0,0.0,0.0,0.0,0.0,0.0,0.0,0.0,0.0,0.0,0.0,0.0,0.0,0.0,0.0,0.0,0.0,0.0,0.0,0.0,0.0,0.0,2.7124,3.1548,3.4633,3.5247,3.5312,3.5312,3.5312,3.1614,2.8307,0.0,0.0,0.0,0.0,0.0,0.0,0.0,0.0,0.0,0.0,0.0,0.0,0.0,0.0,0.0,0.0,0.0,0.0,0.0,0.0,0.0,0.0,0.0,0.0,0.0,0.0,0.0,0.0,0.0,0.0,0.0,0.0,0.0,0.0,0.0,0.0,0.0,0.0,0.0,0.0,0.0,0.0,0.0,0.0,0.0,0.0,0.0,0.0,0.0,0.0,0.0,0.0,0.0,0.0,0.0,0.0,0.0,0.0,0.0,0.0,0.0,0.0,0.0,0.0,0.0,0.0,0.0,0.0,0.0,0.0,0.0,0.0,0.0,0.0,0.0,0.0,0.0,0.0,0.0,0.0,0.0,0.0,0.0,0.0,0.0,0.0,0.0,0.0,0.0,0.0,0.0,0.0,0.0,0.0,0.0,0.0,0.0,0.0,0.0,0.0,0.0,0.0,0.0,2.7124,3.1914,3.5247,3.5809,3.5861,3.5861,3.5861,3.2555,2.9144,2.5989,0.0,0.0,0.0,0.0,0.0,0.0,0.0,0.0,0.0,0.0,0.0,0.0,0.0,0.0,0.0,0.0,0.0,0.0,0.0,0.0,0.0,0.0,0.0,0.0,0.0,0.0,0.0,0.0,0.0,0.0,0.0,0.0,0.0,0.0,0.0,0.0,0.0,0.0,0.0,0.0,0.0,0.0,0.0,0.0,0.0,0.0,0.0,0.0,0.0,0.0,0.0,0.0,0.0,0.0,0.0,0.0,0.0,0.0,0.0,0.0,0.0,0.0,0.0,0.0,0.0,0.0,0.0,0.0,0.0,0.0,0.0,0.0,0.0,0.0,0.0,0.0,0.0,0.0,0.0,0.0,0.0,0.0,0.0,0.0,0.0,0.0,0.0,0.0,0.0,0.0,0.0,0.0,0.0,0.0,0.0,0.0,0.0,0.0,0.0,0.0,0.0,0.0,2.7103,3.1911,3.543,3.6353,3.6462,3.6358,3.6123,3.3378,3.0085,2.6399,0.0,0.0,0.0,0.0,0.0,0.0,0.0,0.0,0.0,0.0,0.0,0.0,0.0,0.0,0.0,0.0,0.0,0.0,0.0,0.0,0.0,0.0,0.0,0.0,0.0,0.0,0.0,0.0,0.0,0.0,0.0,0.0,0.0,0.0,0.0,0.0,0.0,0.0,0.0,0.0,0.0,0.0,0.0,0.0,0.0,0.0,0.0,0.0,0.0,0.0,0.0,0.0,0.0,0.0,0.0,0.0,0.0,0.0,0.0,0.0,0.0,0.0,0.0,0.0,0.0,0.0,0.0,0.0,0.0,0.0,0.0,0.0,0.0,0.0,0.0,0.0,0.0,0.0,0.0,0.0,0.0,0.0,0.0,0.0,0.0,0.0,0.0,0.0,0.0,0.0,0.0,0.0,0.0,0.0,0.0,0.0,0.0,0.0,0.0,0.0,0.0,0.0,2.7268,3.1873,3.5404,3.6843,3.6998,3.6763,3.6162,3.4005,3.1013,2.7112,0.0,0.0,0.0,0.0,0.0,0.0,0.0,0.0,0.0,0.0,0.0,0.0,0.0,0.0,0.0,0.0,0.0,0.0,0.0,0.0,0.0,0.0,0.0,0.0,0.0,0.0,0.0,0.0,0.0,0.0,0.0,0.0,0.0,0.0,0.0,0.0,0.0,0.0,0.0,0.0,0.0,0.0,0.0,0.0,0.0,0.0,0.0,0.0,0.0,0.0,0.0,0.0,0.0,0.0,0.0,0.0,0.0,0.0,0.0,0.0,2.3227,2.2039,0.0,0.0,0.0,0.0,0.0,0.0,0.0,0.0,0.0,0.0,0.0,0.0,0.0,0.0,0.0,0.0,0.0,0.0,0.0,0.0,0.0,0.0,0.0,0.0,0.0,0.0,0.0,0.0,0.0,0.0,0.0,0.0,0.0,0.0,0.0,0.0,0.0,0.0,0.0,0.0,2.849,3.294,3.6098,3.6888,3.6998,3.6763,3.6162,3.4005,3.1352,2.8216,2.4766,0.0,0.0,0.0,0.0,0.0,0.0,0.0,0.0,0.0,0.0,0.0,0.0,0.0,0.0,0.0,0.0,0.0,0.0,0.0,0.0,0.0,0.0,0.0,0.0,0.0,0.0,0.0,0.0,0.0,0.0,0.0,0.0,0.0,0.0,0.0,0.0,0.0,0.0,0.0,0.0,0.0,0.0,0.0,0.0,0.0,0.0,0.0,0.0,0.0,0.0,0.0,0.0,0.0,0.0,0.0,0.0,0.0,0.0,0.0,2.5855,2.481,0.0,0.0,0.0,0.0,0.0,0.0,0.0,0.0,0.0,0.0,0.0,0.0,0.0,0.0,0.0,0.0,0.0,0.0,0.0,0.0,0.0,0.0,0.0,0.0,0.0,0.0,0.0,0.0,0.0,0.0,0.0,0.0,0.0,0.0,0.0,0.0,0.0,0.0,0.0,0.0,2.7406,3.2244,3.5641,3.6276,3.6715,3.6763,3.6162,3.428,3.2006,2.9379,2.6229,0.0,0.0,0.0,0.0,0.0,0.0,0.0,0.0,0.0,0.0,0.0,0.0,0.0,0.0,0.0,0.0,0.0,0.0,0.0,0.0,0.0,0.0,0.0,0.0,0.0,0.0,0.0,0.0,0.0,0.0,0.0,0.0,0.0,0.0,0.0,0.0,0.0,0.0,0.0,0.0,0.0,0.0,0.0,0.0,0.0,0.0,0.0,0.0,0.0,0.0,0.0,0.0,0.0,2.7917,2.8733,2.9569,2.9735,3.0426,3.1301,2.8732,2.8195,2.8934,2.6792,0.0,0.0,0.0,0.0,0.0,0.0,0.0,0.0,0.0,0.0,0.0,0.0,0.0,0.0,0.0,0.0,0.0,0.0,0.0,0.0,0.0,0.0,2.6387,2.657,2.6806,2.6489,2.4608,0.0,0.0,0.0,0.0,0.0,0.0,0.0,0.0,0.0,0.0,0.0,2.6391,3.1299,3.4848,3.5611,3.638,3.6606,3.6018,3.4502,3.2685,3.0531,2.7686,2.4753,0.0,0.0,0.0,0.0,0.0,0.0,0.0,0.0,0.0,0.0,0.0,0.0,0.0,0.0,0.0,0.0,0.0,0.0,0.0,0.0,0.0,0.0,0.0,0.0,0.0,0.0,0.0,0.0,0.0,0.0,0.0,0.0,1.6762,1.7495,0.0,0.0,0.0,0.0,0.0,0.0,0.0,0.0,0.0,0.0,0.0,0.0,0.0,2.6376,2.6835,2.8983,3.0368,3.0924,3.2254,3.3181,3.3704,3.377,3.3857,3.3999,3.3561,0.0,2.9837,2.9793,0.0,0.0,0.0,0.0,0.0,0.0,0.0,0.0,0.0,0.0,0.0,0.0,0.0,0.0,0.0,0.0,0.0,0.0,0.0,0.0,0.0,0.0,3.0204,2.8919,2.9037,2.9217,2.839,2.5709,2.315,2.2148,2.0668,0.0,0.0,0.0,0.0,0.0,0.0,0.0,2.881,3.2047,3.4515,3.5885,3.6126,3.6005,3.5443,3.4293,3.3025,3.1667,2.8873,2.6615,2.5197,2.2126,0.0,0.0,0.0,0.0,0.0,0.0,0.0,0.0,0.0,0.0,0.0,0.0,0.0,0.0,0.0,0.0,0.0,0.0,0.0,0.0,0.0,0.0,0.0,0.0,0.0,0.0,0.0,0.0,0.0,1.6536,1.8482,1.8753,1.9091,1.9111,0.0,0.0,0.0,0.0,0.0,0.0,0.0,0.0,0.0,2.7643,2.8833,2.9925,3.0941,3.2274,3.3169,3.365,3.4283,3.4851,3.5332,3.5332,3.5332,3.5332,3.5332,3.4428,3.2812,3.1604,2.9611,2.7212,0.0,0.0,0.0,0.0,2.629,2.6679,2.8314,2.8626,2.8175,2.746,0.0,0.0,0.0,0.0,0.0,0.0,0.0,2.6602,2.6936,2.8762,3.045,3.0115,2.9869,2.96,2.9233,2.7666,2.5934,2.4732,2.3884,2.2585,2.0051,0.0,0.0,0.0,0.0,2.6859,2.8887,3.2389,3.4748,3.4848,3.5336,3.5561,3.5312,3.394,3.2868,3.2346,2.9928,2.7994,2.6798,2.4099,2.1655,0.0,0.0,0.0,0.0,0.0,0.0,0.0,0.0,0.0,0.0,0.0,0.0,0.0,0.0,0.0,0.0,0.0,0.0,0.0,0.0,0.0,0.0,0.0,0.0,0.0,0.0,0.0,0.0,1.8338,2.0205,2.0325,2.1199,2.1441,0.0,0.0,0.0,0.0,0.0,0.0,2.6365,2.7501,2.8975,3.0887,3.1979,3.306,3.4141,3.4644,3.5124,3.5583,3.5714,3.5965,3.6384,3.6457,3.6446,3.6384,3.6384,3.6042,3.5408,3.3126,3.1203,2.962,2.8615,2.773,2.7151,2.8331,2.8896,2.9387,3.1397,3.2025,3.167,3.0362,2.8834,2.7023,2.4776,0.0,0.0,0.0,0.0,2.8122,2.8745,2.9602,3.0398,3.068,3.0167,2.9624,2.9386,2.9114,2.8487,2.7126,2.6552,2.5343,2.2358,0.0,0.0,0.0,0.0,2.8384,2.8927,3.2357,3.4525,3.4081,3.4654,3.5064,3.5064,3.36,3.2685,3.2685,3.0542,2.8882,2.802,2.5628,2.3459,2.1603,0.0,0.0,0.0,0.0,0.0,0.0,0.0,0.0,0.0,0.0,0.0,0.0,0.0,0.0,0.0,0.0,0.0,0.0,0.0,0.0,0.0,0.0,0.0,0.0,0.0,0.0,0.0,0.0,0.0,2.2772,2.37,0.0,0.0,0.0,0.0,2.5579,2.6911,2.8351,2.9882,3.1323,3.235,3.296,3.4294,3.5059,3.5135,3.5638,3.614,3.6631,3.7057,3.7287,3.7319,3.7789,3.7745,3.7309,3.7309,3.7046,3.6468,3.4491,3.3104,3.211,3.1105,3.0417,3.0057,3.0559,3.0734,3.0849,3.1429,3.1655,3.16,3.1523,3.0084,2.8321,2.7722,2.6899,0.0,0.0,2.8433,2.9977,2.9545,3.0482,3.1306,3.0447,3.0225,3.0035,2.9569,2.9708,2.9731,0.0,2.7455,2.5961,2.4872,0.0,2.462,2.3731,2.6477,2.9031,2.9975,3.1868,3.3428,3.4269,3.4395,3.445,3.445,3.3365,3.2685,3.2685,3.0542,2.9284,2.9196,2.6484,2.4639,2.3926,2.0544,0.0,0.0,0.0,0.0,0.0,0.0,0.0,0.0,0.0,0.0,0.0,0.0,0.0,0.0,0.0,0.0,0.0,0.0,0.0,0.0,0.0,0.0,0.0,0.0,0.0,0.0,0.0,0.0,2.524,2.6463,0.0,2.631,2.6846,2.7643,2.8604,2.967,3.0985,3.2437,3.3311,3.4261,3.5364,3.59,3.6304,3.6599,3.6784,3.7123,3.7603,3.7451,3.7549,3.7844,3.7702,3.7549,3.7374,3.7374,3.7287,3.7057,3.6074,3.5081,3.4141,3.3486,3.294,3.2536,3.27,3.2765,3.2831,3.3322,3.3289,3.2918,3.2306,3.1164,3.0003,2.984,2.9339,2.886,2.9045,2.9822,3.0592,3.0439,3.0993,3.1429,3.0822,3.0646,3.0526,3.0057,2.9804,2.9613,2.9352,2.8477,2.7673,2.7408,2.6868,2.639,2.6065,2.786,2.9518,3.0397,3.1963,3.3122,3.3475,3.4037,3.4254,3.3901,3.3156,3.2385,3.164,3.0137,2.8935,2.8177,2.6452,2.5079,2.4109,2.1786,1.9345,0.0,0.0,0.0,0.0,0.0,0.0,0.0,0.0,0.0,0.0,0.0,0.0,0.0,0.0,0.0,0.0,0.0,0.0,0.0,0.0,0.0,0.0,0.0,0.0,0.0,2.4224,2.6441,2.7261,2.8757,2.9478,2.8787,2.951,3.0357,3.1116,3.2066,3.3093,3.4207,3.4895,3.5703,3.6664,3.6839,3.7068,3.7374,3.7374,3.7549,3.7855,3.7702,3.7713,3.7855,3.7702,3.7538,3.7374,3.7374,3.7374,3.7352,3.7046,3.6533,3.5878,3.5255,3.4818,3.4502,3.4338,3.4272,3.4294,3.4469,3.4207,3.3693,3.306,3.2295,3.1629,3.1629,3.1422,3.1181,3.1181,3.128,3.14,3.14,3.1509,3.1542,3.1214,3.1138,3.1018,3.0548,3.0188,2.9956,2.995,2.9284,2.863,2.8485,2.8359,2.8096,2.761,2.9056,3.0296,3.0505,3.1982,3.298,3.298,3.3827,3.4175,3.3639,3.2868,3.2006,3.1052,2.9536,2.8333,2.7529,2.6028,2.4853,2.4096,2.2217,2.0087,1.7761,0.0,0.0,0.0,0.0,0.0,0.0,0.0,0.0,0.0,0.0,0.0,0.0,0.0,0.0,0.0,0.0,0.0,0.0,0.0,0.0,0.0,0.0,0.0,2.4486,2.6605,2.8252,2.8822,3.0537,3.1313,3.0417,3.1618,3.2645,3.3157,3.4021,3.4764,3.5223,3.6173,3.6708,3.6719,3.7145,3.7374,3.7374,3.7374,3.7385,3.7407,3.7866,3.7844,3.7418,3.7876,3.7833,3.7374,3.7374,3.7374,3.7374,3.7374,3.7374,3.7287,3.6358,3.6045,3.598,3.5397,3.5201,3.5124,3.4676,3.4207,3.3814,3.3814,3.3486,3.3135,3.3135,3.3135,3.3124,3.3124,3.2732,3.2383,3.2383,3.2001,3.1618,3.1618,3.1618,3.1498,3.1018,3.0908,3.091,3.0887,2.9786,2.8672,2.8145,2.9229,2.9648,2.826,3.0039,0.0,3.0249,3.1753,3.2938,3.2925,3.3759,3.4108,3.3587,3.2476,3.1523,3.0947,2.8778,2.7477,2.7438,2.5323,2.4164,2.4122,2.1904,2.0164,1.8989,0.0,0.0,0.0,0.0,0.0,0.0,0.0,0.0,0.0,0.0,0.0,0.0,0.0,0.0,0.0,0.0,0.0,0.0,0.0,0.0,0.0,2.4071,2.5843,2.6016,2.8056,2.9915,3.0745,3.1924,3.2711,3.2798,3.3486,3.413,3.4589,3.5212,3.578,3.626,3.6544,3.685,3.7178,3.7309,3.7374,3.7374,3.7374,3.756,3.7898,3.768,3.7691,3.7898,3.768,3.7505,3.7374,3.7374,3.7374,3.7374,3.7374,3.7374,3.7319,3.673,3.65,3.6391,3.5528,3.4993,3.4698,3.4567,3.4436,3.4327,3.4327,3.3988,3.3595,3.3595,3.3344,3.3124,3.3124,3.2732,3.2383,3.2383,3.2001,3.1618,3.1618,3.1618,3.1586,3.1455,3.1149,3.0921,3.0882,3.0031,2.9352,2.9568,2.9373,2.9061,2.8617,2.9155,0.0,2.9198,3.0215,3.108,3.1319,3.2179,3.2618,3.2319,3.164,3.0607,2.9183,2.8111,2.7124,2.6289,2.5662,2.5158,2.4769,2.2884,2.1551,0.0,0.0,0.0,0.0,0.0,0.0,0.0,0.0,0.0,0.0,0.0,0.0,0.0,0.0,0.0,0.0,0.0,0.0,0.0,0.0,0.0,0.0,2.6846,2.856,2.8975,3.0242,3.1476,3.2416,3.3377,3.4076,3.436,3.484,3.5233,3.5506,3.5987,3.6391,3.6686,3.6883,3.7101,3.7374,3.7374,3.7374,3.7374,3.7374,3.7527,3.78,3.7516,3.7527,3.7789,3.7505,3.7374,3.7374,3.7374,3.7374,3.7374,3.7374,3.7374,3.7352,0.0,0.0,0.0,0.0,3.5223,3.4786,3.4589,3.4524,3.4524,3.4524,3.4338,3.4098,3.4098,3.3901,3.3683,3.3683,3.3191,3.2667,3.2667,3.2143,3.1618,3.1618,3.1618,3.1618,3.1618,3.14,3.1138,3.093,3.0297,0.0,2.9902,2.9296,2.8803,2.8803,2.8803,2.8803,2.8803,2.96,3.0403,3.1025,3.1908,3.2409,3.2176,3.1679,0.0,0.0,0.0,2.6876,2.5524,2.5458,0.0,0.0,0.0,0.0,0.0,0.0,0.0,0.0,2.0675,2.0675,0.0,0.0,0.0,0.0,0.0,0.0,0.0,0.0,0.0,0.0,0.0,0.0,0.0,0.0,0.0,0.0,2.9445,3.1345,3.2394,3.2547,3.2853,3.3693,3.4633,3.5212,3.5212,3.5714,3.61,3.61,3.65,3.6773,3.6773,3.7156,0.0,0.0,0.0,3.7374,3.7374,3.7374,3.7374,3.7374,3.7374,3.7374,3.7374,3.7374,3.7374,3.7374,3.7374,3.7374,3.7374,3.7374,3.7374,3.7374,3.7374,3.7341,3.7199,3.6417,3.5692,3.5146,3.4742,0.0,0.0,3.4524,3.4524,3.4524,3.4524,3.4524,3.4524,3.4524,3.3825,3.3124,3.3124,3.235,3.1618,3.1618,3.1618,3.1618,3.1618,3.1618,3.1498,3.1061,3.057,3.0078,2.9642,2.9164,2.8803,2.8803,2.8803,2.8803,2.8803,2.96,3.0541,3.1404,0.0,0.0,3.2606,3.2032,3.1001,2.9379,2.8242,2.6935,2.545,2.5419,2.5419,2.5384,2.5354,2.5545,2.5976,2.5976,2.6015,2.6002,2.2794,2.2375,0.0,0.0,0.0,0.0,0.0,0.0,0.0,0.0,0.0,0.0,0.0,0.0,0.0,0.0,0.0,2.8256,3.0166,3.1957,3.3333,3.3519,3.3584,3.377,3.4633,3.5212,3.5212,3.6031,3.6555,3.6555,3.6981,3.7243,3.7243,3.733,3.7374,3.7374,3.7374,3.7374,3.7374,3.7374,3.7374,3.7374,3.7374,0.0,3.7374,3.7374,3.7374,3.7374,3.7374,3.7374,3.7374,3.7374,3.7374,3.7374,3.7374,3.7156,3.6806,3.662,3.5987,3.519,3.5102,3.4829,3.4524,3.4524,3.4524,3.4524,3.4524,3.4524,0.0,3.4524,3.3825,3.3124,3.3124,3.235,3.1618,3.1618,3.1618,3.1618,3.1618,3.1618,3.1545,3.1498,3.0799,3.0177,3.0089,2.9336,2.8803,2.8803,2.8803,2.8803,2.8803,2.96,3.0368,3.0826,3.1723,3.2177,3.198,3.1483,3.0607,2.9401,2.8608,2.8072,2.7766,2.8053,2.8079,2.7766,2.7429,2.7227,2.7163,2.7018,2.7252,2.7837,2.5785,2.5066,0.0,0.0,0.0,0.0,0.0,0.0,0.0,0.0,0.0,0.0,0.0,2.3962,2.4683,0.0,2.8593,3.0346,3.1575,3.2765,3.3988,3.4163,3.4163,3.4163,3.5004,3.5583,3.5583,3.6468,3.7036,3.7036,3.7254,3.7374,3.7374,3.7374,3.7374,3.7374,3.7374,3.7374,3.7374,3.7374,3.7374,3.7374,3.7374,3.7374,3.7374,3.7374,3.7374,3.7374,3.7374,3.7374,3.7374,3.7374,3.7374,3.7374,3.7374,3.7243,3.7014,3.6784,3.638,3.5878,3.5375,3.5059,3.4829,3.46,3.4524,3.4524,3.4524,3.4524,3.4524,3.4524,3.3825,3.3124,3.3124,3.235,3.1618,3.1618,3.1618,3.1618,3.1618,3.1618,3.1618,3.1618,3.0854,3.0209,3.0209,2.9401,2.8803,2.8803,2.8803,2.8978,2.9417,2.9909,3.0606,3.1576,3.2123,3.2403,3.2338,3.1306,3.0347,2.96,2.9015,2.8655,2.8524,2.8834,2.886,2.8524,2.8289,2.8148,2.8062,2.7945,2.8099,2.8463,2.7622,2.7268,0.0,0.0,0.0,0.0,0.0,0.0,0.0,0.0,2.2258,2.323,2.488,2.6474,2.7545,2.8844,3.033,3.2099,3.2765,3.341,3.4382,3.4524,3.4524,3.4524,3.5288,3.5914,3.6012,3.6741,3.7287,3.7374,3.7374,3.7374,3.7374,3.7374,3.7374,3.7374,3.7374,3.7374,3.7374,3.7374,3.7374,3.7374,3.7374,3.7374,3.7374,3.7374,3.7374,3.7374,3.7374,3.7374,3.7374,3.7374,3.7374,3.7374,3.7374,3.7374,3.733,3.6959,3.6773,3.6566,3.567,3.5288,3.5135,3.4676,3.4524,3.4524,3.4524,3.4524,3.4524,3.4524,3.3825,3.3124,3.3124,3.235,3.1618,3.1618,3.1618,3.1618,3.1618,3.1618,3.1618,3.1618,3.0854,3.0209,3.0209,2.9401,2.8803,2.8803,2.8803,2.9152,3.0079,3.0351,3.1024,3.2531,3.2803,3.2852,3.2733,3.1406,3.0367,2.9938,2.9535,2.9217,2.8948,2.9132,2.9132,2.8948,2.8875,2.8875,2.8948,2.8912,2.8912,2.8948,2.8912,2.8882,1.7142,1.7387,1.8348,2.0489,2.085,2.154,0.0,0.0,2.6213,2.7162,2.8604,2.9565,2.9292,3.0057,3.1094,3.2197,3.2765,3.341,3.4382,3.4524,3.4524,3.4524,3.4982,3.5474,3.5922,3.6457,3.6937,3.7352,3.7374,3.7374,3.7374,3.7374,3.7374,3.7374,3.7374,3.7374,3.7374,3.7374,3.7374,3.7374,3.7374,3.7374,3.7374,3.7374,3.7374,3.7374,3.7374,3.7374,3.7374,3.7374,3.7374,3.7374,3.7374,3.7374,3.7374,3.7319,3.7046,3.661,3.6063,3.5583,3.5135,3.4676,3.4524,3.4524,3.4524,3.4524,3.4524,3.4524,3.3825,3.3124,3.3124,3.235,3.1618,3.1618,3.1618,3.1618,3.1618,3.1618,3.1618,3.1618,3.0854,3.0209,3.0209,2.9401,2.8803,2.8803,2.8803,2.9152,3.0079,3.0756,3.1557,3.2575,3.3232,3.3219,3.2265,3.1692,3.1087,3.038,3.0454,3.0428,3.0214,3.0075,3.0037,3.0214,2.9859,2.9847,3.0214,3.0037,3.0024,3.0214,3.0037,2.9452,2.0358,2.0751,2.1297,2.2881,2.3951,2.4967,2.6279,2.7272,2.8058,2.8746,2.9805,3.0548,3.0341,3.0854,3.164,0.0,3.2993,3.341,3.4382,3.4272,3.4098,3.4098,3.4272,3.4687,3.5452,3.6238,3.6773,3.697,3.7232,3.7374,3.7374,3.7374,3.7374,3.7374,3.7374,3.7374,3.7374,3.7374,3.7374,3.7374,3.7374,3.7374,3.7374,3.7374,3.7374,3.7374,3.7374,3.7374,3.7374,3.7374,3.7374,3.7374,3.7374,3.7374,3.7374,3.7374,3.7254,3.6981,3.6286,3.5823,3.5528,3.4764,3.4524,3.4524,3.4524,3.4524,3.4524,3.4524,3.3825,3.3124,3.3124,3.235,3.1618,3.1618,3.1618,3.1618,3.1618,3.1618,3.1618,3.1618,3.1072,3.0526,3.0264,2.9642,2.9121,2.8836,2.9233,2.9943,3.0866,3.1645,3.2358,3.3031,3.3258,3.2954,3.196,3.1601,3.108,3.0279,3.0305,3.0279,3.0049,3.0075,3.0075,3.0049,2.9908,2.9869,3.0049,2.9972,2.9972,3.0049,2.9972,2.9719,2.2237,2.2903,2.3504,2.477,2.631,2.7501,2.7424,2.8418,2.9493,2.9805,3.0417,3.0898,3.0898,3.1181,3.1738,3.2721,3.3037,3.3355,3.4207,3.4021,3.3737,3.3606,3.3595,3.3912,3.4742,3.5714,3.6402,3.6675,3.7003,3.7243,3.7374,3.7374,3.7374,3.7374,3.7374,3.7374,3.7374,3.7374,3.7374,3.7374,3.7374,3.7374,3.7374,3.7374,3.7374,3.7374,3.7374,3.7374,3.7374,3.7374,3.7374,3.7374,3.7374,3.7374,3.7374,3.7374,3.7374,3.7243,3.6352,3.6023,3.5801,3.484,3.4524,3.4524,3.4524,3.4524,3.4524,3.4524,3.3912,3.3235,3.3157,3.2448,3.1793,3.1662,3.1618,3.1618,3.1618,3.1618,3.1618,3.1618,3.1225,3.0756,3.0297,2.9757,2.9277,2.888,2.9555,3.0474,3.1488,3.2432,3.3074,3.327,3.3197,3.2764,3.1931,3.176,3.1344,3.0504,3.0353,3.0238,3.0018,3.0022,2.9934,2.9792,2.9792,2.9792,2.9792,2.9792,2.9792,2.9792,2.9792,2.9792,2.1614,2.2652,2.4131,2.6039,2.7249,2.822,2.9183,3.0144,3.0832,3.0843,3.0876,3.0898,3.0898,3.0908,3.1247,3.2241,3.2776,3.3246,3.3748,3.3803,3.3617,3.3201,3.3135,3.3289,3.3792,3.4698,3.5648,3.662,3.6708,3.6904,3.7352,3.7374,3.7374,3.7374,3.7374,3.7374,3.7374,3.7374,3.7374,3.7374,3.7374,3.7374,3.7374,3.7374,3.7374,3.7374,3.7374,3.7374,3.7374,3.7374,3.7374,3.7374,3.7374,3.7374,3.7374,3.7374,3.7374,3.7243,3.6352,3.6023,3.5801,3.484,3.4524,3.4524,3.4524,3.4524,3.4524,3.4524,3.4163,3.3661,3.3245,3.2721,3.2241,3.1738,3.1618,3.1618,3.1618,3.1618,3.1618,3.1618,3.1225,3.0756,3.0297,2.9623,2.904,2.8833,2.9371,3.0249,3.1444,3.2821,3.3513,3.3154,3.3124,3.283,3.224,3.2369,3.2171,3.1414,3.1059,3.0781,3.0583,3.008,2.9792,2.9792,2.9792,2.9792,2.9792,2.9792,2.9792,2.9792,2.9792,2.9792,2.3624,2.5011,2.642,2.7719,2.8997,3.0024,3.0351,3.0668,3.0898,3.0898,3.0395,2.9958,2.9958,2.9958,3.0275,3.1236,3.1921,3.2553,3.3246,3.3421,3.328,3.27,3.2938,3.319,3.33,3.4185,0.0,3.614,3.6511,3.6894,3.7352,3.7374,3.7374,3.7374,3.7374,3.7374,3.7374,3.7374,3.7374,3.7374,3.7374,3.7374,3.7374,3.7374,3.7374,3.7374,3.7374,3.7374,3.7374,3.7374,3.7374,3.7374,3.7374,3.7374,3.7341,3.7036,3.6926,3.6839,3.6242,3.6023,3.5801,3.484,3.4524,3.4524,3.4524,3.4524,3.4524,3.4524,3.4174,3.3683,3.3245,3.2721,3.2252,3.1749,3.1618,3.1618,3.1618,3.1618,3.1618,3.1618,3.1487,3.1077,3.0084,2.9715,2.9289,2.8398,2.9726,3.1113,3.194,3.2889,3.3398,3.3111,3.3124,3.2842,3.2265,3.2256,3.203,3.1424,3.1304,3.1052,3.0633,3.0432,3.0168,2.9804,2.9792,2.9792,2.9792,2.9792,2.9792,2.9792,2.9792,2.9993,2.5371,2.6605,2.7665,2.915,3.0089,3.069,3.0854,3.0635,3.0341,3.0166,2.9248,2.8462,2.8462,2.8274,2.8588,3.0155,3.081,3.1583,3.2758,3.2976,3.2846,3.2519,3.269,3.2951,3.3343,3.3901,0.0,3.5627,3.6151,3.6642,3.7112,3.7287,3.7374,3.7374,3.7374,3.7374,3.7374,3.7374,3.7374,3.7374,3.7374,3.7374,3.7374,3.7374,3.7374,3.7374,3.7374,3.7374,3.7374,3.7374,3.7374,3.7374,3.7374,3.7374,3.7319,3.6861,3.6697,3.6599,3.5922,3.5692,3.5561,3.4775,3.4524,3.4524,3.4524,3.4524,3.4524,3.4524,3.4294,3.3901,3.3288,3.2906,3.2459,3.1782,3.1618,3.1618,3.1618,3.1618,3.1618,3.1618,3.1618,3.1266,3.0234,2.9665,2.9026,2.802,2.9349,3.08,3.1557,3.237,3.2957,3.3081,3.3124,3.293,3.2554,3.2516,3.2365,3.2014,3.18,3.1537,3.1198,3.0997,3.0721,3.0369,3.0181,3.0093,3.0093,3.0093,3.0093,3.0093,3.0281,3.0557,2.6725,2.7424,2.8036,3.033,3.057,3.0351,3.0766,3.0111,2.9259,2.8803,2.749,2.6431,2.641,2.5934,2.6379,2.8907,2.9634,3.0514,3.2276,3.2477,3.2443,0.0,0.0,0.0,0.0,0.0,0.0,3.5179,3.5692,3.6195,3.6708,3.7145,3.7374,3.7374,3.7374,3.7374,3.7374,3.7374,3.7374,3.7374,3.7374,3.7374,3.7374,3.7374,3.7374,3.7374,3.7374,3.7374,3.7374,3.7374,3.7374,3.7374,3.7374,3.7374,3.7319,3.6839,3.6653,3.6511,3.5517,3.519,3.5135,3.4676,3.4524,3.4524,3.4524,3.4524,3.4524,3.4524,3.4524,3.4294,3.3322,3.3124,3.2831,3.1848,3.1618,3.1618,3.1618,3.1618,3.1618,3.1618,3.1556,3.128,3.0551,2.9454,2.8396,2.7704,2.8398,2.936,3.0351,3.1359,3.2264,3.3025,3.3124,3.3124,3.3124,3.3124,3.3124,3.3124,3.2554,3.224,3.2215,3.1712,3.1424,3.1386,3.0909,3.0658,3.0658,3.0658,3.0658,3.067,3.116,3.1399,2.7544,2.8899,3.0133,3.0745,3.081,3.0657,3.0439,2.9358,2.8167,2.7348,2.5732,2.4316,2.3995,2.4223,2.5042,2.6757,2.8426,0.0,3.1571,3.2351,0.0,3.2599,0.0,3.3388,3.4228,3.4338,0.0,0.0,3.5947,3.6384,3.7156,3.7319,3.7374,3.7374,3.7374,3.7374,3.7374,3.7374,3.7374,3.7374,3.7374,3.7374,3.7374,3.7374,3.7374,3.7374,3.7374,3.7374,3.7374,3.7374,3.7374,3.7374,3.7374,3.7374,3.7276,3.6457,3.6151,3.6009,3.5037,3.4917,3.5135,3.4676,3.4524,3.4524,3.4524,3.4524,3.4524,3.4524,3.4524,3.4294,3.3322,3.3124,3.2831,3.1848,3.1618,3.1618,3.1618,3.1618,3.1618,3.1618,3.099,3.0237,2.9497,2.8691,2.7914,2.7467,2.7584,2.8398,3.026,3.1214,3.2077,3.2982,3.3124,3.3124,3.3124,3.3124,3.3124,3.3124,3.2943,3.2667,3.2227,3.2077,3.1813,3.1399,3.126,3.1198,3.1198,3.1198,3.1198,3.1198,3.1336,3.1612,2.8997,3.0078,3.0898,3.0898,3.0581,2.9991,2.8888,2.7523,2.6026,2.4432,2.3018,2.1906,2.1243,2.1995,2.327,0.0,0.0,0.0,3.1063,3.1858,3.2477,0.0,3.32,0.0,3.4697,3.4829,3.5223,3.6205,3.6282,3.6522,3.7046,3.7265,3.7374,3.7374,3.7374,3.7374,3.7374,3.7374,3.7374,3.7374,3.7374,3.7374,3.7374,3.7374,3.7374,3.7374,3.7374,3.7374,3.7374,3.7374,3.7374,3.7374,3.7374,3.7254,3.6992,3.6238,3.5823,3.5528,3.4786,3.4698,3.4862,3.4611,3.4524,3.4524,3.4524,3.4524,3.4524,3.4524,3.4524,3.4349,3.3584,3.3224,3.2938,3.2132,3.1793,3.1618,3.1618,3.1618,3.1578,3.1476,3.0861,3.0172,2.9434,2.8723,2.8069,2.7614,2.7757,2.8491,3.017,3.0722,3.1536,3.2939,3.3124,3.3124,3.3124,3.3124,3.3124,3.3124,3.3124,3.293,3.2604,3.2591,3.2441,3.2139,3.1888,3.175,3.175,3.175,3.175,3.1763,3.2014,3.2303,3.0428,3.0941,3.0974,3.0858,3.0084,2.8841,2.6922,2.5235,2.3487,2.119,0.0,1.9475,1.8654,1.9695,2.1381,2.3599,0.0,2.7836,3.0632,3.1296,3.1976,3.3409,3.342,3.3862,3.5098,3.531,3.5714,3.6708,3.6784,3.6784,3.6784,3.7156,3.7374,3.7374,3.7374,3.7374,3.7374,3.7374,3.7374,3.7374,3.7374,3.7374,3.7374,3.7374,3.7374,3.7374,3.7374,3.7374,3.7374,3.7374,3.7374,3.7374,3.7374,3.7134,3.6719,3.6231,3.5692,3.5233,3.4709,3.4524,3.4524,3.4524,3.4524,3.4524,3.4524,3.4524,3.4524,3.4524,3.4524,3.4414,3.3923,3.3431,3.3004,3.2492,3.2001,3.1618,3.1618,3.1618,3.1527,3.123,3.0983,3.0575,2.9772,2.9109,2.8502,2.7997,2.838,2.9084,3.0079,3.0306,3.1069,3.2896,3.3124,3.3124,3.3124,3.3124,3.3124,3.3124,3.3124,3.3124,3.3124,3.3124,3.3124,3.3124,3.2591,3.2328,3.2328,3.2328,3.2328,3.234,3.2842,3.3124,3.0701,3.1181,3.1349,3.0705,2.9591,2.8145,2.6141,2.3924,0.0,0.0,1.8564,1.76,1.7551,1.8581,2.0204,2.2719,2.4787,2.7182,3.0349,3.0987,3.1662,0.0,3.3448,3.404,3.5319,3.5718,0.0,0.0,3.7265,3.7265,3.7265,3.7341,3.7374,3.7374,3.7374,3.7374,3.7374,3.7374,3.7374,3.7374,3.7374,3.7374,3.7374,3.7374,3.7374,3.7374,3.7374,3.7374,3.7374,3.7374,3.7374,3.7374,3.7374,3.733,3.7156,3.6352,3.5969,3.5714,3.4829,3.4524,3.4524,3.4524,3.4524,3.4524,3.4524,3.4524,3.4524,3.4524,3.4524,3.4414,3.3923,3.3431,3.3004,3.2492,3.2001,3.1618,3.1618,3.1618,3.1476,3.0983,3.1034,3.0771,2.9578,2.9109,2.869,2.7986,2.838,2.9084,3.0079,3.0902,3.1801,3.2982,3.3124,3.3124,3.3124,3.3124,3.3124,3.3124,3.3124,3.3124,3.3124,3.3124,3.3124,3.3124,3.298,3.293,3.293,3.293,3.293,3.293,3.3031,3.3124,3.0728,3.0871,3.0683,3.0249,2.8843,2.6902,2.4448,0.0,0.0,0.0,1.6829,1.6202,1.5745,1.7209,0.0,2.0414,2.2594,2.5256,2.8471,2.9403,0.0,3.2605,3.3149,3.394,0.0,3.5663,3.6182,3.7309,3.7374,3.7374,3.7374,3.7374,3.7374,3.7374,3.7374,3.7374,3.7374,3.7374,3.7374,3.7374,3.7374,3.7374,3.7374,3.7374,3.7374,3.7374,3.7374,3.7374,3.7374,3.7374,3.7374,3.7374,3.7374,3.7232,3.6937,3.6286,3.5801,3.5474,3.4764,3.4524,3.4524,3.4524,3.4524,3.4524,3.4524,3.4524,3.4524,3.4524,3.4524,3.4469,3.4229,3.3814,3.3322,3.2853,3.2164,3.1618,3.1618,3.1618,3.1476,3.1086,3.1127,3.0897,3.0056,2.9565,2.9295,2.9076,2.9078,2.9511,3.0758,3.1303,3.1989,3.2982,3.3124,3.3124,3.3124,3.3124,3.3124,3.3124,3.3124,3.3124,3.3124,3.3124,3.3124,3.3124,3.3124,3.3124,3.3124,3.3124,3.3124,3.3124,3.3124,3.3124,3.0443,3.0306,2.9909,2.9567,2.7953,2.5699,2.2853,2.0711,0.0,0.0,1.5358,1.5064,1.4456,1.6058,1.7763,0.0,2.0692,2.3317,2.6734,2.8025,2.9538,0.0,3.279,0.0,3.5274,3.5488,0.0,3.7309,3.7374,3.7374,3.7374,3.7374,3.7374,3.7374,3.7374,3.7374,3.7374,3.7374,3.7374,3.7374,3.7374,3.7374,3.7374,3.7374,3.7374,3.7374,3.7374,3.7374,3.7374,3.7374,3.7374,3.7374,3.7374,3.7101,3.6631,3.614,3.5638,3.5135,3.4676,3.4524,3.4524,3.4524,3.4524,3.4524,3.4524,3.4524,3.4524,3.4524,3.4524,3.4524,3.4524,3.4163,3.365,3.3113,3.2252,3.1618,3.1618,3.1618,3.1527,3.123,3.123,3.1127,3.0557,3.0116,2.9783,2.9861,2.9617,2.9883,3.1151,3.1492,3.1989,3.2982,3.3124,3.3124,3.3124,3.3124,3.3124,3.3124,3.3124,3.3124,3.3124,3.3124,3.3124,3.3124,3.3124,3.3124,3.3124,3.3124,3.3124,3.3124,3.3124,3.3124,2.9613,2.9724,2.9391,2.8697,2.7083,2.4988,2.2203,0.0,1.7341,1.5356,1.4532,1.4291,1.4744,1.5455,1.6807,1.9297,2.0443,2.2408,2.6299,2.7876,2.9311,3.127,0.0,0.0,3.5003,3.5371,3.6053,3.7309,3.7374,3.7374,3.7374,3.7374,3.7374,3.7374,3.7374,3.7374,3.7374,3.7374,3.7374,3.7374,3.7374,3.7374,3.7374,3.7374,3.7374,3.7374,3.7374,3.7374,3.7374,3.7374,3.7374,3.7374,3.7374,3.7101,3.6631,3.614,3.5638,3.5135,3.4676,3.4524,3.4524,3.4524,3.4524,3.4524,3.4524,3.4524,3.4524,3.4524,3.4524,3.4524,3.4524,3.4163,3.3562,3.2656,3.2022,3.1618,3.1618,3.1618,3.1527,3.123,3.1373,3.1373,3.0879,3.0383,2.9854,2.9207,2.9279,2.9637,3.0239,3.108,3.1989,3.2982,3.3124,3.3124,3.3124,3.3124,3.3124,3.3124,3.3124,3.3124,3.3124,3.3124,3.3124,3.3124,3.3124,3.3124,3.3124,3.3124,3.3124,3.3124,3.3124,3.3124,2.8459,2.8678,2.8443,2.8088,2.6274,2.3919,2.1407,0.0,1.6871,1.5025,1.4243,1.3944,1.4196,1.4595,1.5437,1.7069,1.7819,1.9465,2.3029,2.4691,2.6618,2.9568,3.1092,0.0,0.0,0.0,3.5768,3.6915,3.697,3.697,3.697,3.7232,3.7374,3.7374,3.7374,3.7374,3.7374,3.7374,3.7374,3.7374,3.7374,3.7374,3.7374,3.7374,3.7374,3.7374,3.7374,3.7374,3.7374,3.7374,3.7374,3.7374,3.7374,3.7101,3.6631,3.614,3.5638,3.5135,3.4676,3.4524,3.4524,3.4524,3.4524,3.4524,3.4524,3.4524,3.4524,3.4524,3.4524,3.4524,3.4524,3.3945,3.3191,3.2536,3.2001,3.1618,3.1618,3.1618,3.1567,3.1476,3.1527,3.1424,3.0879,3.0627,3.0432,3.012,2.9943,2.9984,3.049,3.118,3.1757,3.2164,3.2754,3.3124,3.3124,3.3124,3.3124,3.3124,3.3124,3.3124,3.3124,3.3124,3.3124,3.3124,3.3124,3.3124,3.3124,3.3124,3.3124,3.3124,3.3124,3.3124,2.6843,2.7253,2.7258,2.7019,2.5292,2.3079,0.0,1.8561,1.661,1.4688,1.4028,1.3797,1.3797,1.4126,1.4716,1.5671,1.6404,1.7988,2.125,2.2979,2.507,0.0,0.0,3.1536,3.3701,3.4699,3.5634,3.6664,3.6566,3.6479,3.6479,3.6784,3.709,3.7374,3.7374,3.7374,3.7374,3.7374,3.7374,3.7374,3.7374,3.7374,3.7374,3.7374,3.7374,3.7374,3.7374,3.7374,3.7374,3.7374,3.7374,3.7363,3.7232,3.6894,3.6424,3.5922,3.543,3.496,3.4633,3.4524,3.4524,3.4524,3.4524,3.4524,3.4524,3.4524,3.4524,3.4524,3.4524,3.4491,3.4349,3.3693,3.3004,3.2492,3.2001,3.1618,3.1618,3.1618,3.1618,3.1618,3.1618,3.1476,3.0983,3.0827,3.0709,3.05,3.0106,3.0063,3.0544,3.102,3.1496,3.1776,3.258,3.3124,3.3124,3.2853,3.2797,3.3068,3.3124,3.3124,3.3124,3.3124,3.3124,3.3124,3.3124,3.3124,3.3124,3.3124,3.3124,3.3124,3.3124,3.3169,2.4598,2.5432,2.5792,2.5357,2.4219,2.2519,1.9899,1.8124,1.6394,1.4254,1.3797,1.3797,1.3797,1.4282,1.5005,1.5956,1.709,1.8943,2.1961,2.3847,2.563,0.0,0.0,3.0616,3.2104,3.4207,3.5799,3.6653,3.6249,3.6034,3.6034,3.6034,3.6472,3.7352,3.7374,3.7374,3.7374,3.7374,3.7374,3.7374,3.7374,3.7374,3.7374,3.7374,3.7374,3.7374,3.7374,3.7374,0.0,3.7374,3.7374,3.733,3.6883,3.6402,3.5969,3.5397,3.4928,3.4534,3.4524,3.4524,3.4524,3.4524,3.4524,3.4524,3.4524,3.4524,3.4524,3.4524,3.4524,3.4414,3.3934,3.3442,3.3004,3.2492,3.2001,3.1618,3.1618,3.1618,3.1618,3.1618,3.1618,3.1516,3.123,3.0983,3.0565,2.9812,2.9495,2.948,3.0035,3.0519,3.1182,3.2192,3.2771,3.3124,3.3124,3.2176,3.2033,3.3038,3.3124,3.3124,3.3124,3.3124,3.3124,3.3124,3.3124,3.3124,3.3124,3.3124,3.3124,3.3124,3.3124,3.337,2.2018,2.2943,2.3381,2.2615,2.1621,2.0321,1.8196,1.69,1.5639,1.3986,1.3668,1.3668,1.3668,1.3817,1.4549,1.6415,1.7023,1.8333,2.1302,0.0,0.0,2.739,3.0433,3.2588,0.0,0.0,3.5226,3.5414,3.5424,3.5452,3.5452,3.5452,3.5889,3.6883,3.6915,3.7068,3.7374,3.7374,3.7374,3.7374,3.7374,3.7374,3.7374,3.7374,3.7374,3.7374,3.7374,3.7374,3.7374,3.7374,3.7188,3.6904,3.6752,3.6184,3.543,3.5266,3.4917,3.4524,3.4524,3.4524,3.4524,3.4524,3.4524,3.4524,3.4524,3.4524,3.4524,3.4524,3.4524,3.4338,3.3508,3.3234,3.2917,3.2055,3.1738,3.1618,3.1618,3.1618,3.1618,3.1618,3.1618,3.1476,3.0983,3.0879,3.0619,3.0005,3.0143,3.013,2.96,3.0252,3.0672,3.0332,3.0465,3.1244,3.2977,3.2797,3.2754,3.3068,3.3124,3.3124,3.3124,3.3124,3.3124,3.3124,3.3124,3.3124,3.3124,3.3124,3.3269,3.3633,3.3633,3.3935,1.9696,2.0762,2.1321,2.0752,1.9948,1.8839,1.7171,1.6084,1.509,1.3845,1.3597,1.3597,1.3597,1.3731,1.4382,1.5983,1.6676,1.803,0.0,0.0,0.0,2.782,0.0,0.0,0.0,3.398,3.4433,3.4776,3.4775,3.4836,3.4949,3.4949,3.5408,3.6391,3.6599,3.6915,3.7374,3.7374,3.7374,3.7374,3.7374,3.7374,3.7374,3.7199,3.7123,3.7112,3.6926,3.6948,0.0,3.7123,3.6948,3.6675,3.6489,3.5922,3.519,3.5015,3.4764,3.4524,3.4524,3.4524,3.4524,3.4524,3.4524,3.4524,3.4524,3.4524,3.4524,3.4524,3.4392,3.4065,3.3321,3.2993,3.2612,3.1815,3.1618,3.1618,3.1618,3.1618,3.1618,3.1618,3.1618,3.1424,3.0879,3.0786,3.062,3.0099,3.0294,3.0257,2.9663,3.0302,3.0518,2.974,3.0006,3.0915,3.2683,3.2697,3.2731,3.3086,3.3464,3.3696,3.3696,3.3696,3.3608,3.3395,3.3382,3.3282,3.3124,3.3282,3.3558,3.3909,3.411,3.4512,0.0,1.8797,1.9492,1.9461,1.8808,1.7833,1.6558,1.5594,0.0,1.3807,1.3621,1.3628,1.3721,1.4066,1.4531,1.5225,1.6376,1.8259,0.0,2.2961,0.0,0.0,3.0464,0.0,3.277,3.3099,3.3646,3.4622,3.4324,3.4199,3.4468,3.4524,3.4949,3.5878,3.6358,3.6839,3.7374,3.7374,3.7363,3.733,3.733,3.7309,3.7265,3.6839,3.6642,0.0,3.6162,3.6227,3.6642,3.6642,3.662,3.6544,3.6085,3.5605,3.5102,3.4676,3.4524,3.4524,3.4524,3.4524,3.4524,3.4524,3.4524,3.4524,3.4524,3.4524,3.4524,3.4524,3.4174,3.3683,3.3245,3.2721,3.2252,3.1749,3.1618,3.1618,3.1618,3.1618,3.1567,3.1578,3.1567,3.1373,3.0879,3.0776,3.062,3.0099,2.9994,2.9994,2.9994,3.0432,3.0502,3.0079,3.083,3.1608,3.2241,3.1985,3.2195,3.3164,3.4144,3.468,3.468,3.468,3.4487,3.3972,3.396,3.3709,3.3194,3.3709,3.3985,3.4035,3.4537,3.5031,1.5018,0.0,1.6589,1.6208,1.596,1.5645,0.0,1.4711,1.4339,1.3865,1.3668,1.3917,1.5007,1.4707,1.5256,1.8206,1.8942,2.0124,2.2922,2.5996,0.0,3.0958,3.184,3.2502,3.306,3.3187,3.3405,3.3841,3.4038,3.4199,3.4468,3.4524,3.4786,3.5364,3.5496,3.614,3.7363,3.7374,3.7199,3.6861,3.6861,3.6664,3.6352,3.6184,3.614,3.6129,3.6078,3.6031,3.614,3.614,3.5911,3.5539,3.543,3.5102,3.4676,3.4567,3.4524,3.4524,3.4524,3.4524,3.4524,3.4524,3.4524,3.4524,3.4524,3.4524,3.4524,3.4524,3.4174,3.3683,3.3245,3.2721,3.2252,3.1749,3.1618,3.1618,3.1618,3.1618,3.1527,3.1322,3.127,3.1116,3.0609,3.0495,3.0401,3.0047,2.9994,2.9994,2.9994,2.9786,2.9606,2.9501,2.9682,3.021,3.1191,3.2192,3.3222,3.4247,3.4577,3.468,3.468,3.468,3.4618,3.4525,3.4525,3.4462,3.4336,3.4462,3.4705,3.5119,3.5245,3.5655,1.3896,1.4821,1.568,1.5639,1.5473,1.5272,1.5076,1.4499,1.3921,0.0,0.0,1.4221,1.5194,1.5308,1.6105,1.8735,1.9523,2.0975,0.0,0.0,3.0109,3.1444,3.2234,3.2794,0.0,3.2965,3.3069,3.3409,3.3692,3.403,3.4311,3.4412,3.4731,3.519,3.5212,3.5692,3.6778,3.673,3.6599,3.6358,3.6358,3.6227,3.6012,3.5725,3.5616,3.5605,3.5397,3.5419,3.5616,3.5616,3.5452,3.5212,3.5212,3.4928,3.4524,3.4524,3.4524,3.4524,3.4524,3.4524,3.4524,3.4524,3.4524,3.4524,3.4524,3.4524,3.4524,3.4524,3.401,3.3399,3.319,3.2558,3.1968,3.1684,3.1618,3.1618,3.1618,3.1527,3.1373,3.123,3.1075,3.0868,3.0443,3.0391,3.0297,3.0047,2.9994,2.9994,2.9994,2.9777,2.9539,2.9332,2.9497,3.0174,3.1511,3.258,3.3625,3.4699,3.5189,3.5479,3.5479,3.5479,3.5353,3.5056,3.4806,3.468,3.468,3.4931,3.5207,3.5508,3.5805,3.6081,1.3745,1.479,1.5835,1.6039,1.5877,1.5697,1.5625,0.0,0.0,0.0,0.0,0.0,1.539,1.6156,0.0,1.8787,0.0,0.0,2.5771,2.8493,3.0492,3.1425,3.2219,0.0,3.2794,3.2727,3.2851,3.3193,3.3409,3.3681,3.4086,3.4311,3.4642,3.5091,3.5102,3.531,3.5747,3.5947,3.598,3.5903,3.5903,3.5812,3.5736,3.5299,3.5102,3.5081,3.4698,0.0,3.5102,3.5102,3.5102,3.5102,3.5102,3.4862,3.4524,3.4524,3.4524,3.4524,3.4524,3.4524,3.4524,3.4524,3.4524,3.4524,3.4524,3.4524,3.4524,3.4524,3.3825,3.3124,3.3124,3.235,3.1618,3.1618,3.1618,3.1618,3.1618,3.1424,3.123,3.1178,3.0983,3.0724,3.0401,3.0349,3.0245,3.0047,2.9994,2.9994,2.9994,2.9994,2.9849,2.9446,2.9912,3.0882,3.2494,3.3096,3.3895,3.4981,3.5918,3.6405,3.6405,3.6405,3.6144,3.5633,3.5215,3.4977,3.4977,3.5395,3.5621,3.5633,3.6144,3.6405,1.4366,1.5515,1.6011,1.4904,1.5163,1.5641,1.5337,1.5024,0.0,0.0,0.0,0.0,0.0,1.8009,1.8932,0.0,0.0,2.5699,0.0,0.0,3.1034,3.2169,0.0,3.2784,3.3079,3.2851,3.2851,3.3193,3.325,3.3533,3.4086,3.4142,3.4287,3.4577,3.4633,3.4666,3.4742,3.555,3.5747,3.5321,3.5321,3.5113,3.4742,3.4666,3.4633,3.4622,0.0,3.4567,3.4633,3.4633,3.4633,3.4633,3.4633,3.4589,3.4524,3.4524,3.4524,3.4524,3.4524,3.4524,3.4524,3.4524,3.4524,3.4524,3.4524,3.4524,3.4524,3.4524,3.3825,3.3124,3.3124,3.235,3.1618,3.1618,3.1618,3.1618,3.1618,3.1567,3.1373,3.0931,3.0827,3.062,3.0151,3.0047,3.0047,2.9994,2.9994,2.9994,2.9994,2.9994,2.9973,2.9891,3.0794,3.1807,3.2986,3.3995,3.503,3.6073,3.631,3.6405,3.6405,3.6405,3.6367,3.6279,3.6204,3.6153,3.6153,3.6241,3.6279,3.6279,3.6367,3.6405,1.3652,1.4738,1.5597,1.5463,1.6477,1.7429,1.7021,1.6682,1.6477,0.0,0.0,0.0,0.0,0.0,2.1135,2.3877,0.0,2.7448,2.8794,2.9973,3.1073,0.0,0.0,3.2784,3.2898,3.2794,3.2784,3.2908,3.3079,3.3306,3.359,3.3918,3.4142,3.4255,3.4412,3.4524,3.4524,3.496,3.507,3.484,3.484,3.4731,3.4524,3.4524,3.4524,3.4524,3.4524,3.4524,3.4524,3.4524,3.4524,3.4524,3.4524,3.4524,3.4524,3.4524,3.4524,3.4524,3.4524,3.4524,3.4524,3.4524,3.4524,3.4524,3.4524,3.4524,3.4524,3.4524,3.401,3.3453,3.3453,3.2754,3.2033,3.2033,3.1826,3.1618,3.1618,3.1373,3.1075,3.0827,3.0579,3.0308,3.0047,2.9994,2.9994,2.9994,2.9994,2.9994,2.9994,2.9994,2.9994,2.9994,3.094,3.2033,3.3101,3.419,3.5271,3.631,3.6405,3.6405,3.6405,3.6405,3.6405,3.6405,3.6405,3.6405,3.6405,3.6405,3.6405,3.6405,3.6405,3.6405,1.3245,1.419,1.5266,1.6415,1.7657,1.862,1.8714,1.8361,1.8112,0.0,0.0,0.0,0.0,2.1694,0.0,2.5678,2.7282,2.8566,2.9497,3.0336,3.1184,3.2039,3.2463,3.2669,3.2669,3.2669,3.2669,3.2669,3.2965,3.3136,3.3193,3.3646,3.3918,3.3974,3.4255,3.4412,3.4412,3.4468,3.4524,3.4524,3.4524,3.4524,3.4524,3.4524,3.4524,3.4524,3.4524,3.4524,3.4524,3.4524,3.4524,3.4524,3.4524,3.4524,3.4524,3.4524,3.4524,3.4524,3.4524,3.4524,3.4524,3.4524,3.4524,3.4524,3.4524,3.4524,3.4468,3.4412,3.4195,3.3945,3.3825,3.3169,3.2536,3.2536,3.2164,3.1753,3.169,3.1253,3.0879,3.0724,3.0349,3.0088,2.9994,2.9994,2.9994,2.9994,2.9994,2.9994,2.9994,3.0193,3.0391,3.0391,3.1586,3.2778,3.3845,3.4678,3.5523,3.6358,3.6405,3.6405,3.6405,3.6405,3.6405,3.6405,3.6405,3.6405,3.6405,3.6405,3.6405,3.6405,3.6543,3.6606,1.4262,1.4925,1.5421,1.7161,1.7378,1.7595,1.9316,1.9336,1.9334,2.0607,0.0,0.0,0.0,2.4095,2.5792,2.647,2.8028,2.9528,3.046,0.0,3.1661,3.2571,3.2659,3.2669,3.2669,3.2669,3.2669,3.2669,3.2737,3.2851,3.3193,3.325,3.3353,3.3625,3.3974,3.4142,3.4142,3.4356,3.4524,3.4524,3.4524,3.4524,3.4524,3.4524,3.4524,3.4524,3.4524,3.4524,3.4524,3.4524,3.4524,3.4524,3.4524,3.4524,3.4524,3.4524,3.4524,3.4524,3.4524,3.4524,3.4524,3.4524,3.4524,3.4524,3.4524,3.4524,3.4468,3.4199,3.4278,3.4371,3.3912,3.341,3.307,3.307,3.2667,3.2265,3.1971,3.1521,3.1023,3.0557,3.0391,3.0287,3.0047,2.9994,2.9994,2.9994,2.9994,2.9994,2.9994,3.0888,3.1483,3.1483,3.3327,3.5017,3.6061,3.6263,3.631,3.6405,3.6405,3.6405,3.6405,3.6405,3.6405,3.6405,3.6405,3.6405,3.6405,3.6405,3.6405,3.6417,3.6885,3.7123,1.3393,1.4552,1.5732,1.6965,1.8019,0.0,0.0,2.1135,2.1942,2.2978,2.334,0.0,0.0,0.0,2.72,2.7386,2.8721,3.0056,3.0988,3.1267,3.1712,3.2623,3.2669,3.2669,3.2669,3.2669,3.2669,3.2669,3.2669,3.2737,3.2908,3.3079,3.325,3.3353,3.3636,3.3805,3.3805,3.4086,3.4255,3.4255,3.4412,3.4524,3.4524,3.4524,3.4524,3.4524,3.4524,3.4524,3.4524,3.4524,3.4524,3.4524,3.4524,3.4524,3.4524,3.4524,3.4524,3.4524,3.4524,3.4524,3.4524,3.4524,3.4524,3.4524,3.4524,3.4356,3.4255,3.4142,3.4142,3.4211,3.4027,3.378,3.3519,3.3519,3.304,3.2392,3.1973,3.1517,3.1011,3.0496,3.0391,3.0287,3.0047,3.0151,3.0193,3.0047,2.9994,2.9994,2.9994,3.094,3.1575,3.1575,3.3525,3.5223,3.631,3.6405,3.6405,3.6405,3.6405,3.6405,3.6405,3.6405,3.6405,3.6405,3.6405,3.6405,3.6405,3.6405,3.6581,3.6872,3.7086,3.7362,1.3279,1.45,1.597,1.713,0.0,0.0,2.1673,2.2718,2.3784,2.5119,2.5285,2.5275,2.5595,0.0,0.0,0.0,2.9094,3.0263,3.105,3.1288,3.1661,3.237,3.2587,3.2669,3.2669,3.2669,3.2669,3.2669,3.2669,3.2669,3.2669,3.2908,3.3022,3.3022,3.3409,3.3625,3.3625,3.403,3.4255,3.4255,3.4412,3.4524,3.4524,3.4524,3.4524,3.4524,3.4524,3.4524,3.4524,3.4524,3.4524,3.4524,3.4524,3.4524,3.4524,3.4524,3.4524,3.4524,3.4524,3.4524,3.4524,3.4524,3.4468,3.4356,3.4356,3.4199,3.3918,3.3861,3.3918,3.4041,3.3872,3.3838,3.3922,3.3922,3.3268,3.2598,3.2169,3.1677,3.1178,3.0601,3.0517,3.037,3.0078,3.0141,3.0193,3.0047,2.9994,3.0141,3.0443,3.1443,3.2376,3.3017,3.4422,3.5681,3.6596,3.6669,3.6669,3.6669,3.6669,3.6593,3.6417,3.6405,3.6405,3.6405,3.6405,3.6405,3.6405,3.6581,3.6857,3.7199,3.755,3.7914,1.4304,1.4987,1.6136,1.7968,0.0,0.0,2.337,2.394,2.4583,2.6853,2.6957,2.6635,2.6625,2.7009,0.0,2.7852,2.9094,3.016,3.0626,3.1081,3.1536,3.1926,3.239,3.2727,3.2669,3.2669,3.2669,3.2669,3.2669,3.2669,3.2669,3.2669,3.2669,3.2669,3.3285,3.3625,3.3625,3.4188,3.4524,3.4524,3.4524,3.4524,3.4524,3.4524,3.4524,3.4524,3.4524,3.4524,3.4524,3.4524,3.4524,3.4524,3.4524,3.4524,3.4524,3.4524,3.4524,3.4524,3.4524,3.4524,3.4524,3.4524,3.43,3.4086,3.4086,3.3861,3.3512,3.3306,3.3646,3.3918,3.3363,3.3636,3.4097,3.4086,3.3497,3.2823,3.2545,3.2133,3.1606,3.0835,3.0698,3.0543,3.0087,3.0005,3.0005,2.9994,2.9994,3.0391,3.1483,3.2538,3.4042,3.6156,3.6417,3.6631,3.7136,3.7186,3.7199,3.7199,3.7199,3.6948,3.643,3.6405,3.6405,3.6405,3.6405,3.6405,3.6417,3.6923,3.7199,3.7224,3.8341,3.8919,1.391,1.5415,0.0,1.86,0.0,0.0,0.0,2.5329,0.0,0.0,2.7872,2.7903,2.7583,2.8162,0.0,2.8442,2.9301,3.016,3.0626,3.0801,3.1174,3.1895,3.2101,3.2318,3.2638,3.2669,3.2669,3.2669,3.2669,3.2669,3.2669,3.2669,3.2669,3.2669,3.3069,3.3306,3.3306,3.3918,3.4199,3.4199,3.4412,3.4524,3.4524,3.4524,3.4524,3.4524,3.4524,3.4524,3.4524,3.4524,3.4524,3.4524,3.4524,3.4524,3.4524,3.4524,3.4524,3.4524,3.4524,3.4524,3.4524,3.4524,3.4468,3.4367,3.4142,3.3861,3.3512,3.3306,3.3306,3.342,3.325,3.3306,3.3533,3.3681,3.3417,3.3001,3.2563,3.2218,3.1813,3.1311,3.1327,3.1279,3.0617,3.063,3.0621,3.0098,2.9994,3.064,3.2499,3.3636,3.4884,3.6263,3.6757,3.7059,3.7174,3.7538,3.7764,3.7764,3.7764,3.7337,3.6455,3.6405,3.6405,3.6405,3.6405,3.6606,3.6935,3.7098,3.7588,3.8379,3.8756,3.9082,1.5147,1.686,0.0,2.0373,2.2343,2.4374,2.6258,0.0,0.0,0.0,2.868,2.8587,2.8483,2.8783,0.0,2.8897,2.9508,3.0098,3.0367,3.0574,3.0884,3.1433,3.1661,3.1888,3.2168,3.2199,3.2271,3.239,3.2401,3.2483,3.2659,3.2669,3.2669,3.2669,3.3126,3.3353,3.3353,3.3974,3.4255,3.4255,3.4412,3.4524,3.4524,3.4524,3.4524,3.4524,3.4524,3.4524,3.4524,3.4524,3.4524,3.4524,3.4524,3.4524,3.4524,3.4524,3.4524,3.4524,3.4524,3.4524,3.4524,3.4524,3.4356,3.4132,3.3974,3.3692,3.3409,3.325,3.3306,3.3353,3.325,3.3193,3.325,3.3409,3.3239,3.2939,3.2657,3.2425,3.2122,3.1723,3.174,3.1704,3.1094,3.1119,3.1006,3.0389,3.0819,3.1902,3.3586,3.4775,3.5667,3.631,3.6908,3.7337,3.7713,3.8115,3.8354,3.8354,3.8354,3.7952,3.7048,3.6857,3.6732,3.6732,3.6732,3.696,3.7513,3.7739,3.8253,3.8932,3.9094,3.9371,1.7182,1.863,0.0,2.2615,2.3753,0.0,2.7427,2.87,2.9477,2.986,0.0,2.8866,2.929,2.9021,2.8876,2.9301,2.9715,2.9994,2.9994,3.0356,3.0636,3.0677,3.106,3.1329,3.1371,3.1381,3.1547,3.1895,3.1957,3.2163,3.2587,3.2706,3.2669,3.2669,3.3296,3.3625,3.3625,3.4188,3.4524,3.4524,3.4524,3.4524,3.4524,3.4524,3.4524,3.4524,3.4524,3.4524,3.4524,3.4524,3.4524,3.4524,3.4524,3.4524,3.4524,3.4524,3.4524,3.4524,3.4524,3.4524,3.4524,3.4524,3.4132,3.3625,3.3625,3.3466,3.325,3.325,3.3409,3.3523,3.325,3.3193,3.3136,3.3136,3.2908,3.2669,3.2669,3.2669,3.2545,3.2132,3.205,3.1905,3.1516,3.1433,3.1267,3.0781,3.2119,3.3549,3.4532,3.5667,3.6405,3.6405,3.6945,3.7613,3.8467,3.8793,3.8994,3.8994,3.8994,3.8718,3.8191,3.7575,3.7262,3.7262,3.7262,3.7525,3.809,3.8617,3.8944,3.8956,3.9459,3.9697,1.6042,1.7937,0.0,0.0,2.5409,2.7748,2.8328,2.9177,2.9766,2.9508,2.958,2.9735,2.9829,2.9766,2.9735,2.9829,2.9932,2.9994,2.9994,3.0087,3.0284,3.0646,3.077,3.0977,3.134,3.1381,3.1422,3.1505,3.1836,3.2029,3.2132,3.2483,3.2669,3.2669,3.3296,3.3625,3.3625,3.4188,3.4524,3.4524,3.4524,3.4524,3.4524,3.4524,3.4524,3.4524,3.4524,3.4524,3.4524,3.4524,3.4524,3.4524,3.4524,3.4524,3.4524,3.4524,3.4524,3.4524,3.4524,3.4524,3.4524,3.4524,3.4255,3.3974,3.3974,3.3749,3.3512,3.3512,3.3409,3.325,3.3193,3.3022,3.2794,3.2794,3.2727,3.2669,3.2669,3.2669,3.2638,3.2545,3.2525,3.238,3.1981,3.1899,3.1661,3.0946,3.2185,3.33,3.3499,3.5223,3.6405,3.6405,3.7249,3.7914,3.8115,3.8981,3.9521,3.9521,3.9521,3.9459,3.9333,3.8366,3.7826,3.7826,3.7826,3.8115,3.8693,3.8856,3.9094,3.9521,3.9634,3.9697,1.6651,0.0,0.0,2.3795,0.0,2.8338,2.8566,2.9156,2.9653,2.9642,2.9829,2.9994,2.9994,2.9994,2.9994,2.9994,2.9994,2.9994,2.9994,2.9994,3.0087,3.0325,3.0356,3.045,3.0698,3.0719,3.0801,3.1029,3.1464,3.1816,3.1977,3.2421,3.2669,3.2669,3.3296,3.3625,3.3625,3.4188,3.4524,3.4524,3.4524,3.4524,3.4524,3.4524,3.4524,3.4524,3.4524,3.4524,3.4524,3.4524,3.4524,3.4524,3.4524,3.4524,3.4524,3.4524,3.4524,3.4524,3.4524,3.4524,3.4524,3.4524,3.4311,3.4086,3.4086,3.3974,3.3805,3.3625,3.3523,3.3353,3.325,3.2965,3.2669,3.2669,3.2669,3.2669,3.2669,3.2669,3.2669,3.2669,3.2669,3.2825,3.3117,3.3087,3.2844,3.2383,3.325,3.4357,3.5384,3.6492,3.6996,3.6468,3.7349,3.8228,3.8768,3.9358,3.9697,3.9697,3.9697,3.9697,3.9697,3.9132,3.8693,3.8429,3.8417,3.8693,3.927,3.927,3.9421,3.9697,3.9697,3.9697,1.7036,0.0,2.1869,2.4985,2.6796,0.0,2.839,2.8918,2.9415,2.9798,2.9942,2.9994,2.9994,2.9994,2.9994,2.9994,2.9994,2.9994,2.9994,2.9994,2.9994,2.9994,2.9994,2.9994,2.9994,2.9994,3.0149,3.0532,3.0998,3.1454,3.1843,3.2308,3.2556,3.2556,3.3197,3.3526,3.3508,3.4089,3.4468,3.4524,3.4524,3.4524,3.4524,3.4524,3.4524,3.4524,3.4524,3.4524,3.4524,3.4524,3.4524,3.4524,3.4524,3.4524,3.4524,3.4524,3.4524,3.4524,3.4524,3.4524,3.4524,3.4524,3.4311,3.4086,3.4142,3.4142,3.403,3.3738,3.3625,3.3523,3.325,3.2965,3.2669,3.2669,3.2669,3.2669,3.2669,3.2669,3.2669,3.2669,3.2669,3.3001,3.4043,3.4021,3.3824,3.3726,3.4812,3.6296,3.8091,3.8304,3.7952,3.7084,3.7751,3.868,3.9622,3.9697,3.9697,3.9697,3.9697,3.9697,3.9697,3.9697,3.9484,3.907,3.9057,3.9245,3.9697,3.9697,3.9697,3.9697,3.9697,3.9697,1.4645,0.0,2.1787,0.0,2.6341,2.7469,0.0,0.0,2.9321,0.0,2.9715,2.9994,2.9994,2.9994,2.9994,2.9994,2.9994,2.9994,2.9994,2.9994,2.9994,2.9994,2.9994,2.9994,2.9994,2.9994,3.0025,3.0087,3.0522,3.0977,3.1443,3.1888,3.2081,3.2081,3.287,3.3163,3.3019,3.3759,3.4255,3.4524,3.4524,3.4524,3.4524,3.4524,3.4524,3.4524,3.4524,3.4524,3.4524,3.4524,3.4524,3.4524,3.4524,3.4524,3.4524,3.4524,3.4524,3.4524,3.4524,3.4524,3.4524,3.4524,3.4311,3.4142,3.4356,3.4311,3.4097,3.403,3.3805,3.3523,3.325,3.2965,3.2669,3.2669,3.2669,3.2669,3.2669,3.2669,3.2669,3.2669,3.2669,3.2727,3.2898,3.2939,3.2876,3.2876,3.6414,3.915,3.942,3.9471,3.9408,3.9258,3.9383,3.9534,3.9685,3.9697,3.9697,3.9697,3.9697,3.9697,3.9697,3.9697,3.9659,3.9584,3.9584,3.9622,3.9697,3.9697,3.9697,3.9697,3.9697,3.9697,1.5908,1.8806,2.1776,0.0,2.5865,2.6744,2.7707,0.0,2.868,2.9197,2.9466,2.9684,2.9942,2.9994,2.9994,2.9994,2.9994,2.9994,2.9994,2.9994,2.9994,2.9994,2.9994,2.9994,2.9994,2.9994,2.9994,2.9994,3.0419,3.077,3.0977,3.1422,3.1671,3.1671,3.2135,3.2593,3.2912,3.3469,3.3984,3.4524,3.4524,3.4524,3.4524,3.4524,3.4524,3.4524,3.4524,3.4524,3.4524,3.4524,3.4524,3.4524,3.4524,3.4524,3.4524,3.4524,3.4524,3.4524,3.4524,3.4524,3.4524,3.4524,3.4412,3.4367,3.4468,3.4412,3.4255,3.3907,3.3681,3.3512,3.3022,3.2784,3.2669,3.2669,3.2669,3.2669,3.2669,3.2669,3.2669,3.2669,3.3378,3.4134,3.4569,3.5772,3.5717,3.3115,3.6696,3.9697,3.9697,3.9697,3.9697,3.9697,3.9697,3.9697,3.9697,3.9697,3.9697,3.9697,3.9697,3.9697,3.9697,3.9697,3.9697,3.9697,3.9697,3.9697,3.9697,3.9697,3.9697,3.9697,3.9697,3.9697,1.6537,1.8692,2.0596,2.3474,2.4778,2.573,0.0,0.0,2.7986,0.0,2.9135,2.9415,2.9756,2.9911,2.9994,2.9994,2.9994,2.9994,2.9994,2.9994,2.9994,2.9994,2.9994,2.9994,2.9994,2.9994,2.9994,2.9994,3.0315,3.0563,3.0677,3.1008,3.1205,3.1205,3.1527,3.1957,3.2452,3.3081,3.3778,3.4524,3.4524,3.4524,3.4524,3.4524,3.4524,3.4524,3.4524,3.4524,3.4524,3.4524,3.4524,3.4524,3.4524,3.4524,3.4524,3.4524,3.4524,3.4524,3.4524,3.4524,3.4524,3.4524,3.4524,3.4524,3.4524,3.4468,3.43,3.3738,3.3579,3.3353,3.2841,3.2669,3.2669,3.2669,3.2669,3.2669,3.2669,3.2669,3.2669,3.2669,3.3649,3.4625,3.5223,3.7725,3.8502,3.5013,3.7459,3.9697,3.9697,3.9697,3.9697,3.9697,3.9697,3.9697,3.9697,3.8607,3.7897,3.7897,3.9037,3.9697,3.9697,3.9697,3.9697,3.9697,3.9697,3.9697,3.9697,3.9697,3.9697,3.9697,3.9697,3.9697,1.4417,1.5915,1.7418,2.0545,2.2666,0.0,0.0,0.0,2.7427,2.7893,2.869,2.9311,2.9332,2.9704,2.9994,2.9994,2.9994,2.9994,2.9994,2.9994,2.9994,2.9994,2.9994,2.9994,2.9994,2.9994,2.9994,2.9994,3.0015,3.0222,3.0667,3.0708,3.0729,3.0729,3.1208,3.1337,3.1221,3.264,3.3778,3.4524,3.4524,3.4524,3.4524,3.4524,3.4524,3.4524,3.4524,3.4524,3.4524,3.4524,3.4524,3.4524,3.4524,3.4524,3.4524,3.4524,3.4524,3.4524,3.4524,3.4524,3.4524,3.4524,3.4524,3.4524,3.4524,3.43,3.403,3.3681,3.3409,3.3136,3.2794,3.2669,3.2669,3.2669,3.2669,3.2669,3.2669,3.2669,3.2669,3.2669,3.2784,3.2841,3.2887,3.6696,3.9633,3.9362,3.953,3.9697,3.9697,3.9697,3.9697,3.9697,3.9697,3.9697,3.9697,3.5608,3.3058,3.3058,3.7245,3.9697,3.9697,3.9697,3.9697,3.9697,3.9697,3.9697,3.9697,3.9697,3.9697,3.9697,3.9697,3.9697,1.3683,1.5007,0.0,1.9158,2.1186,2.2904,2.4281,2.5796,2.6988,2.7396,2.7986,2.8597,2.9197,2.9684,2.9994,2.9994,2.9994,2.9994,2.9994,2.9994,2.9994,2.9994,2.9994,2.9994,2.9994,2.9994,2.9994,2.9994,2.9994,3.0067,3.0232,3.0243,3.0338,3.0496,3.0504,3.0955,3.1869,3.3353,3.4248,3.4524,3.4524,3.4524,3.4524,3.4524,3.4524,3.4524,3.4524,3.4524,3.4524,3.4524,3.4524,3.4524,3.4524,3.4524,3.4524,3.4524,3.4524,3.4524,3.4524,3.4524,3.4524,3.4524,3.4524,3.4524,3.4524,3.4311,3.403,3.3681,3.3409,3.3136,3.2794,3.2669,3.2669,3.2669,3.2669,3.2669,3.2669,3.2669,3.2669,3.2669,3.392,3.5443,3.6911,3.8607,3.9697,3.9697,3.9697,3.9697,3.9697,3.9697,3.9697,3.9697,3.9697,3.9697,3.9697,3.5399,3.2669,3.2669,3.7084,3.9697,3.9697,3.9697,3.9697,3.9697,3.9697,3.9697,3.9697,3.9697,3.9697,3.9697,3.9697,3.9885,1.2772,1.3941,0.0,0.0,0.0,2.1041,2.335,0.0,2.5733,2.6656,2.7282,2.7935,2.87,2.9218,2.9632,2.9942,2.9994,2.9994,2.9994,2.9994,2.9994,2.9994,2.9994,2.9994,2.9994,2.9994,2.9994,2.9994,3.0099,3.0141,3.0141,3.0141,3.0193,3.0391,3.0297,3.0969,3.2437,3.3398,3.4096,3.4524,3.4524,3.4524,3.4524,3.4524,3.4524,3.4524,3.4524,3.4524,3.4524,3.4524,3.4524,3.4524,3.4524,3.4524,3.4524,3.4524,3.4524,3.4524,3.4524,3.4524,3.4524,3.4524,3.4524,3.4468,3.4412,3.4142,3.3861,3.3579,3.325,3.2965,3.2737,3.2669,3.2669,3.2669,3.2669,3.2669,3.2669,3.2669,3.2669,3.2669,3.3976,3.6034,3.9141,3.9697,3.9697,3.9697,3.9697,3.9697,3.9697,3.9697,3.9697,3.9697,3.9697,3.9697,3.9697,3.6858,3.5068,3.5068,3.795,3.9697,3.9697,3.9697,3.9697,3.9697,3.9697,3.9697,3.9697,3.9697,3.9697,3.9697,3.9885,4.0262,0.0,0.0,0.0,0.0,0.0,0.0,2.278,0.0,2.3608,2.544,2.6584,2.7361,2.7821,2.8286,2.8887,2.9808,2.9963,2.9984,2.9994,2.9994,2.9994,2.9994,2.9994,2.9994,2.9994,2.9994,2.9994,2.9994,3.0245,3.0391,3.0391,3.0391,3.0391,3.0391,3.0682,3.1442,3.2674,3.2706,3.3291,3.448,3.4491,3.4491,3.448,3.4491,3.4502,3.4502,3.4513,3.4524,3.4524,3.4524,3.4524,3.4524,3.4524,3.4524,3.4524,3.4524,3.4524,3.4524,3.4524,3.4524,3.4524,3.4524,3.4524,3.4468,3.4199,3.3861,3.3568,3.3306,3.2965,3.2727,3.2669,3.2669,3.2669,3.2669,3.2669,3.2669,3.2669,3.2669,3.2669,3.2669,3.2669,3.4201,3.8881,3.9697,3.9697,3.9697,3.9697,3.9697,3.9697,3.9697,3.9645,3.953,3.9633,3.9633,3.953,3.9633,3.9697,3.9697,3.9697,3.9697,3.9697,3.9697,3.9697,3.9697,3.9697,3.9697,3.9697,3.9697,3.9697,3.971,4.0275,4.0774,1.2276,0.0,0.0,0.0,0.0,0.0,0.0,0.0,2.1462,2.3961,2.4676,2.5451,2.7541,2.8028,2.8307,2.8897,2.928,2.9611,2.9942,2.9994,2.9994,2.9994,2.9994,2.9994,2.9994,2.9994,2.9994,0.0,3.0047,3.0099,3.0099,3.0464,3.0609,3.0391,3.1418,3.2034,3.2103,3.303,3.3497,3.3475,3.3825,3.3814,3.3486,3.3835,3.3988,3.401,3.4371,3.4524,3.4524,3.4524,3.4524,3.4524,3.4524,3.4524,3.4524,3.4524,3.4524,3.4524,3.4524,3.4524,3.4524,3.4524,3.4524,3.4468,3.4412,3.4199,3.3918,3.3579,3.3296,3.3022,3.2784,3.2669,3.2669,3.2669,3.2669,3.2669,3.2669,3.2669,3.2669,3.2669,3.2669,3.4201,3.8881,3.9697,3.9697,3.9697,3.9697,3.9697,3.9697,3.9697,3.8384,3.5013,3.7684,3.8332,3.4914,3.7737,3.9697,3.9697,3.9697,3.9697,3.9697,3.9697,3.9697,3.9697,3.9697,3.9697,3.9697,3.9697,3.9697,3.9722,4.0676,4.1137,1.3105,1.3548,0.0,0.0,0.0,0.0,1.8112,1.8899,2.0,0.0,2.3453,2.425,2.6357,2.6941,2.7282,2.7945,2.8431,2.8887,2.9352,2.9415,2.9415,2.9415,2.9591,2.9704,2.9704,2.988,2.9994,2.9994,3.0088,3.0193,3.0193,3.0568,3.0724,3.0557,3.1458,3.1956,3.213,3.2865,3.3158,3.3124,3.3355,3.3344,3.3124,3.3366,3.3486,3.3519,3.401,3.4218,3.4229,3.4436,3.4524,3.4524,3.4524,3.4524,3.4524,3.4524,3.4524,3.4524,3.4524,3.4524,3.4524,3.4524,3.4524,3.4468,3.4367,3.4199,3.403,3.3681,3.3409,3.3136,3.2965,3.2794,3.2669,3.2669,3.2669,3.2669,3.2669,3.2669,3.2669,3.2669,3.4256,3.648,3.9258,3.9697,3.9697,3.9697,3.9697,3.9697,3.9697,4.0501,3.9206,3.4364,3.6269,3.65,3.3017,3.6977,3.9697,3.9697,3.9697,3.9697,3.9697,3.9697,3.9697,3.9697,3.9697,3.9697,3.9697,3.9697,3.9697,3.971,4.035,4.1141,1.4206,1.431,0.0,0.0,1.5566,0.0,1.8579,1.8745,1.8961,0.0,2.2366,2.3122,2.46,2.5285,2.5889,2.6718,2.7351,2.7914,2.8524,2.8618,2.8618,2.8618,2.898,2.9228,2.9228,2.9653,2.9912,2.9964,3.0266,3.0391,3.0391,3.062,3.0786,3.0786,3.1034,3.1538,3.2295,3.235,3.2558,3.2907,3.3015,3.3015,3.296,3.3015,3.3048,3.307,3.3508,3.3737,3.3825,3.4261,3.448,3.4524,3.4524,3.4524,3.4524,3.4524,3.4524,3.4524,3.4524,3.4524,3.4524,3.4524,3.4524,3.4468,3.4199,3.4142,3.4086,3.3681,3.3353,3.3136,3.3136,3.2908,3.2669,3.2669,3.2669,3.2669,3.2669,3.2669,3.2669,3.2669,3.6057,3.9102,3.9594,3.9697,3.9697,3.9697,3.9898,4.0061,4.0061,4.1769,4.1031,3.5951,3.5418,3.4776,3.3114,3.6618,3.9154,3.9697,3.9697,3.9697,3.9697,3.953,3.953,3.9697,3.9697,3.9697,3.9697,3.9697,3.9697,3.9697,3.986,4.099,1.65,1.6686,1.6924,1.6498,0.0,0.0,1.6177,1.6643,1.7637,0.0,1.9285,2.0079,2.2573,2.3401,2.3774,2.395,2.5461,2.7071,2.839,2.8618,2.8618,2.8618,2.8851,2.8963,2.8752,2.8996,2.9346,2.9752,3.0181,3.0391,3.0391,3.0453,3.0557,3.0776,3.0827,3.118,3.1771,3.1934,3.1978,3.1913,3.2317,3.2295,3.1924,3.2328,3.2525,3.2536,3.3005,3.3431,3.3803,3.3901,3.4163,3.4524,3.4524,3.4524,3.4524,3.4524,3.4524,3.4524,3.4524,3.4524,3.4524,3.4524,3.4524,3.4468,3.4412,3.4412,3.43,3.3738,3.3239,3.2794,3.2794,3.2727,3.2669,3.2669,3.2669,3.2669,3.2669,3.2669,3.2669,3.2669,3.3434,3.5289,3.9037,3.9697,3.9697,3.9697,4.1204,4.2333,4.2333,4.271,4.1031,3.5951,3.5418,3.5283,3.4931,3.4407,3.5674,3.9478,3.9697,3.9697,3.9697,3.8502,3.8449,3.9697,3.9697,3.9697,3.9697,3.9697,3.9697,3.9722,4.0902,4.1693,1.7926,1.7885,1.7999,1.7812,0.0,0.0,0.0,1.6694,1.716,1.8776,1.8526,1.8827,2.1342,2.1807,2.2035,2.2729,2.4304,2.5638,2.6281,2.7352,2.8081,2.7983,2.8348,2.8582,2.8484,2.8791,2.9126,2.9463,2.9714,2.9995,3.038,3.0297,3.0401,3.0786,3.0661,3.0765,3.1178,3.1445,3.1497,3.1424,3.1829,3.187,3.1629,3.1891,3.2001,3.2033,3.2514,3.2863,3.3115,3.3333,3.3573,3.3825,3.4065,3.4163,3.4163,3.4163,3.4163,3.4196,3.4436,3.4524,3.4524,3.4524,3.4524,3.4524,3.4524,3.4412,3.4188,3.3738,3.3296,3.2965,3.2965,3.2841,3.2669,3.2669,3.2669,3.2669,3.2669,3.2669,3.2669,3.2669,3.2669,3.3445,3.5772,3.8173,4.0061,4.1166,4.2271,4.2974,4.2974,4.2974,4.1031,3.5951,3.5418,3.5418,3.5418,3.5905,3.6208,3.6208,3.8384,3.9697,3.9697,3.8933,3.8933,3.9685,3.9697,3.9697,3.9697,3.9697,3.9697,3.9735,4.1568,4.2434,0.0,0.0,0.0,0.0,0.0,1.8019,0.0,0.0,0.0,1.8818,1.8309,0.0,0.0,0.0,0.0,0.0,0.0,0.0,0.0,2.531,0.0,2.6718,2.7453,2.7935,2.7887,2.8198,2.861,2.9243,2.8944,2.9192,3.0275,3.012,3.0214,3.0776,3.0609,3.0609,3.0931,3.1127,3.123,3.1281,3.1476,3.1618,3.1618,3.1618,3.1618,3.164,3.2055,3.2295,3.2416,3.2829,3.3037,3.3157,3.3508,3.3661,3.3672,3.3759,3.3792,3.3868,3.4349,3.4524,3.4524,3.4524,3.4524,3.4524,3.4524,3.4255,3.3974,3.3681,3.3353,3.3079,3.3079,3.2908,3.2669,3.2669,3.2669,3.2669,3.2669,3.2669,3.2669,3.2669,3.2669,3.3001,3.3875,3.7192,4.0438,4.2647,4.2974,4.2974,4.2974,4.2974,4.1031,3.5951,3.5107,3.5045,3.5387,3.7188,3.6762,3.2955,3.7503,4.0136,3.971,3.9697,3.9258,3.8384,3.9258,3.9697,3.9697,4.0124,4.0325,4.0362,4.2007,4.2836,0.0,0.0,0.0,0.0,2.0829,0.0,0.0,0.0,1.7916,1.6983,0.0,0.0,0.0,0.0,0.0,0.0,0.0,0.0,2.0912,2.2318,2.3765,2.464,2.593,2.6679,2.6463,2.6307,2.7075,2.9005,2.7711,2.7793,3.0032,2.9884,3.0074,3.0765,3.0776,3.0972,3.1527,3.1322,3.1322,3.1567,3.1578,3.1618,3.1618,3.1618,3.1618,3.1618,3.1684,3.1968,3.2394,3.2437,3.27,3.3124,3.3179,3.3201,3.3256,3.3639,3.3792,3.3868,3.4349,3.4524,3.4524,3.4524,3.4524,3.4524,3.4524,3.4132,3.3625,3.3625,3.3182,3.2737,3.2737,3.2727,3.2669,3.2669,3.2669,3.2669,3.2669,3.2669,3.2669,3.2669,3.2669,3.4043,3.8173,3.9362,4.0438,4.2647,4.2974,4.2974,4.2974,4.2974,4.1031,3.5951,3.3989,3.3679,3.5283,3.4221,3.3275,3.2727,3.8957,4.1731,3.9772,3.9697,3.7737,3.3604,3.7566,3.9697,3.9697,4.1656,4.261,4.2597,4.2195,4.2359,0.0,0.0,0.0,0.0,0.0,0.0,1.7864,0.0,1.7595,0.0,0.0,0.0,0.0,0.0,0.0,0.0,1.9352,0.0,0.0,0.0,2.1876,0.0,0.0,0.0,2.5548,2.5381,2.5924,2.753,2.6668,2.7024,2.9189,2.9717,3.0058,3.0361,3.0637,3.0827,3.0909,3.1127,3.1281,3.1373,3.1527,3.1618,3.1618,3.1618,3.1618,3.1618,3.1618,3.1749,3.1946,3.1946,3.2055,3.223,3.223,3.2569,3.3113,3.2994,3.3322,3.3825,3.4032,3.4283,3.4524,3.4524,3.4524,3.4412,3.4076,3.3794,3.3512,3.3182,3.2898,3.2669,3.2669,3.2669,3.2669,3.2669,3.2669,3.2669,3.2669,3.2669,3.3491,3.6208,3.458,3.3332,3.5289,3.7897,4.0438,4.2647,4.2974,4.2974,4.2974,4.2974,4.1031,3.5951,3.3803,3.4083,3.7615,3.4712,3.3172,3.4227,3.8554,4.0651,3.9735,3.9697,3.8764,3.6804,3.8712,3.9697,3.9697,4.0614,4.1517,4.2346,4.2459,4.2685,2.3494,0.0,0.0,0.0,0.0,0.0,0.0,0.0,0.0,0.0,0.0,0.0,0.0,0.0,0.0,0.0,0.0,1.8633,0.0,1.8616,0.0,0.0,0.0,0.0,0.0,2.3991,2.4358,2.6204,2.5337,2.5827,2.8381,2.9345,2.9909,3.0064,3.0685,3.092,3.0754,3.1116,3.1333,3.1333,3.1527,3.1618,3.1618,3.1618,3.1618,3.1618,3.1618,3.1618,3.1618,3.1618,3.1618,3.1618,3.1618,3.2143,3.2895,3.2503,3.282,3.342,3.3551,3.3912,3.4349,3.448,3.4524,3.4412,3.3907,3.3681,3.3512,3.2955,3.2794,3.2669,3.2669,3.3001,3.3218,3.2784,3.3161,3.3491,3.2841,3.3218,3.4847,3.8921,3.5881,3.3115,3.4413,3.7459,4.0438,4.2647,4.2974,4.25,4.1088,4.215,4.1031,3.5951,3.5441,3.615,3.7667,3.4636,3.3444,3.5314,3.8686,4.0588,4.0588,4.0588,4.045,4.0149,4.0149,4.0149,4.0149,4.045,4.1141,4.2183,4.2421,4.2685,0.0,0.0,0.0,2.1362,0.0,0.0,0.0,0.0,1.8922,0.0,0.0,0.0,0.0,0.0,0.0,0.0,0.0,0.0,0.0,0.0,0.0,0.0,0.0,0.0,0.0,2.1566,2.2026,0.0,2.338,2.3777,2.7791,2.871,2.9434,3.0093,3.1073,3.1567,3.1578,3.1567,3.1578,3.1578,3.1618,3.1618,3.1618,3.1618,3.1618,3.1618,3.1618,3.1618,3.1618,3.1618,3.1618,3.1618,3.1618,3.1946,3.2405,3.2394,3.2405,3.2492,3.2929,3.341,3.3901,3.4371,3.4524,3.4468,3.4142,3.3861,3.3512,3.325,3.2965,3.2669,3.2669,3.3818,3.4569,3.3058,3.4402,3.5487,3.3161,3.4458,3.6792,3.9258,3.5881,3.4145,3.8712,3.9581,4.0438,4.2647,4.2974,4.1203,3.6308,3.9966,4.1031,3.5951,3.9791,4.005,3.3479,3.2784,3.3444,3.5314,4.014,4.2873,4.2873,4.2873,4.2371,4.125,4.1238,4.1238,4.1238,4.2359,4.2898,4.2924,4.1882,4.1957,0.0,0.0,2.6107,2.3018,0.0,0.0,0.0,0.0,0.0,0.0,0.0,0.0,0.0,0.0,0.0,0.0,0.0,0.0,0.0,0.0,0.0,0.0,0.0,0.0,0.0,0.0,0.0,2.3777,2.2987,0.0,2.7183,2.8154,2.9036,2.9884,3.0697,3.12,3.1322,3.1527,3.1618,3.1618,3.1618,3.1618,3.1618,3.1618,3.1618,3.1618,3.1618,3.1618,3.1618,3.1618,3.1618,3.1618,3.1618,3.1728,3.188,3.188,3.2285,3.296,3.3388,3.3661,3.3879,3.4371,3.4356,3.4199,3.3861,3.3579,3.3239,3.2965,3.2794,3.2669,3.2669,3.3105,3.3321,3.2841,3.3931,3.4902,3.4357,3.4847,3.6251,3.9141,3.7746,3.7095,4.0219,4.1379,4.1618,4.0915,4.2045,4.2388,4.0673,4.1911,4.1031,3.5951,3.9966,4.0685,3.4969,3.6252,3.6791,3.5478,4.0199,4.2974,4.2974,4.2974,4.2811,4.2434,4.2421,4.2183,4.1706,4.207,4.2321,4.2476,4.2057,4.2271,2.621,2.6729,0.0,2.4271,2.3567,0.0,1.9986,0.0,2.0954,0.0,0.0,0.0,0.0,0.0,0.0,0.0,0.0,0.0,0.0,1.5432,0.0,0.0,0.0,0.0,0.0,0.0,2.0284,2.2668,2.2375,0.0,0.0,2.7521,2.8578,2.9293,3.0322,3.0987,3.1219,3.1476,3.1618,3.1618,3.1618,3.1618,3.1618,3.1618,3.1618,3.1618,3.1618,3.1618,3.1618,3.1618,3.1618,3.1618,3.1618,3.1618,3.1618,3.1618,3.2012,3.2645,3.3311,3.3541,3.365,3.4305,3.4311,3.403,3.3681,3.3409,3.3136,3.2784,3.2669,3.2784,3.3218,3.3649,3.3864,3.3434,3.4525,3.5454,3.4413,3.5168,3.6495,3.8048,3.8646,3.9556,4.1546,4.2509,4.2497,4.1078,4.207,4.2974,4.2974,4.1431,3.9028,3.5777,3.9966,4.0961,3.5839,3.7103,3.8167,3.8119,4.1203,4.2974,4.2974,4.2974,4.2974,4.2974,4.2974,4.2748,4.2271,4.2271,4.2333,4.2502,4.2502,4.269]}]]